[[{"header":{"parameterUnit":"m.s-1","parameterCategory":1,"la1":30.6,"la2":28.766,"lo1":-90.7593,"lo2":-88.6598,"dx":0.0162,"dy":0.0183,"nx":116,"ny":114,"refTime":"2023-01-22T06:00:00:Z","depth":0,"parameterNumber":2,"parameterNumberName":"U-component_of_WINDS"},"data":[0.0,0.0,0.0,0.0,0.0,0.0,0.0,0.0,0.0,0.0,0.0,0.0,0.0,0.0,0.0,0.0,0.0,0.0,0.0,0.0,0.0,0.0,0.0,0.0,0.0,0.0,0.0,0.0,0.0,0.0,0.0,0.0,0.0,0.0,0.0,0.0,0.0,0.0,0.0,0.0,0.0,0.0,0.0,0.0,0.0,0.0,0.0,0.0,0.0,0.0,0.0,0.0,0.0,0.0,0.0,0.0,0.0,0.0,0.0,0.0,0.0,0.0,0.0,0.0,0.0,0.0,0.0,0.0,0.0,0.0,0.0,0.0,0.0,0.0,0.0,0.0,0.0,0.0,0.0,0.0,0.0,0.0,0.0,0.0,0.0,0.0,0.0,0.0,0.0,0.0,0.0,0.0,0.0,0.0,0.0,0.0,0.0,0.0,0.0,0.0,0.0,0.0,0.0,0.0,0.0,0.0,0.0,0.0,0.0,0.0,0.0,0.0,0.0,0.0,0.0,0.0,0.0,0.0,0.0,0.0,0.0,0.0,0.0,0.0,0.0,0.0,0.0,0.0,0.0,0.0,0.0,0.0,0.0,0.0,0.0,0.0,0.0,0.0,0.0,0.0,0.0,0.0,0.0,0.0,0.0,0.0,0.0,0.0,0.0,0.0,0.0,0.0,0.0,0.0,0.0,0.0,0.0,0.0,0.0,0.0,0.0,0.0,0.0,0.0,0.0,0.0,0.0,0.0,0.0,0.0,0.0,0.0,0.0,0.0,0.0,0.0,0.0,0.0,0.0,0.0,0.0,0.0,0.0,0.0,0.0,0.0,0.0,0.0,0.0,0.0,0.0,0.0,0.0,0.0,0.0,0.0,0.0,0.0,0.0,0.0,0.0,0.0,0.0,0.0,0.0,0.0,0.0,0.0,0.0,0.0,0.0,0.0,0.0,0.0,0.0,0.0,0.0,0.0,0.0,0.0,0.0,0.0,0.0,0.0,0.0,0.0,0.0,0.0,0.0,0.0,0.0,0.0,0.0,0.0,0.0,0.0,0.0,0.0,0.0,0.0,0.0,0.0,0.0,0.0,0.0,0.0,0.0,0.0,0.0,0.0,0.0,0.0,0.0,0.0,0.0,0.0,0.0,0.0,0.0,0.0,0.0,0.0,0.0,0.0,0.0,0.0,0.0,0.0,0.0,0.0,0.0,0.0,0.0,0.0,0.0,0.0,0.0,0.0,0.0,0.0,0.0,0.0,0.0,0.0,0.0,0.0,0.0,0.0,0.0,0.0,0.0,0.0,0.0,0.0,0.0,0.0,0.0,0.0,0.0,0.0,0.0,0.0,0.0,0.0,0.0,0.0,0.0,0.0,0.0,0.0,0.0,0.0,0.0,0.0,0.0,0.0,0.0,0.0,0.0,0.0,0.0,0.0,0.0,0.0,0.0,0.0,0.0,0.0,0.0,0.0,0.0,0.0,0.0,0.0,0.0,0.0,0.0,0.0,0.0,0.0,0.0,0.0,0.0,0.0,0.0,0.0,0.0,0.0,0.0,0.0,0.0,0.0,0.0,0.0,0.0,0.0,0.0,0.0,0.0,0.0,0.0,0.0,0.0,0.0,0.0,0.0,0.0,0.0,0.0,0.0,0.0,0.0,0.0,0.0,0.0,0.0,0.0,0.0,0.0,0.0,0.0,0.0,0.0,0.0,0.0,0.0,0.0,0.0,0.0,0.0,0.0,0.0,0.0,0.0,0.0,0.0,0.0,0.0,0.0,0.0,0.0,0.0,0.0,0.0,0.0,0.0,0.0,0.0,0.0,0.0,0.0,0.0,0.0,0.0,0.0,0.0,0.0,0.0,0.0,0.0,0.0,0.0,0.0,0.0,0.0,0.0,0.0,0.0,0.0,0.0,0.0,0.0,0.0,0.0,0.0,0.0,0.0,0.0,0.0,0.0,0.0,0.0,0.0,0.0,0.0,0.0,0.0,0.0,0.0,0.0,0.0,0.0,0.0,0.0,0.0,0.0,0.0,0.0,0.0,0.0,0.0,0.0,0.0,0.0,0.0,0.0,0.0,0.0,0.0,0.0,0.0,0.0,0.0,0.0,0.0,0.0,0.0,0.0,0.0,0.0,0.0,0.0,0.0,0.0,0.0,0.0,0.0,0.0,0.0,0.0,0.0,0.0,0.0,0.0,0.0,0.0,0.0,0.0,0.0,0.0,0.0,0.0,0.0,0.0,0.0,0.0,0.0,0.0,0.0,0.0,0.0,0.0,0.0,0.0,0.0,0.0,0.0,0.0,0.0,0.0,0.0,0.0,0.0,0.0,0.0,0.0,0.0,0.0,0.0,0.0,0.0,0.0,0.0,0.0,0.0,0.0,0.0,0.0,0.0,0.0,0.0,0.0,0.0,0.0,0.0,0.0,0.0,0.0,0.0,0.0,0.0,0.0,0.0,0.0,0.0,0.0,0.0,0.0,0.0,0.0,0.0,0.0,0.0,0.0,0.0,0.0,0.0,0.0,0.0,0.0,0.0,0.0,0.0,0.0,0.0,0.0,0.0,0.0,0.0,0.0,0.0,0.0,0.0,0.0,0.0,0.0,0.0,0.0,0.0,0.0,0.0,0.0,0.0,0.0,0.0,0.0,0.0,0.0,0.0,0.0,0.0,0.0,0.0,0.0,0.0,0.0,0.0,0.0,0.0,0.0,0.0,0.0,0.0,0.0,0.0,0.0,0.0,0.0,0.0,0.0,0.0,0.0,0.0,0.0,0.0,0.0,0.0,0.0,0.0,0.0,0.0,0.0,0.0,0.0,0.0,0.0,0.0,0.0,0.0,0.0,0.0,0.0,0.0,0.0,0.0,0.0,0.0,0.0,0.0,0.0,0.0,0.0,0.0,0.0,0.0,0.0,0.0,0.0,0.0,0.0,0.0,0.0,0.0,0.0,0.0,0.0,0.0,0.0,0.0,0.0,0.0,0.0,0.0,0.0,0.0,0.0,0.0,0.0,0.0,0.0,0.0,0.0,0.0,0.0,0.0,0.0,0.0,0.0,0.0,0.0,0.0,0.0,0.0,0.0,0.0,0.0,0.0,0.0,0.0,0.0,0.0,0.0,0.0,0.0,0.0,0.0,0.0,0.0,0.0,0.0,0.0,0.0,0.0,0.0,0.0,0.0,0.0,0.0,0.0,0.0,0.0,0.0,0.0,0.0,0.0,0.0,0.0,0.0,0.0,0.0,0.0,0.0,0.0,0.0,0.0,0.0,0.0,0.0,0.0,0.0,0.0,0.0,0.0,0.0,0.0,0.0,0.0,0.0,0.0,0.0,0.0,0.0,0.0,0.0,0.0,0.0,0.0,0.0,0.0,0.0,0.0,0.0,0.0,0.0,0.0,0.0,0.0,0.0,0.0,0.0,0.0,0.0,0.0,0.0,0.0,0.0,0.0,0.0,0.0,0.0,0.0,0.0,0.0,0.0,0.0,0.0,0.0,0.0,0.0,0.0,0.0,0.0,0.0,0.0,0.0,0.0,0.0,0.0,0.0,0.0,0.0,0.0,0.0,0.0,0.0,0.0,0.0,0.0,0.0,0.0,0.0,0.0,0.0,0.0,0.0,0.0,0.0,0.0,0.0,0.0,0.0,0.0,0.0,0.0,0.0,0.0,0.0,0.0,0.0,0.0,0.0,0.0,0.0,0.0,0.0,0.0,0.0,0.0,0.0,0.0,0.0,0.0,0.0,0.0,0.0,0.0,0.0,0.0,0.0,0.0,0.0,0.0,0.0,0.0,0.0,0.0,0.0,0.0,0.0,0.0,0.0,0.0,0.0,0.0,0.0,0.0,0.0,0.0,0.0,0.0,0.0,0.0,0.0,0.0,0.0,0.0,0.0,0.0,0.0,0.0,0.0,0.0,0.0,0.0,0.0,0.0,0.0,0.0,0.0,0.0,0.0,0.0,0.0,0.0,0.0,0.0,0.0,0.0,0.0,0.0,0.0,0.0,0.0,0.0,0.0,0.0,0.0,0.0,0.0,0.0,0.0,0.0,0.0,0.0,0.0,0.0,0.0,0.0,0.0,0.0,0.0,0.0,0.0,0.0,0.0,0.0,0.0,0.0,0.0,0.0,0.0,0.0,0.0,0.0,0.0,0.0,0.0,0.0,0.0,0.0,0.0,0.0,0.0,0.0,0.0,0.0,0.0,0.0,0.0,0.0,0.0,0.0,0.0,0.0,0.0,0.0,0.0,0.0,0.0,0.0,0.0,0.0,0.0,0.0,0.0,0.0,0.0,0.0,0.0,0.0,0.0,0.0,0.0,0.0,0.0,0.0,0.0,0.0,0.0,0.0,0.0,0.0,0.0,0.0,0.0,0.0,0.0,0.0,0.0,0.0,0.0,0.0,0.0,0.0,0.0,0.0,0.0,0.0,0.0,0.0,0.0,0.0,0.0,0.0,0.0,0.0,0.0,0.0,0.0,0.0,0.0,0.0,0.0,0.0,0.0,0.0,0.0,0.0,0.0,0.0,0.0,0.0,0.0,0.0,0.0,0.0,0.0,0.0,0.0,0.0,0.0,0.0,0.0,0.0,0.0,0.0,0.0,0.0,0.0,0.0,0.0,0.0,0.0,0.0,0.0,0.0,0.0,0.0,0.0,0.0,0.0,0.0,0.0,0.0,0.0,0.0,0.0,0.0,0.0,0.0,0.0,0.0,0.0,0.0,0.0,0.0,0.0,0.0,0.0,0.0,0.0,0.0,0.0,0.0,0.0,0.0,0.0,0.0,0.0,0.0,0.0,0.0,0.0,0.0,0.0,0.0,0.0,0.0,0.0,0.0,0.0,0.0,0.0,0.0,0.0,0.0,0.0,0.0,0.0,0.0,0.0,0.0,0.0,0.0,0.0,0.0,0.0,0.0,0.0,0.0,0.0,0.0,0.0,0.0,0.0,0.0,0.0,0.0,0.0,0.0,0.0,0.0,0.0,0.0,0.0,0.0,0.0,0.0,0.0,0.0,0.0,0.0,0.0,0.0,0.0,0.0,0.0,0.0,0.0,0.0,0.0,0.0,0.0,0.0,0.0,0.0,0.0,0.0,0.0,0.0,0.0,0.0,0.0,0.0,0.0,0.0,0.0,0.0,0.0,0.0,0.0,0.0,0.0,0.0,0.0,0.0,0.0,0.0,0.0,0.0,0.0,0.0,0.0,0.0,0.0,0.0,0.0,0.0,0.0,0.0,0.0,0.0,0.0,0.0,0.0,0.0,0.0,0.0,0.0,0.0,0.0,0.0,0.0,0.0,0.0,0.0,0.0,0.0,0.0,0.0,0.0,0.0,0.0,0.0,0.0,0.0,0.0,0.0,0.0,0.0,0.0,0.0,0.0,0.0,0.0,0.0,0.0,0.0,0.0,0.0,0.0,0.0,0.0,0.0,0.0,0.0,0.0,0.0,0.0,0.0,0.0,0.0,0.0,0.0,0.0,0.0,0.0,0.0,0.0,0.0,0.0,0.0,0.0,0.0,0.0,0.0,0.0,0.0,0.0,0.0,0.0,0.0,0.0,0.0,0.0,0.0,0.0,0.0,0.0,0.0,0.0,0.0,0.0,0.0,0.0,0.0,0.0,0.0,0.0,0.0,0.0,0.0,0.0,0.0,0.0,0.0,0.0,0.0,0.0,0.0,0.0,0.0,0.0,0.0,0.0,0.0,0.0,0.0,0.0,0.0,0.0,0.0,0.0,0.0,0.0,0.0,0.0,0.0,0.0,0.0,0.0,0.0,0.0,0.0,0.0,0.0,0.0,0.0,0.0,0.0,0.0,0.0,0.0,0.0,0.0,0.0,0.0,0.0,0.0,0.0,0.0,0.0,0.0,0.0,0.0,0.0,0.0,0.0,0.0,0.0,0.0,0.0,0.0,0.0,0.0,0.0,0.0,0.0,0.0,0.0,0.0,0.0,0.0,0.0,0.0,0.0,0.0,0.0,0.0,0.0,0.0,0.0,0.0,0.0,0.0,0.0,0.0,0.0,0.0,0.0,0.0,0.0,0.0,0.0,0.0,0.0,0.0,0.0,0.0,0.0,0.0,0.0,0.0,0.0,0.0,0.0,0.0,0.0,0.0,0.0,4.1706,0.0,0.0,0.0,0.0,0.0,0.0,0.0,0.0,0.0,0.0,0.0,0.0,0.0,0.0,0.0,0.0,0.0,0.0,0.0,0.0,0.0,0.0,0.0,0.0,0.0,0.0,0.0,0.0,0.0,0.0,0.0,0.0,0.0,0.0,0.0,0.0,0.0,0.0,0.0,0.0,0.0,0.0,0.0,0.0,0.0,0.0,0.0,0.0,0.0,0.0,0.0,0.0,0.0,0.0,0.0,0.0,0.0,0.0,0.0,0.0,0.0,0.0,0.0,0.0,0.0,0.0,0.0,0.0,0.0,0.0,0.0,0.0,0.0,0.0,0.0,0.0,0.0,0.0,0.0,0.0,0.0,0.0,0.0,0.0,0.0,0.0,0.0,0.0,0.0,0.0,0.0,0.0,0.0,0.0,0.0,0.0,0.0,0.0,0.0,0.0,0.0,0.0,0.0,0.0,0.0,0.0,0.0,0.0,0.0,0.0,0.0,0.0,0.0,0.0,0.0,0.0,4.2133,0.0,0.0,0.0,0.0,0.0,0.0,0.0,0.0,0.0,0.0,0.0,0.0,0.0,0.0,0.0,0.0,0.0,0.0,0.0,0.0,0.0,0.0,0.0,0.0,0.0,0.0,0.0,0.0,0.0,0.0,0.0,0.0,0.0,0.0,0.0,0.0,0.0,0.0,0.0,0.0,0.0,0.0,0.0,0.0,0.0,0.0,0.0,0.0,0.0,0.0,0.0,0.0,0.0,0.0,0.0,0.0,0.0,0.0,0.0,0.0,0.0,0.0,0.0,0.0,0.0,0.0,0.0,0.0,0.0,0.0,0.0,0.0,0.0,0.0,0.0,0.0,0.0,0.0,0.0,0.0,0.0,0.0,0.0,0.0,0.0,0.0,0.0,0.0,0.0,0.0,0.0,0.0,0.0,0.0,0.0,0.0,0.0,0.0,0.0,0.0,0.0,0.0,0.0,0.0,0.0,0.0,0.0,0.0,0.0,4.4618,4.4618,4.4618,4.4618,4.4568,4.3664,4.3263,4.3237,0.0,0.0,0.0,0.0,0.0,0.0,0.0,0.0,0.0,0.0,0.0,0.0,0.0,0.0,0.0,0.0,0.0,0.0,0.0,0.0,0.0,0.0,0.0,0.0,0.0,0.0,0.0,0.0,0.0,0.0,0.0,0.0,0.0,0.0,0.0,0.0,0.0,0.0,0.0,4.1229,4.1064,4.1039,4.0996,0.0,0.0,0.0,0.0,0.0,0.0,0.0,0.0,0.0,0.0,0.0,0.0,0.0,0.0,0.0,0.0,0.0,0.0,0.0,0.0,0.0,0.0,0.0,0.0,0.0,0.0,0.0,0.0,0.0,0.0,0.0,0.0,0.0,0.0,0.0,0.0,0.0,0.0,0.0,0.0,0.0,0.0,0.0,0.0,4.1254,4.1329,0.0,0.0,0.0,0.0,0.0,0.0,0.0,0.0,0.0,0.0,0.0,0.0,0.0,0.0,4.4418,4.4468,4.4543,4.4618,4.4618,4.4618,4.4618,4.4618,4.4618,4.4618,4.4468,0.0,4.4392,4.4317,0.0,0.0,0.0,0.0,0.0,0.0,0.0,0.0,0.0,0.0,0.0,0.0,0.0,0.0,0.0,0.0,0.0,0.0,0.0,0.0,0.0,0.0,0.0,0.0,0.0,0.0,0.0,0.0,0.0,0.0,0.0,0.0,0.0,0.0,0.0,0.0,4.1171,4.1806,4.1806,4.2108,4.2258,4.2258,4.1546,4.1335,4.1329,4.1329,0.0,0.0,0.0,0.0,0.0,0.0,0.0,0.0,0.0,0.0,0.0,0.0,0.0,0.0,0.0,0.0,0.0,0.0,0.0,0.0,0.0,0.0,0.0,0.0,0.0,0.0,0.0,0.0,0.0,0.0,0.0,0.0,0.0,0.0,0.0,0.0,0.0,0.0,0.0,4.1656,4.1907,4.2233,4.2459,4.2735,0.0,0.0,0.0,0.0,0.0,0.0,0.0,0.0,0.0,4.4618,4.4618,4.4769,4.5095,4.5121,4.5271,4.5573,4.5573,4.5573,4.5573,4.5573,4.5573,4.5573,4.5573,4.5573,4.5522,4.4895,4.4618,4.4593,0.0,0.0,0.0,0.0,0.0,4.3921,0.0,0.0,0.0,0.0,0.0,0.0,0.0,0.0,0.0,0.0,0.0,0.0,0.0,0.0,0.0,3.5945,0.0,0.0,0.0,0.0,0.0,0.0,0.0,0.0,0.0,0.0,0.0,0.0,4.1693,4.2359,4.2384,4.2785,4.2986,4.2986,4.2986,4.2534,4.1756,4.1756,4.1756,0.0,0.0,0.0,0.0,0.0,0.0,0.0,0.0,0.0,0.0,0.0,0.0,0.0,0.0,0.0,0.0,0.0,0.0,0.0,0.0,0.0,0.0,0.0,0.0,0.0,0.0,0.0,0.0,0.0,0.0,0.0,0.0,0.0,0.0,0.0,0.0,0.0,0.0,4.2484,4.2735,4.3137,4.3313,4.3564,0.0,0.0,0.0,0.0,0.0,0.0,4.4844,4.4844,4.4895,4.5045,4.5045,4.5321,4.5899,4.5899,4.6175,4.6728,4.6728,4.6728,4.6728,4.6728,4.6728,4.6728,4.6728,4.6459,4.5993,4.526,4.5045,4.5045,4.4895,4.4586,4.4209,4.4209,4.3831,4.3119,0.0,0.0,0.0,0.0,0.0,0.0,0.0,0.0,0.0,0.0,0.0,0.0,0.0,0.0,3.7453,3.737,3.9153,3.9791,0.0,0.0,0.0,0.0,0.0,0.0,0.0,0.0,0.0,4.2774,4.2911,4.2936,4.2936,4.2961,4.2986,4.2986,4.2986,4.2936,4.2886,4.2886,4.2886,4.2886,0.0,0.0,0.0,0.0,0.0,0.0,0.0,0.0,0.0,0.0,0.0,0.0,0.0,0.0,0.0,0.0,0.0,0.0,0.0,0.0,0.0,0.0,0.0,0.0,0.0,0.0,0.0,0.0,0.0,0.0,0.0,0.0,0.0,0.0,0.0,0.0,0.0,0.0,0.0,4.3765,4.4217,0.0,0.0,0.0,0.0,4.4618,4.4618,4.4869,4.5422,4.5447,4.5673,4.62,4.6225,4.6502,4.7054,4.7054,4.7305,4.7832,4.7832,4.7832,4.7832,4.7832,4.7832,4.7832,4.7832,4.6781,4.5286,4.5896,4.6225,4.6175,4.5648,4.4421,4.302,4.302,4.1893,4.0315,0.0,0.0,0.0,0.0,0.0,0.0,0.0,0.0,0.0,0.0,0.0,0.0,0.0,3.8345,3.9438,3.9438,4.0383,4.0814,4.0252,0.0,0.0,0.0,0.0,0.0,0.0,0.0,4.2986,4.2986,4.2986,4.2986,4.2986,4.2986,4.2986,4.2986,4.2986,4.2986,4.2986,4.2986,4.2986,4.2986,4.2986,4.2861,0.0,0.0,0.0,0.0,0.0,0.0,0.0,0.0,0.0,0.0,0.0,0.0,0.0,0.0,0.0,0.0,0.0,0.0,0.0,0.0,0.0,0.0,0.0,0.0,0.0,0.0,0.0,0.0,0.0,0.0,0.0,0.0,0.0,0.0,0.0,0.0,0.0,4.1135,4.1178,0.0,0.0,4.3529,4.4059,4.5554,4.4691,4.4792,4.6381,4.5527,4.513,4.5513,4.6687,4.6263,4.4067,4.527,4.6027,4.6197,4.6197,4.6728,4.7908,4.7908,4.7908,4.7908,4.7908,4.7508,4.6956,4.7233,4.589,4.3788,4.3601,4.3147,4.2609,4.2609,4.2221,4.1461,0.0,0.0,0.0,0.0,0.0,0.0,0.0,0.0,0.0,0.0,0.0,3.7761,3.8485,3.9724,4.0601,4.0777,4.1304,4.1605,4.1605,0.0,0.0,0.0,0.0,0.0,0.0,4.2986,4.2986,4.2986,4.3162,4.3263,4.3263,4.3438,4.3539,4.3539,4.3539,4.3539,4.3539,4.3539,4.3313,4.2986,4.2986,4.2986,4.2986,0.0,0.0,0.0,0.0,0.0,0.0,0.0,0.0,0.0,0.0,0.0,0.0,0.0,0.0,0.0,0.0,0.0,0.0,0.0,0.0,0.0,0.0,0.0,0.0,0.0,0.0,0.0,0.0,0.0,0.0,0.0,0.0,0.0,0.0,0.0,4.1306,4.0669,4.0829,4.1522,4.3298,4.3346,4.4079,4.5798,4.4254,4.4144,4.6339,4.4777,4.4279,4.5148,4.579,4.5219,4.3659,4.421,4.472,4.4883,4.4883,4.5408,4.6601,4.6601,4.6601,4.6601,4.6601,4.6319,4.5646,4.5646,4.391,4.1323,4.339,4.3539,4.2482,4.2482,4.168,4.0486,0.0,0.0,0.0,0.0,0.0,0.0,0.0,0.0,0.0,0.0,3.8477,3.8355,4.037,4.0551,4.0777,4.1304,4.1856,4.2183,4.2183,3.9847,0.0,0.0,0.0,0.0,4.2986,4.2986,4.3011,4.3011,4.3564,4.3815,4.384,4.4367,4.4618,4.4618,4.4618,4.4618,4.4618,4.4618,4.4016,4.3037,4.3037,4.3037,4.3037,0.0,0.0,0.0,0.0,0.0,0.0,0.0,0.0,0.0,0.0,0.0,0.0,0.0,0.0,0.0,0.0,0.0,0.0,0.0,0.0,0.0,0.0,0.0,0.0,0.0,0.0,0.0,0.0,0.0,0.0,0.0,0.0,0.0,3.9645,3.9877,4.0819,4.248,4.3198,4.3695,4.4238,4.4286,4.4498,4.5124,4.3408,4.3167,4.5042,4.3299,4.319,4.5066,4.3322,4.3572,4.5691,4.4073,4.3509,4.3978,4.3978,4.4116,4.4116,4.4116,4.4116,4.4116,4.4116,4.3127,4.1326,4.1326,4.0371,3.9326,4.529,4.5453,4.2549,4.2549,4.0277,3.7344,0.0,0.0,0.0,0.0,0.0,0.0,0.0,0.0,0.0,0.0,3.9275,4.0053,4.0946,4.148,4.1756,4.1907,4.2434,4.276,4.276,0.0,0.0,0.0,0.0,0.0,4.2986,4.3363,4.3589,4.3589,4.4141,4.4392,4.4392,4.4543,4.4618,4.4618,4.4618,4.4618,4.4618,4.4618,4.4443,4.4166,4.4166,4.4166,4.4166,0.0,0.0,0.0,0.0,0.0,0.0,0.0,0.0,0.0,0.0,0.0,0.0,0.0,0.0,0.0,0.0,0.0,0.0,0.0,0.0,0.0,0.0,0.0,0.0,0.0,0.0,0.0,0.0,0.0,0.0,0.0,0.0,3.9649,4.0078,3.9517,3.8929,3.8491,3.8502,3.929,4.0926,4.1103,4.1683,4.3012,4.1568,4.1586,4.3689,4.2092,4.1559,4.2319,4.3144,4.266,4.0593,4.1418,4.1903,4.2031,4.2031,4.2709,4.4116,4.4116,4.4116,4.4116,4.4116,4.3841,4.3266,4.3266,4.301,4.243,4.1453,4.0547,3.9739,3.9739,3.9046,3.8223,0.0,0.0,0.0,0.0,0.0,0.0,0.0,0.0,0.0,0.0,4.0294,4.1078,4.163,4.1957,4.2258,4.2484,4.2785,4.2986,4.2986,0.0,0.0,0.0,0.0,4.3313,4.3313,4.3865,4.4141,4.4141,4.4719,4.4995,4.4995,4.5221,4.5321,4.5321,4.5321,4.5321,4.5321,4.5321,4.5321,4.5321,4.5321,4.5045,4.4618,4.4618,4.4618,4.4618,4.4618,4.4418,4.4141,4.4141,0.0,0.0,0.0,0.0,0.0,0.0,0.0,0.0,0.0,0.0,0.0,0.0,0.0,0.0,0.0,0.0,0.0,0.0,0.0,0.0,0.0,0.0,0.0,0.0,3.9608,3.8854,3.9996,3.8862,3.8092,3.8102,3.8004,3.856,3.9938,4.0117,4.0594,4.1863,4.0271,4.0256,4.2297,4.0808,4.0247,4.1326,4.1608,4.1063,3.9674,3.9962,4.0228,4.0228,4.0228,4.08,4.1771,4.1771,4.1771,0.0,4.1771,4.1771,4.1771,4.1771,4.1771,0.0,0.0,0.0,0.0,0.0,3.8574,3.8574,0.0,0.0,0.0,0.0,0.0,0.0,0.0,0.0,0.0,0.0,0.0,4.1414,4.2183,4.2258,4.2434,4.2936,4.2986,4.2986,0.0,0.0,0.0,4.1033,4.2806,4.384,4.389,4.4443,4.4719,4.4719,4.5296,4.5573,4.5598,4.6075,4.6301,4.6301,4.6301,4.6301,4.6301,4.6301,4.6301,4.6301,4.6301,4.5698,4.4819,4.4819,4.4819,4.4819,4.4819,4.4769,4.4719,4.4719,0.0,0.0,0.0,0.0,0.0,0.0,0.0,0.0,0.0,0.0,0.0,0.0,0.0,0.0,0.0,0.0,0.0,0.0,0.0,0.0,0.0,0.0,0.0,0.0,3.9475,3.7907,3.9516,3.8347,3.7966,3.9516,3.9654,3.982,4.0277,4.0319,4.0485,4.1022,3.955,3.9261,4.0921,0.0,0.0,0.0,0.0,3.9405,4.0921,3.9405,3.8594,3.8652,3.8652,3.8672,3.873,3.873,3.873,3.873,3.873,3.873,3.873,3.873,3.873,3.8983,4.2214,4.2452,4.0779,3.9116,3.8574,0.0,0.0,0.0,0.0,0.0,0.0,0.0,0.0,0.0,0.0,4.1335,4.0943,4.0804,4.2649,4.2811,4.2861,4.2961,4.2986,4.2986,0.0,0.0,4.305,4.3134,4.3626,4.4016,4.4443,4.502,4.5321,4.5321,4.5874,4.615,4.615,4.625,4.6301,4.6301,4.6301,4.6301,4.6301,4.6301,4.6301,4.6301,4.6301,4.6175,4.5974,4.5974,4.5974,4.5974,4.5974,4.5698,4.5321,4.5321,4.502,4.4618,4.4618,0.0,0.0,0.0,0.0,0.0,0.0,0.0,0.0,0.0,0.0,0.0,0.0,0.0,0.0,0.0,0.0,0.0,0.0,0.0,0.0,4.035,3.8928,3.7936,3.8201,3.8373,3.8328,3.826,3.8343,3.8521,3.8957,3.8997,3.9037,3.9116,3.8865,3.872,3.9136,3.8865,0.0,3.9136,3.87,3.872,3.9136,3.872,3.875,3.9082,0.0,0.0,3.9648,3.9648,3.9648,3.9648,3.9648,3.9648,3.9648,3.9648,3.9648,3.972,3.9685,3.9405,3.9136,3.872,3.8574,3.8574,0.0,0.0,0.0,0.0,0.0,0.0,0.0,0.0,0.0,0.0,4.0667,4.0307,4.0568,4.2012,4.2737,4.1899,4.2513,0.0,0.0,4.3237,4.3514,4.379,4.4342,4.4769,4.5045,4.5623,4.5899,4.5899,4.6175,4.6301,4.6301,4.6301,4.6301,4.6301,4.6301,4.6301,4.6301,4.6301,4.6301,4.6301,4.6301,4.6301,4.6301,4.6301,4.6301,4.6301,4.6301,4.6125,4.5899,4.5899,4.5698,4.5472,4.5472,4.5472,4.5472,0.0,0.0,0.0,0.0,0.0,0.0,0.0,0.0,0.0,0.0,0.0,0.0,0.0,0.0,4.3367,0.0,0.0,3.9986,3.9393,3.866,3.8242,3.8242,3.8437,3.8496,3.8281,3.8242,3.834,3.8555,3.8574,3.8574,3.8574,3.8574,3.8574,3.8574,3.8574,3.8672,3.8887,3.8887,3.9004,3.9238,3.9238,3.9336,3.9551,3.9551,3.9668,3.9902,3.9902,3.9902,3.9902,3.9902,3.9902,3.9902,3.9902,3.9902,3.9844,3.9414,3.9238,3.9238,3.9238,3.9238,3.9238,0.0,0.0,0.0,0.0,0.0,0.0,0.0,0.0,0.0,0.0,4.0105,3.9288,3.8342,4.0476,4.1558,0.0,0.0,0.0,0.0,4.3425,4.389,4.4116,4.4995,4.5547,4.5648,4.6075,4.6301,4.6301,4.6301,4.6301,4.6301,4.6301,4.6301,4.6326,4.6426,4.6476,4.6476,4.6577,4.6627,4.6627,4.6627,4.6627,4.6627,4.6627,4.6502,4.6326,4.6426,4.6476,4.6476,4.6577,4.6627,4.6627,4.6627,4.6627,4.6627,4.6627,4.6627,0.0,0.0,0.0,0.0,0.0,0.0,0.0,0.0,0.0,4.4818,4.3151,4.2772,4.221,4.0438,4.01,3.982,3.8806,3.8574,3.8574,3.8574,3.8574,3.8574,3.8574,3.8574,3.8574,3.8574,3.8574,3.8574,3.8574,3.8652,3.8691,3.8691,3.8789,3.8984,3.9316,3.9336,3.9512,3.9883,3.9902,3.9941,4.0019,4.0019,4.0059,4.0137,4.0137,4.0137,4.0137,4.0137,4.0137,4.0137,4.0137,4.0137,4.0137,4.0137,4.0137,4.0117,3.9961,3.9902,3.9902,0.0,0.0,0.0,0.0,0.0,0.0,0.0,0.0,0.0,0.0,0.0,0.0,0.0,0.0,0.0,0.0,0.0,0.0,4.1609,4.2914,4.4242,4.5246,4.5422,4.5723,4.62,4.6276,4.6301,4.6301,4.6301,4.6301,4.6301,4.6301,4.6301,4.6326,4.6828,4.7054,4.7079,4.7531,4.7732,4.7732,4.7732,4.7732,4.7732,4.7732,4.7129,4.6376,4.6853,4.7054,4.7104,4.7581,4.7732,4.7732,4.7732,4.7732,4.7732,4.7732,0.0,4.7732,0.0,0.0,0.0,4.5942,4.5557,4.5548,0.0,0.0,4.5583,4.412,4.3937,4.2857,3.947,3.8787,3.8806,3.8555,3.8574,3.8574,3.8574,3.8574,3.8574,3.8574,3.8574,3.8574,3.8574,3.8574,3.8574,3.8574,3.8926,3.9141,3.9141,3.9531,3.9766,3.9824,3.9824,3.9844,3.9902,3.9902,4.0078,4.0449,4.0449,4.0664,4.1035,4.1035,4.1035,4.1035,4.1035,4.1035,4.1035,4.1035,4.1035,4.1035,4.1035,4.1035,4.0937,4.0176,3.9902,3.9902,0.0,0.0,0.0,0.0,0.0,0.0,0.0,0.0,0.0,0.0,0.0,0.0,0.0,0.0,0.0,0.0,0.0,0.0,4.1447,4.3234,4.4644,4.5447,4.5799,4.6075,4.6301,4.6301,4.6301,4.6301,4.6301,4.6301,4.6326,4.6652,4.6803,4.6803,4.7355,4.7581,4.7606,4.7807,4.7908,4.7908,4.7908,4.7908,4.7908,4.7908,4.7631,4.728,4.7506,4.7581,0.0,4.7832,4.7908,4.7908,4.7908,4.7908,4.7908,4.7908,4.7908,0.0,4.8309,0.0,0.0,0.0,4.7813,4.7215,4.5378,4.4887,4.412,4.1446,4.0942,4.0371,3.8846,3.8574,3.8574,0.0,3.8574,3.8574,3.8574,3.8574,3.8672,3.8906,3.8945,3.8848,3.8594,3.8789,3.8945,3.8945,3.9355,3.9609,3.9609,3.9785,4.0019,4.0254,4.0254,4.0391,4.0644,4.0879,4.1094,4.1269,4.1523,4.1719,4.1894,4.1894,4.1894,4.1894,4.1894,4.1894,4.1894,4.1894,4.1894,4.1894,4.1894,4.1894,4.1797,4.0957,4.0644,4.0644,0.0,0.0,0.0,0.0,0.0,0.0,0.0,0.0,0.0,0.0,0.0,0.0,0.0,0.0,0.0,0.0,0.0,0.0,0.0,4.302,4.46,4.5698,4.61,4.6301,4.6301,4.6301,4.6301,4.6301,4.6301,4.6301,4.6326,4.6878,4.7129,4.7154,4.7832,4.8159,4.8159,4.8309,4.8385,4.8385,4.8385,4.8385,4.8385,4.8385,4.8385,4.836,4.8209,4.8159,4.8033,4.778,4.7956,4.8234,4.783,4.7552,4.7552,4.7552,4.7552,4.7778,4.8735,0.0,0.0,4.8893,4.8893,4.8084,4.5457,4.4778,4.4094,4.1467,4.0514,3.9962,3.9405,3.8991,0.0,3.8574,3.8574,3.8613,3.873,3.875,3.8906,3.9336,3.9394,3.9277,3.8965,3.9219,3.9394,3.9394,3.9805,4.0078,4.0078,4.0293,4.0566,4.0859,4.0996,4.1211,4.1523,4.1816,4.1973,4.1973,4.2285,4.2422,4.2422,4.2422,4.2422,4.2422,4.2422,4.2422,4.2422,4.2422,4.2422,4.2422,4.2422,4.2422,4.2344,4.1738,4.1523,4.1523,0.0,0.0,0.0,0.0,0.0,0.0,0.0,0.0,0.0,0.0,0.0,0.0,0.0,0.0,0.0,0.0,0.0,0.0,0.0,4.204,4.3917,4.613,4.6301,4.6301,4.6301,4.6301,4.6301,4.6301,4.6301,4.6301,4.6326,4.6878,4.7129,4.7179,4.8259,4.8736,4.8786,4.9314,4.954,4.954,4.954,4.954,4.954,4.954,4.954,4.9464,4.8937,4.8736,4.8557,4.7268,4.8011,4.9257,4.7437,4.6884,0.0,4.6884,4.6884,0.0,0.0,0.0,4.9177,4.7353,4.6931,4.6798,4.6798,4.6665,4.6665,4.6532,4.5186,4.3426,4.1608,3.9818,3.8574,3.8574,3.8574,3.8711,3.9121,3.918,3.9355,3.9824,3.9883,3.9863,0.0,3.9863,3.9883,3.9883,4.0273,4.0508,4.0508,4.1289,4.1758,4.1758,4.2148,4.2383,4.2383,4.2402,4.2402,4.2402,4.2422,4.2422,4.2422,4.2422,4.2422,4.2422,4.2422,4.2422,4.2422,4.2422,4.2422,4.2422,4.2422,4.2422,4.2422,4.2402,4.2383,4.2383,0.0,0.0,0.0,0.0,0.0,0.0,0.0,0.0,0.0,0.0,0.0,0.0,0.0,0.0,0.0,0.0,0.0,0.0,0.0,4.1319,4.3429,4.4473,4.5671,4.6301,4.6301,4.6301,4.6301,4.6301,4.6301,4.6301,4.6326,4.723,4.7657,4.7682,4.8812,4.9314,4.9339,4.9515,4.959,4.959,4.959,4.959,4.959,4.959,4.8893,4.7749,0.0,4.8207,4.9057,4.7437,0.0,0.0,4.5592,0.0,0.0,4.6398,0.0,0.0,0.0,0.0,4.9461,4.8763,4.8608,4.8347,4.7088,4.6798,4.6398,4.5321,4.3542,4.2452,4.2988,4.0657,3.909,4.0636,3.9845,3.9141,3.9609,3.9668,3.9824,4.0254,4.0312,0.0,0.0,0.0,0.0,4.0312,4.0976,4.1367,4.1367,4.1914,4.2207,4.2207,4.2344,4.2422,4.2422,4.2715,4.2851,4.2871,4.3144,4.3281,4.3281,4.3281,4.3281,4.3281,4.3281,4.3281,4.3281,4.3281,4.3281,4.3281,4.3281,4.3281,4.3281,4.3281,4.3281,4.3183,0.0,0.0,0.0,0.0,0.0,0.0,0.0,0.0,0.0,0.0,0.0,0.0,0.0,0.0,0.0,0.0,0.0,0.0,0.0,0.0,4.2108,4.3583,4.4251,4.4767,4.5403,4.4767,4.4865,4.5699,4.5502,4.577,4.6627,4.7506,4.7908,4.7958,4.9088,4.959,4.959,4.959,4.959,4.959,4.959,4.959,4.959,4.959,4.8477,0.0,4.6798,4.7088,4.7401,0.0,0.0,0.0,0.0,0.0,0.0,0.0,0.0,0.0,0.0,4.959,4.959,4.959,4.959,4.9307,4.806,4.7773,4.7509,4.6288,4.4641,4.3725,4.5165,4.2287,4.0616,4.2906,4.1147,3.9889,4.1053,4.0551,4.0332,4.0918,4.0976,0.0,0.0,0.0,0.0,4.0996,4.1621,4.2031,4.2031,4.2422,4.2656,4.2656,4.2812,4.2891,4.2891,4.3164,4.3301,4.3301,4.375,4.3945,4.3965,4.4101,4.418,4.418,4.418,4.418,4.418,4.418,4.418,4.418,4.418,4.418,4.418,4.418,4.418,4.4062,0.0,0.0,0.0,0.0,0.0,0.0,0.0,0.0,0.0,0.0,0.0,0.0,0.0,0.0,0.0,0.0,0.0,0.0,0.0,0.0,0.0,4.3333,4.1947,4.1947,4.3606,4.2074,4.2326,4.4365,4.4016,4.4812,4.7007,4.7682,4.7958,4.8008,4.9113,4.959,4.959,4.959,4.959,4.959,4.959,4.959,4.959,4.959,4.8347,4.6665,4.6798,4.5592,0.0,0.0,0.0,0.0,0.0,0.0,0.0,0.0,0.0,4.5209,4.8632,4.959,4.959,4.959,4.959,4.959,4.959,4.959,4.959,4.959,4.8084,4.7012,0.0,0.0,4.2906,4.5341,4.2481,4.0813,4.3127,4.1746,4.0898,0.0,0.0,0.0,0.0,0.0,0.0,4.1894,0.0,4.2461,4.2461,4.2871,4.3105,4.3105,4.3516,4.373,4.373,4.3769,4.3769,4.3769,4.4219,4.4433,4.4433,4.4844,4.5019,4.5019,4.5019,4.5019,4.5019,4.5019,4.5019,4.5019,4.5019,4.5019,4.5019,4.5019,4.5019,4.4902,0.0,0.0,0.0,0.0,0.0,0.0,0.0,0.0,0.0,0.0,0.0,0.0,0.0,0.0,0.0,0.0,0.0,0.0,0.0,0.0,0.0,0.0,0.0,0.0,0.0,0.0,0.0,0.0,4.3552,4.4673,4.5344,4.7582,4.856,4.8586,4.9289,4.959,4.959,4.959,4.959,4.959,4.959,4.959,4.959,4.959,4.7665,4.4914,4.6264,0.0,0.0,0.0,0.0,0.0,0.0,0.0,4.5569,0.0,0.0,4.8347,4.9307,4.959,4.959,4.959,4.959,4.959,4.959,4.959,4.959,4.959,4.8533,4.7868,0.0,0.0,0.0,4.5733,4.2811,0.0,4.2106,4.1778,0.0,0.0,0.0,4.2305,4.2422,4.2715,0.0,0.0,4.2851,4.291,4.291,4.332,4.3555,4.3555,4.3984,4.4219,4.4219,4.4531,4.4687,4.4687,4.4805,4.4863,4.4863,4.498,4.5019,4.5019,4.5019,4.5019,4.5019,4.5019,4.5019,4.5019,4.5019,4.5019,4.5019,4.5019,4.5019,4.5,0.0,0.0,0.0,0.0,0.0,0.0,0.0,0.0,0.0,0.0,0.0,0.0,0.0,0.0,0.0,0.0,0.0,0.0,0.0,0.0,0.0,0.0,0.0,0.0,0.0,0.0,0.0,0.0,0.0,0.0,4.404,4.5432,4.665,4.7586,4.8101,4.8893,4.959,4.959,4.959,0.0,0.0,4.8347,4.8347,4.8347,4.6556,4.4368,0.0,0.0,0.0,0.0,0.0,4.2988,4.5615,4.6154,4.5862,4.7509,0.0,4.8608,4.9332,4.959,4.959,4.959,4.959,4.959,4.959,4.959,4.9332,4.8477,4.7943,0.0,0.0,0.0,0.0,0.0,0.0,0.0,4.2913,4.2566,4.2226,0.0,4.2715,0.0,4.2969,4.3203,4.3437,0.0,0.0,4.3437,4.3652,4.3887,4.4082,4.4277,4.4531,4.4668,4.4668,4.4902,4.5019,4.5019,4.5215,4.5312,4.5312,4.5508,4.5586,4.5586,0.0,4.5586,4.5586,4.5586,4.5586,4.5586,4.5586,4.5586,4.5586,4.5586,4.5586,4.5586,0.0,0.0,0.0,0.0,0.0,0.0,0.0,0.0,0.0,0.0,0.0,0.0,0.0,0.0,0.0,0.0,0.0,0.0,0.0,0.0,0.0,0.0,0.0,0.0,0.0,0.0,0.0,0.0,0.0,0.0,0.0,0.0,0.0,0.0,4.6186,4.7377,4.8918,4.9177,4.9177,4.9177,4.7773,4.7221,4.7088,0.0,4.5862,0.0,0.0,0.0,0.0,0.0,4.4505,4.5073,4.8502,4.7401,4.548,4.8632,4.8477,4.7509,4.9177,4.959,4.959,4.959,4.959,4.959,4.959,4.959,4.9177,4.7509,0.0,4.8164,4.8458,0.0,4.4928,4.858,0.0,4.2407,4.4102,4.3298,4.2676,4.3105,4.3164,4.332,4.375,4.3789,4.3984,4.4453,4.4101,4.4062,4.4453,4.4492,4.4668,4.5098,4.5117,4.5137,4.5195,4.5195,4.5195,4.5195,4.5586,4.5762,4.5781,4.6133,4.6308,4.6308,0.0,0.0,4.6308,4.6308,4.6308,4.6308,4.6308,4.6308,4.6308,4.6308,4.6308,4.6308,0.0,0.0,0.0,0.0,0.0,0.0,0.0,0.0,0.0,0.0,0.0,0.0,0.0,0.0,0.0,0.0,0.0,0.0,0.0,0.0,0.0,0.0,0.0,0.0,0.0,0.0,0.0,0.0,0.0,0.0,0.0,0.0,0.0,0.0,4.4279,4.4778,4.5209,4.6689,4.7221,4.7353,4.8608,4.9177,4.8893,4.7353,0.0,0.0,0.0,0.0,0.0,0.0,4.6264,4.6665,4.8893,4.9177,4.8763,4.9461,4.9332,4.9177,4.9461,4.959,4.959,4.959,4.959,4.959,4.959,4.959,0.0,0.0,4.9999,5.0161,4.8642,4.7293,0.0,4.5254,0.0,0.0,0.0,0.0,4.3125,0.0,0.0,0.0,0.0,0.0,0.0,0.0,0.0,0.0,4.4902,4.4922,4.5117,4.5547,4.5566,4.5723,4.6074,4.6074,4.6074,4.6074,4.6152,4.6191,4.6191,4.6269,4.6308,4.6308,0.0,0.0,4.6308,4.6308,4.6308,4.6308,4.6308,4.6308,4.6308,4.6308,4.6308,4.6308,0.0,0.0,0.0,0.0,0.0,0.0,0.0,0.0,0.0,0.0,0.0,0.0,0.0,0.0,0.0,0.0,0.0,0.0,0.0,0.0,0.0,0.0,0.0,0.0,0.0,0.0,0.0,0.0,0.0,0.0,0.0,0.0,0.0,0.0,0.0,0.0,0.0,0.0,4.5739,0.0,0.0,0.0,0.0,0.0,0.0,0.0,0.0,0.0,0.0,0.0,4.7509,4.8477,4.9307,4.959,4.959,4.959,4.959,4.959,4.959,4.959,4.959,4.959,4.959,4.959,4.959,0.0,0.0,0.0,4.8913,4.9534,4.8529,4.767,0.0,0.0,0.0,0.0,0.0,0.0,0.0,0.0,0.0,0.0,0.0,0.0,0.0,0.0,0.0,0.0,4.5371,4.5566,4.5781,4.5996,4.5996,4.6094,4.6308,4.6308,4.6308,4.6308,4.6308,4.6308,4.6308,4.6308,4.6308,4.6308,4.6308,0.0,4.6308,4.6308,4.6426,4.6621,4.6621,4.6777,4.6973,4.6973,4.6973,4.6973,0.0,0.0,0.0,0.0,0.0,0.0,0.0,0.0,0.0,0.0,0.0,0.0,0.0,0.0,0.0,0.0,0.0,0.0,0.0,0.0,0.0,0.0,0.0,0.0,0.0,0.0,0.0,0.0,0.0,0.0,0.0,0.0,0.0,0.0,0.0,0.0,0.0,0.0,0.0,0.0,0.0,0.0,0.0,0.0,0.0,0.0,0.0,0.0,0.0,0.0,4.806,4.959,4.959,4.959,4.959,4.959,4.959,4.959,4.959,4.959,4.959,4.959,4.959,4.959,4.959,4.959,0.0,0.0,4.8219,4.869,4.7978,4.767,4.7904,0.0,0.0,0.0,0.0,0.0,0.0,0.0,0.0,0.0,0.0,0.0,0.0,0.0,0.0,0.0,0.0,4.6133,4.6308,4.6308,4.6308,4.6308,4.6308,4.6308,4.6308,4.6308,4.6308,4.6308,4.6308,4.6387,4.6445,4.6445,4.6543,0.0,0.0,4.6582,4.6777,4.707,4.707,4.7285,4.7578,4.7578,4.7578,4.7578,0.0,0.0,0.0,0.0,0.0,0.0,0.0,0.0,0.0,0.0,0.0,0.0,0.0,0.0,0.0,0.0,0.0,0.0,0.0,0.0,0.0,0.0,0.0,0.0,0.0,0.0,0.0,0.0,0.0,0.0,0.0,0.0,0.0,0.0,0.0,0.0,0.0,0.0,0.0,0.0,0.0,0.0,0.0,0.0,0.0,0.0,0.0,0.0,0.0,0.0,0.0,4.959,4.959,4.959,4.959,4.959,0.0,0.0,4.959,4.959,4.959,4.959,4.959,4.959,4.959,0.0,0.0,4.9332,5.0206,4.9989,4.628,4.7955,4.865,0.0,0.0,4.5347,0.0,0.0,0.0,0.0,0.0,0.0,0.0,0.0,0.0,0.0,0.0,0.0,0.0,4.6289,4.6308,4.6308,4.6308,4.6308,4.6308,4.6308,4.6308,4.6308,4.6308,4.6308,4.6308,4.6699,4.6875,4.6894,0.0,0.0,0.0,4.7461,4.748,4.7519,4.7519,4.7539,4.7578,4.7578,4.7578,4.7578,0.0,0.0,0.0,0.0,0.0,0.0,0.0,0.0,0.0,0.0,0.0,0.0,0.0,0.0,0.0,0.0,0.0,0.0,0.0,0.0,0.0,0.0,0.0,0.0,0.0,0.0,0.0,0.0,0.0,0.0,0.0,0.0,0.0,0.0,0.0,0.0,0.0,0.0,0.0,0.0,0.0,0.0,0.0,0.0,0.0,0.0,0.0,0.0,0.0,0.0,0.0,0.0,4.959,4.959,0.0,0.0,4.959,4.959,4.959,4.959,4.959,4.959,4.959,4.959,4.959,0.0,0.0,4.959,5.0494,5.0846,4.9286,5.0433,5.1303,4.9677,4.9213,4.896,0.0,0.0,0.0,0.0,0.0,0.0,0.0,0.0,0.0,0.0,0.0,0.0,0.0,4.6308,4.6308,4.6308,4.6308,4.6426,4.668,4.668,4.6816,4.707,4.707,4.707,4.707,4.7246,4.7324,4.7324,0.0,0.0,0.0,4.7578,4.7734,4.7949,4.7949,4.8125,4.834,4.834,4.834,4.834,0.0,0.0,0.0,0.0,0.0,0.0,0.0,0.0,0.0,0.0,0.0,0.0,0.0,0.0,0.0,0.0,0.0,0.0,0.0,0.0,0.0,0.0,0.0,0.0,0.0,0.0,0.0,0.0,0.0,0.0,0.0,0.0,0.0,0.0,0.0,0.0,0.0,0.0,0.0,0.0,0.0,0.0,0.0,0.0,0.0,0.0,0.0,0.0,0.0,0.0,0.0,0.0,0.0,0.0,0.0,0.0,4.959,4.959,4.959,4.959,4.959,4.959,4.959,4.959,0.0,0.0,0.0,4.959,5.0494,5.1139,5.0553,5.1743,5.2767,5.2189,5.1728,5.136,5.136,0.0,0.0,0.0,0.0,0.0,0.0,0.0,0.0,0.0,0.0,0.0,0.0,4.6484,4.6484,4.6484,4.6621,4.6816,4.7109,4.7129,4.7285,4.7578,4.7578,4.7578,4.7578,4.7715,4.7773,4.7773,0.0,0.0,0.0,4.7949,4.8125,4.8398,4.8398,4.8594,4.8867,4.8867,4.8867,4.8867,0.0,0.0,0.0,0.0,0.0,0.0,0.0,0.0,0.0,0.0,0.0,0.0,0.0,0.0,0.0,0.0,0.0,0.0,0.0,0.0,0.0,0.0,0.0,0.0,0.0,0.0,0.0,0.0,0.0,0.0,0.0,0.0,0.0,0.0,0.0,0.0,0.0,0.0,0.0,0.0,0.0,0.0,0.0,0.0,0.0,0.0,0.0,0.0,0.0,0.0,0.0,0.0,0.0,0.0,0.0,0.0,4.959,4.959,4.959,4.959,4.959,4.959,4.959,4.959,0.0,0.0,0.0,4.959,5.0494,5.0687,4.8666,5.0847,5.2327,5.041,5.0841,5.136,5.136,0.0,0.0,0.0,0.0,0.0,0.0,0.0,0.0,0.0,0.0,0.0,0.0,0.0,4.6914,4.6914,4.7344,4.7578,4.7578,4.7578,4.7578,4.7578,4.7578,4.7578,4.7598,4.8008,4.8203,0.0,0.0,0.0,0.0,4.8848,4.8848,4.8848,4.8848,4.8848,4.8867,4.8867,4.8867,4.8867,0.0,0.0,0.0,0.0,0.0,0.0,0.0,0.0,0.0,0.0,0.0,0.0,0.0,0.0,0.0,0.0,0.0,0.0,0.0,0.0,0.0,0.0,0.0,0.0,0.0,0.0,0.0,0.0,0.0,0.0,0.0,0.0,0.0,0.0,0.0,0.0,0.0,0.0,0.0,0.0,0.0,0.0,0.0,0.0,0.0,0.0,0.0,0.0,0.0,0.0,0.0,0.0,0.0,0.0,0.0,0.0,0.0,0.0,4.959,4.959,4.959,4.959,4.959,4.959,4.959,0.0,0.0,4.959,5.0167,5.0663,5.0344,5.1444,5.2204,5.1976,5.294,5.3632,5.3632,0.0,0.0,0.0,0.0,0.0,0.0,0.0,0.0,0.0,0.0,0.0,0.0,0.0,4.7676,4.7383,4.75,4.7715,4.8008,4.8008,4.8164,4.8457,4.8457,4.8457,4.8457,4.8594,0.0,0.0,0.0,0.0,0.0,4.8867,4.8867,4.8867,4.8867,4.8867,4.8867,4.8867,4.8867,4.8867,0.0,0.0,0.0,0.0,0.0,0.0,0.0,0.0,0.0,0.0,0.0,0.0,0.0,0.0,0.0,0.0,0.0,0.0,0.0,0.0,0.0,0.0,0.0,0.0,0.0,0.0,0.0,0.0,0.0,0.0,0.0,0.0,0.0,0.0,0.0,0.0,0.0,0.0,0.0,0.0,0.0,0.0,0.0,0.0,0.0,0.0,0.0,0.0,0.0,0.0,0.0,0.0,0.0,0.0,0.0,0.0,0.0,0.0,0.0,4.959,4.959,4.959,4.959,0.0,0.0,0.0,0.0,4.959,5.0218,5.0845,5.1222,5.19,5.2528,5.2879,5.3858,5.4252,5.3488,0.0,0.0,0.0,0.0,0.0,0.0,0.0,0.0,0.0,0.0,0.0,0.0,0.0,4.8164,4.8066,4.8066,4.8183,4.8457,4.8457,4.8594,4.8867,4.8867,4.8867,4.8867,4.8867,0.0,0.0,0.0,0.0,0.0,4.8867,4.8867,4.8867,4.8867,4.8867,4.8867,4.8867,4.8867,4.8867,0.0,0.0,0.0,0.0,0.0,0.0,0.0,0.0,0.0,0.0,0.0,0.0,0.0,0.0,0.0,0.0,0.0,0.0,0.0,0.0,0.0,0.0,0.0,0.0,0.0,0.0,0.0,0.0,4.2287,4.253,4.4493,0.0,0.0,0.0,0.0,0.0,0.0,0.0,0.0,0.0,0.0,0.0,0.0,0.0,0.0,0.0,0.0,0.0,0.0,0.0,0.0,0.0,0.0,0.0,0.0,0.0,0.0,0.0,0.0,0.0,0.0,0.0,0.0,0.0,0.0,0.0,0.0,0.0,0.0,5.1222,5.1272,5.2151,5.2904,5.298,5.3884,5.3967,0.0,0.0,0.0,0.0,0.0,0.0,0.0,0.0,0.0,0.0,0.0,0.0,0.0,0.0,0.0,4.8848,4.8867,4.8867,4.8867,4.8867,4.8867,4.8867,4.8867,4.8867,4.8867,4.8867,0.0,0.0,0.0,0.0,0.0,4.8867,4.8867,4.8867,4.8867,4.8867,4.8867,4.8867,4.8867,4.8867,0.0,0.0,0.0,0.0,0.0,0.0,0.0,0.0,0.0,0.0,0.0,0.0,0.0,0.0,0.0,0.0,0.0,0.0,0.0,0.0,0.0,0.0,0.0,0.0,0.0,0.0,0.0,4.3162,4.28,4.2874,4.3388,4.3422,0.0,0.0,0.0,0.0,0.0,0.0,0.0,0.0,0.0,0.0,0.0,0.0,0.0,0.0,0.0,0.0,0.0,0.0,0.0,0.0,0.0,0.0,0.0,0.0,0.0,0.0,0.0,0.0,0.0,0.0,0.0,0.0,0.0,0.0,0.0,0.0,0.0,0.0,0.0,5.185,5.2578,5.3381,5.411,5.457,5.4514,0.0,0.0,0.0,0.0,0.0,0.0,0.0,0.0,0.0,0.0,0.0,0.0,0.0,0.0,4.8848,4.8867,4.8867,4.8867,4.8867,4.8867,4.8867,4.8867,4.8867,4.8867,4.8867,0.0,0.0,0.0,0.0,4.8867,4.8867,4.8867,4.8867,4.8867,4.8867,4.8867,4.8867,4.8867,4.8867,0.0,0.0,0.0,0.0,0.0,0.0,0.0,0.0,0.0,0.0,0.0,0.0,0.0,0.0,0.0,0.0,0.0,0.0,0.0,0.0,0.0,0.0,0.0,0.0,0.0,0.0,0.0,0.0,0.0,4.2986,0.0,0.0,0.0,0.0,0.0,0.0,0.0,0.0,0.0,0.0,0.0,0.0,0.0,0.0,0.0,0.0,0.0,0.0,0.0,4.7832,4.836,4.8812,0.0,0.0,0.0,0.0,4.959,0.0,0.0,0.0,0.0,0.0,0.0,0.0,0.0,0.0,0.0,0.0,0.0,0.0,0.0,0.0,0.0,5.3557,5.4185,0.0,0.0,0.0,0.0,0.0,0.0,0.0,0.0,0.0,0.0,0.0,0.0,0.0,0.0,0.0,0.0,0.0,4.8867,4.8867,4.8867,4.8867,4.8867,4.8867,4.8867,4.8867,4.8867,4.8867,0.0,0.0,0.0,0.0,4.8867,4.8867,4.8867,4.8867,4.8867,4.8867,4.8867,4.8867,4.8867,4.8867,0.0,0.0,0.0,0.0,0.0,0.0,0.0,0.0,0.0,0.0,0.0,0.0,0.0,0.0,0.0,0.0,0.0,0.0,0.0,0.0,0.0,0.0,0.0,0.0,0.0,0.0,0.0,0.0,0.0,0.0,0.0,0.0,0.0,0.0,0.0,0.0,0.0,0.0,0.0,0.0,0.0,0.0,0.0,0.0,0.0,0.0,0.0,0.0,0.0,4.7104,4.7807,4.8661,4.8736,0.0,0.0,0.0,0.0,0.0,0.0,0.0,0.0,0.0,0.0,0.0,0.0,0.0,0.0,0.0,0.0,0.0,0.0,0.0,0.0,0.0,0.0,0.0,0.0,0.0,0.0,0.0,0.0,0.0,0.0,0.0,0.0,0.0,0.0,0.0,0.0,0.0,0.0,0.0,4.8867,4.8867,4.8867,4.8867,4.8867,4.8867,4.8867,4.8867,4.8867,4.8867,4.8867,0.0,0.0,0.0,4.8867,4.8867,4.8867,4.8867,4.8867,4.8867,4.8867,4.8867,4.8867,4.8867,0.0,0.0,0.0,0.0,0.0,0.0,0.0,0.0,0.0,0.0,0.0,0.0,0.0,0.0,0.0,0.0,0.0,0.0,0.0,0.0,0.0,0.0,0.0,0.0,0.0,0.0,0.0,0.0,0.0,0.0,4.2986,4.2986,4.2986,0.0,0.0,0.0,0.0,0.0,0.0,0.0,0.0,0.0,0.0,0.0,0.0,0.0,0.0,0.0,0.0,4.6979,4.7531,4.8134,4.8611,0.0,0.0,0.0,0.0,0.0,4.959,4.959,0.0,0.0,0.0,0.0,0.0,0.0,0.0,0.0,0.0,0.0,0.0,0.0,0.0,0.0,0.0,0.0,0.0,0.0,0.0,0.0,0.0,0.0,0.0,0.0,0.0,0.0,0.0,0.0,0.0,0.0,0.0,4.8867,4.8867,4.8867,4.8867,4.8867,4.8867,4.8867,4.8867,4.8867,4.8867,4.8867,4.8867,0.0,0.0,4.8867,4.8867,4.8867,4.8867,4.8867,4.8867,4.8867,4.8867,4.8867,4.8867,4.8867,0.0,0.0,0.0,0.0,0.0,0.0,0.0,0.0,0.0,0.0,0.0,0.0,0.0,0.0,0.0,0.0,0.0,0.0,0.0,0.0,0.0,0.0,0.0,0.0,0.0,0.0,0.0,0.0,0.0,4.2986,4.2986,4.2986,4.2986,4.2986,0.0,0.0,0.0,0.0,0.0,0.0,0.0,0.0,0.0,0.0,0.0,0.0,0.0,0.0,0.0,0.0,4.723,4.7958,4.8209,0.0,0.0,0.0,0.0,0.0,4.959,4.959,4.959,0.0,0.0,0.0,0.0,0.0,0.0,0.0,0.0,0.0,0.0,0.0,0.0,0.0,0.0,0.0,0.0,0.0,0.0,0.0,0.0,0.0,0.0,0.0,0.0,0.0,0.0,0.0,0.0,0.0,0.0,0.0,4.8867,4.8867,4.8867,4.8867,4.8867,4.8867,4.8867,4.8867,4.8867,4.8867,4.8867,4.8867,0.0,4.8867,4.8867,4.8867,4.8867,4.8867,4.8867,4.8867,4.8867,4.8867,4.8867,4.8867,0.0,0.0,0.0,0.0,0.0,0.0,0.0,0.0,0.0,0.0,0.0,0.0,0.0,0.0,0.0,0.0,0.0,0.0,0.0,0.0,0.0,0.0,0.0,0.0,0.0,0.0,0.0,4.2986,4.2986,4.2986,4.2986,4.2986,4.2986,0.0,0.0,0.0,0.0,0.0,0.0,0.0,0.0,0.0,0.0,0.0,0.0,0.0,0.0,0.0,0.0,0.0,0.0,0.0,0.0,0.0,0.0,4.959,4.959,4.959,4.959,4.959,4.959,0.0,0.0,4.959,4.959,0.0,0.0,0.0,0.0,0.0,0.0,0.0,0.0,0.0,0.0,0.0,0.0,0.0,0.0,0.0,0.0,0.0,0.0,0.0,0.0,0.0,0.0,0.0,0.0,0.0,0.0,0.0,4.8867,4.8867,4.8867,4.8867,4.8867,4.8867,4.8867,4.8867,4.8867,4.8867,4.8867,4.8867,4.8867,4.8867,4.8867,4.8867,4.8867,4.8867,4.8867,4.8867,4.8867,4.8867,4.8867,4.8867,0.0,0.0,0.0,0.0,0.0,0.0,0.0,0.0,0.0,0.0,0.0,0.0,0.0,0.0,0.0,0.0,0.0,0.0,0.0,0.0,0.0,0.0,0.0,0.0,0.0,4.2986,4.2986,4.2986,4.2986,4.2986,4.2986,4.2986,4.2986,4.2986,0.0,0.0,0.0,0.0,0.0,0.0,0.0,0.0,0.0,0.0,0.0,0.0,0.0,0.0,0.0,0.0,0.0,0.0,0.0,0.0,4.959,4.959,4.959,4.959,4.959,4.959,4.959,4.959,0.0,0.0,4.959,0.0,0.0,0.0,0.0,0.0,0.0,0.0,0.0,0.0,0.0,0.0,0.0,0.0,0.0,0.0,0.0,0.0,0.0,0.0,0.0,0.0,0.0,0.0,0.0,0.0,0.0,0.0,0.0,4.8867,4.8867,4.8867,4.8867,4.8867,4.8867,4.8867,4.8867,4.8867,4.8867,4.8867,4.8867,4.8867,4.8867,4.8867,4.8867,4.8867,4.8867,4.8867,4.8867,4.8867,4.8867,4.8867,0.0,0.0,0.0,0.0,0.0,0.0,0.0,0.0,0.0,0.0,0.0,0.0,0.0,0.0,0.0,0.0,0.0,0.0,0.0,0.0,0.0,0.0,0.0,4.2986,4.2986,4.2986,4.2986,4.2986,4.2986,4.2986,4.2986,4.2986,0.0,0.0,0.0,0.0,0.0,0.0,0.0,0.0,0.0,0.0,0.0,0.0,0.0,0.0,0.0,0.0,0.0,0.0,4.7029,4.7908,4.7908,4.8686,4.959,4.959,4.959,4.959,4.959,4.959,4.959,4.959,0.0,0.0,0.0,0.0,0.0,0.0,0.0,0.0,0.0,0.0,0.0,0.0,0.0,0.0,0.0,0.0,0.0,0.0,0.0,0.0,0.0,0.0,0.0,0.0,0.0,0.0,0.0,0.0,0.0,0.0,0.0,4.8867,4.8867,4.8867,4.8867,4.8867,4.8867,4.8867,4.8867,4.8867,4.8867,4.8867,4.8867,4.8867,4.8867,4.8867,4.8867,4.8867,4.8867,4.8867,4.8867,4.8867,4.8867,4.8867,0.0,0.0,0.0,0.0,0.0,0.0,0.0,0.0,0.0,0.0,0.0,0.0,0.0,0.0,0.0,0.0,0.0,0.0,0.0,0.0,0.0,0.0,0.0,4.2986,4.2986,4.2986,4.2986,4.2986,4.2986,4.2986,4.2986,0.0,0.0,0.0,0.0,0.0,0.0,0.0,0.0,0.0,0.0,0.0,0.0,0.0,0.0,0.0,0.0,0.0,0.0,0.0,4.7029,4.7908,4.7908,4.8686,4.959,4.959,4.959,4.959,4.959,4.959,4.959,4.959,0.0,0.0,0.0,0.0,0.0,0.0,0.0,0.0,0.0,0.0,0.0,0.0,0.0,0.0,0.0,0.0,0.0,0.0,0.0,0.0,0.0,0.0,0.0,0.0,0.0,0.0,0.0,0.0,0.0,0.0,0.0,0.0,4.8867,4.8867,4.8867,4.8867,4.8867,4.8867,4.8867,4.8867,4.8867,4.8867,4.8867,4.8867,4.8867,4.8867,4.8867,4.8867,4.8867,4.8867,4.8867,4.8867,4.8867,4.8867,0.0,0.0,0.0,0.0,0.0,0.0,0.0,0.0,0.0,0.0,0.0,0.0,0.0,0.0,0.0,0.0,0.0,0.0,0.0,0.0,0.0,0.0,0.0,4.2986,4.2986,4.2986,4.2986,4.2986,4.2986,4.2986,4.2986,4.2986,0.0,0.0,0.0,0.0,0.0,0.0,0.0,0.0,0.0,0.0,0.0,0.0,0.0,0.0,0.0,0.0,0.0,0.0,4.7029,4.7908,4.7908,4.8686,4.959,4.959,4.959,4.959,4.959,4.959,4.959,4.959,0.0,0.0,0.0,0.0,0.0,0.0,0.0,0.0,0.0,0.0,0.0,0.0,0.0,0.0,0.0,0.0,0.0,0.0,0.0,0.0,0.0,0.0,0.0,0.0,0.0,0.0,0.0,0.0,0.0,0.0,0.0,0.0,4.8867,4.8867,4.8867,4.8867,4.8867,4.8867,4.8867,4.8867,4.8867,4.8867,4.8867,4.8867,4.8867,4.8867,4.8867,4.8867,4.8867,4.8867,4.8867,4.8867,4.8867,4.8867,0.0,0.0,0.0,0.0,0.0,0.0,0.0,0.0,0.0,0.0,0.0,0.0,0.0,0.0,0.0,0.0,0.0,0.0,0.0,0.0,0.0,0.0,0.0,0.0,0.0,0.0,4.2986,4.2986,4.2986,4.2986,0.0,0.0,0.0,4.384,0.0,0.0,0.0,0.0,0.0,0.0,0.0,0.0,0.0,0.0,0.0,0.0,0.0,0.0,0.0,0.0,0.0,0.0,4.7908,4.8686,4.959,4.959,4.959,4.959,4.959,0.0,0.0,0.0,0.0,0.0,0.0,0.0,0.0,0.0,0.0,0.0,0.0,0.0,0.0,0.0,0.0,0.0,0.0,0.0,0.0,0.0,0.0,0.0,0.0,0.0,0.0,0.0,0.0,0.0,0.0,0.0,0.0,0.0,0.0,0.0,4.8867,4.8867,4.8867,4.8867,4.8867,4.8867,4.8867,4.8867,4.8867,4.8867,4.8867,4.8867,4.8867,4.8867,4.8867,4.8867,4.8867,4.8867,4.8867,4.8867,4.8867,4.8867,0.0,0.0,0.0,0.0,0.0,0.0,0.0,0.0,0.0,0.0,0.0,0.0,0.0,0.0,0.0,0.0,0.0,0.0,0.0,0.0,0.0,0.0,0.0,0.0,0.0,4.2986,4.2986,0.0,0.0,0.0,0.0,0.0,0.0,4.4166,0.0,4.5623,0.0,0.0,0.0,0.0,0.0,0.0,0.0,0.0,0.0,0.0,0.0,0.0,0.0,0.0,0.0,0.0,4.8259,4.8862,4.959,4.959,4.959,4.959,0.0,0.0,0.0,0.0,0.0,0.0,0.0,0.0,0.0,0.0,0.0,0.0,0.0,0.0,0.0,0.0,0.0,0.0,0.0,0.0,0.0,0.0,0.0,0.0,0.0,0.0,0.0,0.0,0.0,0.0,0.0,0.0,0.0,0.0,0.0,0.0,4.8867,4.8867,4.8867,4.8867,4.8867,4.8867,4.8867,4.8867,4.8867,4.8867,4.8867,4.8867,4.8867,4.8867,4.8867,4.8867,4.8867,4.8867,4.8867,4.8867,4.8867,4.8867,0.0,0.0,0.0,0.0,0.0,0.0,0.0,0.0,0.0,0.0,0.0,0.0,0.0,0.0,0.0,0.0,0.0,0.0,0.0,0.0,0.0,0.0,0.0,0.0,0.0,0.0,0.0,0.0,0.0,0.0,0.0,0.0,4.4166,4.4719,0.0,4.5849,0.0,0.0,0.0,0.0,0.0,0.0,0.0,0.0,0.0,0.0,0.0,0.0,0.0,0.0,0.0,0.0,4.8761,4.9163,4.959,4.959,4.959,0.0,0.0,0.0,0.0,0.0,0.0,0.0,0.0,0.0,0.0,0.0,0.0,0.0,0.0,0.0,0.0,0.0,0.0,0.0,0.0,0.0,0.0,0.0,0.0,0.0,0.0,0.0,0.0,0.0,0.0,0.0,0.0,0.0,0.0,0.0,0.0,0.0,4.8867,4.8867,4.8867,0.0,4.8867,4.8867,4.8867,4.8867,4.8867,4.8867,4.8867,4.8867,4.8867,4.8867,4.8867,4.8867,4.8867,4.8867,4.8867,4.8867,4.8867,4.8867,0.0,0.0,0.0,0.0,0.0,0.0,0.0,0.0,0.0,0.0,0.0,0.0,0.0,0.0,0.0,0.0,0.0,0.0,0.0,0.0,0.0,0.0,0.0,0.0,0.0,0.0,0.0,0.0,0.0,0.0,0.0,0.0,0.0,4.5321,0.0,4.62,0.0,0.0,0.0,0.0,0.0,0.0,0.0,0.0,0.0,0.0,0.0,0.0,0.0,0.0,0.0,0.0,4.8761,4.9163,4.959,4.959,4.959,0.0,0.0,0.0,0.0,0.0,0.0,0.0,0.0,0.0,0.0,0.0,0.0,0.0,0.0,0.0,0.0,0.0,0.0,0.0,0.0,0.0,0.0,0.0,0.0,0.0,0.0,0.0,0.0,0.0,0.0,0.0,0.0,0.0,0.0,0.0,0.0,4.8867,4.8867,4.8867,4.8867,0.0,4.8867,4.8867,4.8867,4.8867,4.8867,4.8867,4.8867,4.8867,4.8867,4.8867,4.8867,4.8867,4.8867,4.8867,4.8867,4.8867,4.8867,4.8867,0.0,0.0,0.0,0.0,0.0,0.0,0.0,0.0,0.0,0.0,0.0,0.0,0.0,0.0,0.0,0.0,0.0,0.0,0.0,0.0,0.0,0.0,0.0,0.0,0.0,0.0,0.0,0.0,0.0,0.0,0.0,0.0,0.0,4.5522,0.0,4.6301,0.0,0.0,0.0,0.0,0.0,0.0,0.0,0.0,0.0,0.0,0.0,0.0,0.0,0.0,0.0,0.0,0.0,0.0,4.959,4.959,0.0,0.0,0.0,0.0,0.0,0.0,0.0,0.0,0.0,0.0,0.0,0.0,0.0,0.0,0.0,0.0,0.0,0.0,0.0,0.0,0.0,0.0,0.0,0.0,0.0,0.0,0.0,0.0,0.0,0.0,0.0,0.0,0.0,0.0,0.0,0.0,4.9564,4.8867,4.8867,4.8867,4.8867,4.8867,4.8867,4.8867,4.8867,4.8867,4.8867,4.8867,4.8867,4.8867,4.8867,4.8867,4.8867,4.8867,4.8867,4.8867,4.8867,4.8867,4.8867,4.8867,0.0,0.0,0.0,0.0,0.0,0.0,0.0,0.0,0.0,0.0,0.0,0.0,0.0,0.0,0.0,0.0,0.0,0.0,0.0,0.0,0.0,0.0,0.0,0.0,0.0,0.0,0.0,0.0,0.0,0.0,0.0,0.0,0.0,4.5648,0.0,0.0,0.0,0.0,0.0,0.0,0.0,0.0,0.0,4.7732,4.7958,0.0,0.0,0.0,0.0,4.8912,0.0,0.0,0.0,0.0,4.959,4.959,0.0,0.0,0.0,0.0,0.0,0.0,0.0,0.0,0.0,0.0,0.0,0.0,0.0,0.0,0.0,0.0,0.0,0.0,0.0,0.0,0.0,0.0,0.0,0.0,0.0,0.0,0.0,0.0,0.0,0.0,0.0,0.0,0.0,0.0,5.2207,5.1847,4.9911,4.8867,4.8867,4.8867,4.8867,4.8867,4.8867,4.8867,4.8867,4.8867,4.8867,4.8867,4.8867,4.8867,4.8867,4.8867,4.8867,4.8867,4.8867,4.8867,4.8867,4.8867,4.8867,4.8867,0.0,0.0,0.0,0.0,0.0,0.0,0.0,0.0,0.0,0.0,0.0,0.0,0.0,0.0,0.0,0.0,0.0,0.0,0.0,0.0,0.0,0.0,0.0,0.0,0.0,0.0,0.0,0.0,0.0,0.0,0.0,0.0,0.0,4.62,0.0,0.0,0.0,0.0,0.0,0.0,0.0,0.0,4.7807,4.7883,4.8209,0.0,0.0,0.0,0.0,4.949,4.954,0.0,0.0,0.0,0.0,0.0,0.0,0.0,0.0,0.0,0.0,0.0,0.0,0.0,0.0,0.0,0.0,0.0,0.0,0.0,0.0,0.0,0.0,0.0,0.0,0.0,0.0,0.0,0.0,0.0,0.0,0.0,0.0,0.0,0.0,0.0,0.0,0.0,0.0,5.2545,5.1507,4.938,4.9032,4.8867,4.8867,4.8867,4.8867,4.8867,4.8867,4.8867,4.8867,4.8867,4.8867,4.8867,4.8867,4.8867,4.8867,4.8867,4.8867,4.8867,4.8867,4.8867,4.8867,4.8867,4.8867,4.8867,0.0,0.0,0.0,0.0,0.0,0.0,0.0,0.0,0.0,0.0,0.0,0.0,0.0,0.0,0.0,0.0,0.0,0.0,0.0,0.0,0.0,0.0,0.0,0.0,0.0,0.0,0.0,0.0,0.0,0.0,0.0,4.5799,4.6075,0.0,0.0,0.0,0.0,0.0,0.0,0.0,0.0,0.0,0.0,4.8736,4.9012,4.9238,0.0,0.0,0.0,0.0,4.959,4.959,4.959,0.0,0.0,0.0,0.0,0.0,0.0,0.0,0.0,0.0,0.0,0.0,0.0,0.0,0.0,0.0,0.0,0.0,0.0,0.0,0.0,0.0,0.0,0.0,0.0,0.0,0.0,0.0,0.0,0.0,0.0,0.0,0.0,0.0,0.0,0.0,5.829,5.5682,5.3771,5.2902,5.0276,4.8867,4.8867,4.8867,4.8867,4.8867,4.8867,4.8867,4.8867,4.8867,4.8867,4.8867,4.8867,4.8867,4.8867,4.8867,4.8867,4.8867,4.8867,4.8867,4.8867,4.8867,4.8867,4.8867,0.0,0.0,0.0,0.0,0.0,0.0,0.0,0.0,0.0,0.0,0.0,0.0,0.0,0.0,0.0,0.0,0.0,0.0,0.0,0.0,0.0,0.0,0.0,0.0,0.0,0.0,0.0,0.0,0.0,0.0,4.5698,4.6125,4.6301,0.0,4.6301,0.0,0.0,0.0,0.0,0.0,0.0,0.0,0.0,0.0,0.0,4.959,4.959,0.0,0.0,0.0,0.0,4.959,4.959,4.959,0.0,0.0,0.0,0.0,0.0,0.0,0.0,0.0,0.0,0.0,0.0,0.0,0.0,0.0,0.0,0.0,0.0,0.0,0.0,0.0,0.0,0.0,0.0,0.0,0.0,0.0,0.0,0.0,0.0,0.0,0.0,0.0,0.0,0.0,6.1952,5.863,5.6204,5.5005,5.1667,4.9564,4.8867,4.8867,4.8867,4.8867,4.8867,4.8867,4.8867,4.8867,4.8867,4.8867,4.8867,4.8867,4.8867,4.8867,4.8867,4.8867,4.8867,4.8867,4.8867,4.8867,4.8867,4.8867,0.0,0.0,0.0,0.0,0.0,0.0,0.0,0.0,0.0,0.0,0.0,0.0,0.0,0.0,0.0,0.0,0.0,0.0,0.0,0.0,0.0,0.0,0.0,0.0,0.0,0.0,0.0,0.0,0.0,0.0,4.6276,4.6301,4.6301,4.6301,4.6301,4.6602,4.7104,0.0,0.0,0.0,0.0,0.0,0.0,0.0,0.0,0.0,0.0,0.0,0.0,0.0,0.0,4.959,4.959,4.959,4.959,0.0,0.0,0.0,0.0,0.0,0.0,0.0,0.0,0.0,0.0,0.0,0.0,0.0,0.0,0.0,0.0,0.0,0.0,0.0,0.0,0.0,0.0,0.0,0.0,0.0,0.0,0.0,0.0,0.0,0.0,0.0,0.0,0.0,5.9667,5.9307,5.7068,5.2724,5.2387,5.1145,4.8867,4.8867,4.8867,4.8867,4.8867,4.8867,4.8867,4.8867,4.8867,4.8867,4.8867,4.8867,4.8867,4.8867,4.8867,4.8867,4.8867,4.8867,4.8867,4.8867,4.8867,4.8867,0.0,0.0,0.0,0.0,0.0,0.0,0.0,0.0,0.0,0.0,0.0,0.0,0.0,4.2986,4.3112,4.3463,4.384,0.0,0.0,0.0,0.0,0.0,0.0,0.0,0.0,0.0,0.0,0.0,0.0,4.6125,4.6301,4.6301,4.6301,4.6301,4.6301,4.6627,4.7154,4.7481,0.0,0.0,0.0,0.0,0.0,0.0,0.0,0.0,0.0,0.0,0.0,0.0,0.0,0.0,4.959,4.959,4.959,4.959,4.959,4.959,0.0,0.0,0.0,0.0,0.0,0.0,0.0,0.0,0.0,0.0,0.0,0.0,0.0,0.0,0.0,0.0,0.0,0.0,0.0,0.0,0.0,0.0,0.0,0.0,0.0,0.0,0.0,0.0,0.0,0.0,6.1573,5.8823,5.7068,5.6873,5.2545,4.9748,4.8848,4.8867,4.8867,4.8867,4.8867,4.8867,4.8867,4.8867,4.8867,4.8867,4.8867,4.8867,4.8867,4.8867,4.8867,4.8867,4.8867,4.8867,4.8867,4.8867,4.8867,4.8867,0.0,0.0,0.0,0.0,0.0,0.0,0.0,0.0,0.0,0.0,0.0,0.0,0.0,0.0,4.3489,4.4041,4.4418,4.4719,4.4895,0.0,0.0,0.0,0.0,0.0,0.0,0.0,0.0,0.0,0.0,0.0,0.0,0.0,4.6401,4.6602,4.6602,4.6903,0.0,0.0,0.0,4.9088,0.0,0.0,4.959,0.0,0.0,0.0,0.0,0.0,0.0,0.0,0.0,0.0,4.959,4.959,4.959,4.959,4.959,4.959,4.959,0.0,0.0,0.0,0.0,0.0,0.0,0.0,0.0,0.0,0.0,0.0,0.0,0.0,0.0,0.0,0.0,0.0,0.0,0.0,0.0,0.0,0.0,0.0,0.0,0.0,0.0,0.0,0.0,0.0,6.2797,5.9883,5.8483,5.9307,5.4103,5.0782,5.0094,5.0094,4.9748,4.8867,4.8867,4.8867,4.8867,4.8867,4.8867,4.8867,4.8867,4.8867,4.8867,4.8867,4.8867,4.8867,4.8867,4.8867,4.8867,4.8867,4.8867,4.8867,0.0,0.0,0.0,0.0,0.0,0.0,0.0,0.0,0.0,4.3011,0.0,0.0,0.0,0.0,0.0,4.4593,4.4669,4.492,4.5472,4.5522,0.0,0.0,0.0,0.0,0.0,0.0,0.0,0.0,0.0,0.0,0.0,0.0,4.6627,0.0,4.7179,4.7456,4.7958,0.0,4.9088,4.959,0.0,4.959,4.959,0.0,0.0,0.0,4.959,4.959,0.0,0.0,0.0,0.0,0.0,4.959,4.959,4.959,4.959,4.959,0.0,0.0,0.0,0.0,0.0,0.0,0.0,0.0,0.0,0.0,0.0,0.0,0.0,0.0,0.0,0.0,0.0,0.0,0.0,0.0,0.0,0.0,0.0,0.0,0.0,0.0,0.0,0.0,0.0,6.222,6.2772,6.2822,6.1598,5.9138,5.6896,5.4632,5.2387,5.2387,5.1145,4.8867,4.8867,4.8867,4.8867,4.8867,4.8867,4.8867,4.8867,4.8867,4.8867,4.8867,4.8867,4.8867,4.8867,4.8867,4.8867,4.8867,4.8867,4.8867,0.0,0.0,0.0,0.0,0.0,0.0,0.0,0.0,4.3112,0.0,0.0,0.0,4.4342,4.4769,4.507,4.5246,4.5623,4.5924,4.6075,4.6075,4.615,4.6301,4.6301,0.0,0.0,0.0,0.0,0.0,0.0,0.0,0.0,0.0,0.0,0.0,4.8134,4.841,4.8535,4.8711,0.0,0.0,4.959,4.959,0.0,0.0,0.0,0.0,0.0,4.959,0.0,0.0,4.959,4.959,0.0,4.959,4.959,4.959,4.959,4.959,4.959,0.0,0.0,0.0,0.0,0.0,0.0,0.0,0.0,0.0,0.0,0.0,0.0,0.0,0.0,0.0,0.0,0.0,0.0,0.0,0.0,0.0,0.0,0.0,0.0,0.0,0.0,0.0,6.109,6.1642,6.2195,6.2621,6.0218,5.4456,5.5355,5.3948,4.9911,4.9931,4.9564,4.8867,4.8867,4.8867,4.8867,4.8867,4.8867,4.8867,4.8867,4.8867,4.8867,4.8867,4.8867,4.8867,4.8867,4.8867,4.8867,4.8867,4.8867,4.8867,0.0,0.0,0.0,0.0,0.0,0.0,0.0,0.0,4.3514,0.0,0.0,0.0,4.492,4.5497,4.5824,4.5824,4.6125,4.6301,4.6301,4.6301,4.6301,4.6301,4.6301,4.6301,0.0,0.0,0.0,0.0,0.0,0.0,0.0,0.0,0.0,0.0,0.0,0.0,0.0,0.0,0.0,0.0,4.959,0.0,0.0,4.959,4.959,0.0,0.0,0.0,4.959,4.959,4.959,0.0,0.0,0.0,4.959,4.959,4.959,4.959,4.959,4.959,4.959,0.0,0.0,0.0,0.0,5.1699,0.0,0.0,0.0,0.0,0.0,0.0,0.0,0.0,0.0,0.0,0.0,0.0,0.0,0.0,0.0,0.0,0.0,0.0,0.0,0.0,6.0638,6.1165,6.1969,6.2521,6.091,5.6896,5.7091,5.5508,5.1827,5.0782,4.9931,4.8867,4.8867,4.8867,4.8867,4.8867,4.8867,4.8867,4.8867,4.8867,4.8867,4.8867,4.8867,4.8867,4.8867,4.8867,4.8867,4.8867,4.8867,4.8867,0.0,0.0,0.0,0.0,0.0,0.0,0.0,0.0,0.0,0.0,4.4769,4.4995,4.5522,4.6024,4.6326,4.6401,4.6401,4.6426,4.6476,4.6476,4.6476,4.6476,4.6476,4.6476,4.6476,0.0,0.0,0.0,0.0,0.0,0.0,0.0,0.0,0.0,0.0,0.0,0.0,0.0,0.0,4.959,4.959,4.959,0.0,0.0,4.959,0.0,4.959,4.959,4.959,4.959,4.959,0.0,0.0,0.0,0.0,0.0,4.959,4.959,4.959,4.959,4.959,4.959,0.0,0.0,5.1147,5.1699,5.2251,0.0,0.0,0.0,0.0,0.0,0.0,0.0,0.0,0.0,0.0,0.0,0.0,0.0,0.0,0.0,0.0,0.0,5.9709,6.0186,6.0286,6.0814,6.1943,6.2471,6.2584,6.247,6.0362,5.8096,5.5856,5.3593,5.1326,4.9216,4.9032,4.8867,4.8867,4.8867,4.8867,4.8867,4.8867,4.8867,4.8867,4.8867,4.8867,4.8867,4.8867,4.8867,4.8867,4.8867,4.8867,4.8867,0.0,0.0,0.0,0.0,0.0,0.0,0.0,0.0,0.0,4.5246,4.5698,4.6024,4.6125,4.625,4.6502,4.6928,4.6979,4.7154,4.7581,4.7606,4.7606,4.7606,4.7606,4.7606,4.7606,4.7481,4.7531,0.0,0.0,0.0,0.0,0.0,0.0,4.9439,0.0,0.0,0.0,0.0,0.0,4.959,4.959,0.0,4.959,4.959,4.959,4.959,4.959,4.959,4.959,0.0,4.959,4.959,0.0,0.0,0.0,0.0,0.0,0.0,0.0,0.0,0.0,0.0,0.0,0.0,5.1147,5.1699,5.2251,0.0,0.0,0.0,0.0,0.0,0.0,0.0,0.0,0.0,0.0,0.0,0.0,0.0,0.0,0.0,0.0,0.0,5.9533,5.9659,6.006,6.0814,6.1943,6.2094,6.1506,6.0003,5.9499,5.8096,5.5856,5.3593,5.2207,5.1667,4.9728,4.8867,4.8867,4.8867,4.8867,4.8867,4.8867,4.8867,4.8867,4.8867,4.8867,4.8867,4.8867,4.8867,4.8867,4.8867,4.8867,4.8867,0.0,0.0,0.0,0.0,0.0,0.0,0.0,0.0,4.5246,4.5824,4.6376,4.6728,4.6728,4.6954,4.723,4.7506,4.7531,4.7631,4.7883,4.7908,0.0,4.7908,4.7908,4.7908,4.7908,4.7908,4.8058,4.8335,0.0,0.0,0.0,0.0,0.0,0.0,0.0,0.0,0.0,0.0,4.959,4.959,4.959,0.0,4.959,4.959,4.959,4.959,4.959,4.9766,5.0042,5.0343,5.0243,0.0,0.0,4.9816,4.959,0.0,4.959,4.959,0.0,0.0,0.0,4.9941,0.0,0.0,0.0,5.19,5.2251,0.0,0.0,0.0,0.0,0.0,0.0,0.0,0.0,0.0,0.0,0.0,0.0,0.0,0.0,0.0,0.0,0.0,5.9483,5.9483,6.001,6.0563,6.114,6.1692,6.1608,6.0661,5.9715,5.8799,5.7583,5.5333,5.3615,5.2387,5.1145,5.0094,4.8867,4.8867,4.8867,4.8867,4.8867,4.8867,4.8867,4.8867,4.8867,4.8867,4.8867,4.8867,4.8867,4.8867,4.8867,4.8867,0.0,0.0,0.0,0.0,0.0,0.0,0.0,0.0,0.0,4.6401,4.6954,4.728,4.728,4.7879,4.8306,4.8058,4.8655,4.8804,4.8234,0.0,0.0,4.8234,4.8234,4.8234,4.8234,4.8234,4.846,4.8937,0.0,0.0,0.0,4.959,0.0,0.0,0.0,0.0,0.0,0.0,0.0,4.959,0.0,4.959,4.959,4.959,4.9665,4.9766,4.9891,5.0218,5.067,5.1122,0.0,5.0569,5.0569,5.0268,0.0,0.0,0.0,0.0,0.0,0.0,0.0,0.0,0.0,5.0971,0.0,0.0,0.0,5.2829,0.0,0.0,0.0,0.0,0.0,0.0,0.0,0.0,0.0,0.0,0.0,0.0,0.0,0.0,0.0,0.0,5.9483,5.9483,5.991,6.0211,6.0311,6.119,6.1768,6.1994,6.052,5.9907,6.0003,5.7778,5.5508,5.3771,5.2902,5.1326,4.9564,4.9032,4.8867,4.8867,4.8867,4.8867,4.8867,4.8867,4.8867,4.8867,4.8867,4.8867,4.8867,4.8867,4.8867,4.8867,4.4618,4.4593,0.0,0.0,0.0,0.0,0.0,0.0,4.6426,4.6979,4.7506,4.7832,0.0,0.0,0.0,0.0,0.0,0.0,4.962,0.0,5.096,4.9517,4.9414,0.0,4.9414,4.9414,4.9439,4.9515,4.9515,4.954,4.959,4.959,0.0,0.0,4.959,0.0,0.0,0.0,4.959,0.0,4.959,4.959,0.0,4.959,4.9891,5.0393,5.0896,5.1122,5.1197,0.0,5.1247,5.1197,0.0,5.1147,0.0,0.0,0.0,0.0,0.0,0.0,0.0,0.0,5.1548,0.0,0.0,0.0,5.2854,5.2904,0.0,0.0,0.0,0.0,0.0,0.0,0.0,0.0,0.0,0.0,0.0,0.0,0.0,0.0,0.0,0.0,5.9483,5.9483,5.9558,5.9809,6.0286,6.0437,6.0964,6.1969,6.1721,6.197,6.247,6.0027,5.8799,5.8436,5.4279,5.2207,5.1847,4.9911,4.8867,4.8867,4.8867,4.8867,4.8867,4.8867,4.8867,4.8867,4.8867,4.8867,4.8867,4.8867,4.8867,4.8867,4.6539,4.5933,0.0,0.0,0.0,0.0,0.0,0.0,4.733,4.7556,4.8058,0.0,0.0,0.0,0.0,0.0,0.0,0.0,0.0,0.0,5.1268,0.0,0.0,0.0,0.0,4.959,4.959,4.959,4.959,4.959,4.959,4.959,4.959,0.0,4.959,0.0,4.959,0.0,0.0,0.0,0.0,0.0,0.0,5.0067,5.0419,5.0996,5.1548,5.1749,5.18,0.0,5.2026,0.0,0.0,0.0,0.0,0.0,0.0,0.0,0.0,0.0,0.0,0.0,0.0,0.0,0.0,0.0,5.2929,0.0,0.0,0.0,0.0,0.0,0.0,0.0,0.0,0.0,0.0,0.0,0.0,0.0,0.0,0.0,0.0,0.0,0.0,0.0,0.0,5.9583,5.9834,6.0136,6.0537,6.1014,6.1667,6.2119,6.2345,6.1614,6.0719,5.9307,5.7412,5.5682,5.4279,5.2027,5.0984,5.0803,4.9564,4.8867,4.8867,4.8867,4.8867,4.8867,4.8867,4.8867,4.8867,4.8867,4.8867,4.8867,4.8846,0.0,0.0,0.0,0.0,0.0,0.0,0.0,0.0,0.0,0.0,0.0,4.8987,5.0205,0.0,0.0,0.0,5.2917,0.0,0.0,5.1268,0.0,0.0,0.0,0.0,4.959,4.959,4.959,4.959,4.959,4.959,4.959,4.959,4.959,0.0,4.959,4.959,0.0,0.0,4.9615,4.9766,5.0243,5.087,5.087,5.1147,5.1574,5.2126,5.2327,5.2402,5.2804,5.2653,0.0,5.2327,0.0,0.0,0.0,0.0,0.0,5.1724,0.0,0.0,0.0,0.0,0.0,0.0,0.0,0.0,0.0,0.0,0.0,0.0,0.0,0.0,0.0,0.0,0.0,0.0,0.0,0.0,0.0,0.0,0.0,0.0,0.0,0.0,0.0,5.9282,5.9357,5.9483,5.9885,6.0161,6.0311,6.1266,6.1843,6.1994,6.1844,6.1242,6.0194,5.8969,5.7754,5.6723,5.4477,5.3081,5.2387,5.0621,4.9564,4.8867,4.8867,4.8867,4.8867,4.8867,4.8867,4.8867,4.8867,4.8867,4.8867,5.1374,4.8668,0.0,0.0,0.0,0.0,0.0,0.0,0.0,0.0,0.0,0.0,0.0,0.0,0.0,0.0,0.0,5.5299,5.2209,0.0,5.1268,0.0,0.0,0.0,0.0,0.0,4.959,4.959,4.959,4.959,4.959,4.959,4.959,4.959,0.0,4.959,4.959,4.959,4.959,4.964,5.0167,5.1071,5.2051,0.0,5.2076,5.2151,5.2703,0.0,0.0,5.2929,5.2929,0.0,0.0,0.0,0.0,0.0,0.0,0.0,0.0,0.0,0.0,5.2904,0.0,0.0,0.0,0.0,5.3683,0.0,0.0,0.0,0.0,0.0,5.5365,5.5415,5.5867,0.0,0.0,0.0,0.0,0.0,0.0,0.0,0.0,0.0,0.0,5.8704,5.8755,5.8956,5.9458,5.9508,5.9759,6.0311,6.0889,6.1466,6.1994,6.0262,6.0528,6.2659,5.8143,5.7091,5.9138,5.6919,5.4477,5.2387,5.2387,5.0964,4.8867,4.8867,4.8867,4.8867,4.8867,4.8867,4.8867,4.8867,4.8867,4.8867,0.0,0.0,0.0,0.0,0.0,0.0,0.0,4.9896,0.0,0.0,0.0,0.0,0.0,0.0,5.4623,0.0,0.0,5.6251,5.5182,5.5066,0.0,0.0,0.0,5.1142,0.0,0.0,4.959,4.959,4.959,4.959,4.959,4.959,4.959,4.959,0.0,4.959,0.0,0.0,0.0,0.0,0.0,5.1774,5.2101,0.0,0.0,5.2678,5.2854,5.3155,0.0,5.3432,5.3683,5.4009,5.4009,5.4009,5.4009,5.4009,5.4009,0.0,0.0,0.0,5.4009,5.4009,0.0,0.0,0.0,0.0,0.0,0.0,0.0,0.0,0.0,0.0,5.5516,5.5867,5.6093,5.6143,0.0,0.0,0.0,0.0,0.0,0.0,0.0,0.0,0.0,5.8127,5.8504,5.8805,0.0,5.9307,5.9583,5.9759,6.0311,6.0889,6.1441,6.1135,6.0874,6.0528,6.0386,6.0027,5.9307,5.846,5.6896,5.4654,5.3081,5.1145,4.8867,4.8867,4.8867,4.8867,4.8867,4.8867,4.8867,4.8867,4.8867,4.8867,4.9907,0.0,0.0,0.0,0.0,0.0,0.0,0.0,0.0,0.0,5.3429,0.0,5.4386,0.0,5.556,0.0,5.6736,5.6736,5.6736,5.6137,0.0,5.4386,5.2822,0.0,0.0,0.0,4.959,4.959,4.959,4.959,4.959,4.959,4.959,4.959,0.0,0.0,0.0,0.0,5.0092,0.0,0.0,5.2327,0.0,0.0,5.2879,5.3206,0.0,5.3557,5.4009,5.4009,5.426,5.4561,5.4561,5.4561,5.4561,5.4561,5.4561,5.4561,5.4561,5.4561,0.0,5.4561,5.4561,0.0,5.4561,0.0,0.0,0.0,0.0,0.0,0.0,0.0,5.5792,5.6143,5.6219,5.6219,0.0,5.6219,0.0,0.0,0.0,0.0,0.0,0.0,5.6972,5.7549,5.7926,5.8303,0.0,0.0,5.9307,5.9483,6.0035,6.0512,6.0864,6.0763,6.0605,6.0262,6.1144,6.1242,6.0528,6.0528,5.933,5.6919,5.4654,5.2366,5.0094,4.9216,4.8867,4.8867,4.8867,4.8867,4.8867,4.8867,4.8867,4.8867,0.0,0.0,0.0,0.0,4.846,0.0,0.0,0.0,5.2086,0.0,5.367,5.4623,5.4623,5.5907,5.6849,5.6849,5.6849,0.0,5.6849,5.5444,0.0,0.0,5.3066,5.2209,5.2086,0.0,0.0,4.959,4.959,4.959,4.959,4.959,4.959,4.959,4.9615,0.0,4.9665,5.0218,5.0469,5.0594,5.1724,5.2804,5.3708,5.3733,0.0,5.3783,5.3758,5.411,5.4612,5.4612,5.4637,5.4637,5.4637,5.4637,5.4637,5.4637,5.4637,5.4637,5.4637,5.4637,5.4637,5.4637,0.0,0.0,0.0,0.0,5.544,0.0,0.0,0.0,0.0,0.0,0.0,5.6219,5.6219,5.6219,5.6219,0.0,0.0,0.0,0.0,0.0,0.0,5.6219,5.642,5.6947,5.7022,0.0,0.0,0.0,5.8956,5.9483,6.001,6.0286,6.0311,5.917,5.9728,6.1832,6.0286,6.0528,6.2659,6.2822,6.1598,5.9138,5.6896,5.4632,5.2207,4.9911,4.9032,4.8867,4.8867,4.8867,4.8867,4.8867,4.8867,4.8867,5.0909,5.0205,4.9799,0.0,0.0,4.9773,0.0,0.0,0.0,0.0,5.6849,5.7915,5.7915,5.8276,5.8495,5.8495,5.8495,0.0,0.0,0.0,0.0,5.7915,5.6366,5.4948,5.379,5.2236,0.0,4.959,4.959,4.959,4.959,4.959,4.959,4.9615,0.0,0.0,5.0243,5.082,5.1297,5.1774,5.2854,5.3457,0.0,0.0,5.4587,5.4888,5.4486,5.4687,5.5164,5.5164,5.544,5.5792,5.5792,5.5792,5.5792,5.5792,5.5792,5.5792,5.5792,5.5792,5.5792,5.5792,5.5792,5.5792,0.0,0.0,0.0,0.0,0.0,0.0,0.0,0.0,0.0,5.6219,5.6219,5.6219,0.0,0.0,0.0,0.0,0.0,0.0,5.6219,5.6219,5.6269,5.642,5.6796,0.0,0.0,0.0,0.0,5.9483,5.9633,5.991,6.0311,6.0512,6.0203,5.9398,6.1162,6.1242,6.0194,6.1952,6.1598,5.9307,5.8606,5.6181,5.2366,5.1667,5.0439,4.8867,4.8867,4.8867,4.8867,4.8867,4.8867,4.8867,5.1891,0.0,0.0,4.959,0.0,0.0,5.1865,0.0,0.0,5.6622,5.8136,0.0,5.9099,5.9368,5.9548,5.9548,5.9817,0.0,0.0,0.0,0.0,5.9967,5.8399,5.6847,5.5187,5.3359,0.0,4.9967,0.0,0.0,4.959,4.959,4.9715,4.9967,0.0,5.0569,0.0,5.1398,5.2101,5.2854,5.3457,0.0,0.0,5.4787,5.5265,5.5717,5.539,5.5491,5.5742,5.5742,5.5968,5.6219,5.6219,5.6219,5.6219,5.6219,5.6394,5.657,5.657,5.6746,5.6947,5.6947,5.6947,5.6947,5.6947,5.6947,5.6947,0.0,0.0,0.0,0.0,0.0,0.0,5.6219,5.6219,5.6219,0.0,0.0,0.0,0.0,0.0,0.0,5.6219,5.6219,5.6219,5.6219,0.0,0.0,0.0,0.0,0.0,5.9131,5.9382,5.9633,5.996,6.0512,6.0402,5.974,6.1521,6.1376,5.9307,6.0719,6.0027,5.7778,5.6723,5.4807,5.2387,5.1326,5.0094,4.8867,4.8867,4.8867,4.8867,4.8867,4.8867,4.8867,0.0,0.0,0.0,0.0,0.0,0.0,0.0,5.4948,0.0,5.7078,0.0,5.9249,5.9368,5.9877,6.0206,0.0,0.0,6.1104,6.1104,6.1104,6.1104,6.1104,5.9739,5.8137,5.6209,5.4581,0.0,0.0,0.0,0.0,4.9816,4.9816,5.0067,0.0,0.0,0.0,0.0,5.2076,5.2854,0.0,5.3858,5.4511,5.539,5.5465,5.5792,5.6219,5.6219,5.6219,5.6219,5.6219,5.6269,5.6319,5.6319,5.6369,5.642,5.642,5.6771,5.7148,5.7148,5.7524,5.7901,5.7901,5.7901,5.7901,5.7901,5.7901,5.7901,5.7901,5.7499,5.7148,0.0,0.0,0.0,5.6319,0.0,0.0,0.0,0.0,0.0,0.0,0.0,0.0,0.0,5.6219,0.0,0.0,0.0,0.0,0.0,0.0,0.0,5.8704,5.9232,0.0,5.9483,0.0,6.0613,6.119,6.1743,6.1244,5.9835,5.9475,5.829,5.6226,5.3948,5.2724,5.2207,5.0276,4.9216,4.8867,4.8867,4.8867,4.8867,4.8867,4.8867,4.8867,0.0,0.0,0.0,0.0,0.0,5.4386,0.0,5.6366,5.739,5.9236,5.9797,0.0,6.0715,6.0864,6.0924,6.0924,6.1044,0.0,0.0,0.0,0.0,6.1104,6.085,5.9248,5.6332,5.7161,5.5525,0.0,0.0,0.0,5.0996,5.0996,5.1046,0.0,0.0,0.0,5.2678,5.3206,0.0,5.3783,5.4712,5.5214,5.544,5.5892,5.6118,5.6219,5.6219,5.6219,5.6219,5.6219,5.652,5.6897,5.6897,5.7223,5.76,5.76,5.7675,5.775,5.775,5.7826,5.7901,5.7901,5.7901,5.7901,5.7901,5.7901,5.7901,5.7901,5.7826,5.775,5.775,0.0,0.0,0.0,0.0,0.0,0.0,0.0,0.0,0.0,0.0,0.0,0.0,0.0,0.0,0.0,0.0,0.0,0.0,0.0,0.0,0.0,5.9207,0.0,0.0,0.0,6.0613,6.119,6.1743,6.2108,6.2117,6.0194,5.9138,5.863,5.6226,5.4125,5.2387,5.2027,5.0621,4.8867,4.8867,4.8867,4.8867,4.8867,4.8867,4.8867,0.0,0.0,0.0,0.0,0.0,0.0,0.0,5.8431,0.0,5.9976,6.0386,6.0745,6.1074,6.1433,6.1613,6.1613,6.1942,6.2121,6.2121,6.2121,6.2121,6.2121,6.2121,0.0,5.7273,5.7678,5.5905,5.1699,0.0,0.0,5.1272,5.1272,5.1448,5.1749,0.0,5.308,0.0,0.0,0.0,5.4612,5.5164,5.5566,5.5842,5.6118,5.6394,5.6646,5.6646,5.6821,5.7047,5.6746,5.7022,5.7474,5.7474,5.7675,5.7901,5.7901,5.8102,5.8328,5.8328,5.8529,5.873,5.873,5.873,5.873,5.873,5.873,5.873,5.873,5.8504,5.8227,5.7951,5.7675,0.0,0.0,0.0,0.0,0.0,0.0,0.0,0.0,0.0,0.0,0.0,0.0,0.0,0.0,0.0,0.0,0.0,0.0,0.0,0.0,0.0,0.0,0.0,0.0,0.0,6.119,6.0242,5.9588,5.9161,5.6723,5.5158,5.3926,5.2724,5.1667,5.0621,5.0621,4.9911,4.8867,4.8867,4.8867,4.8867,4.8867,4.8867,4.8867,0.0,5.1505,0.0,0.0,5.6304,0.0,0.0,6.0373,6.1134,6.0565,6.0984,6.1373,6.1523,6.2002,6.2301,6.2301,6.278,6.3079,6.3079,6.282,6.2763,6.2763,6.2529,6.0883,5.7688,5.7602,5.58,0.0,0.0,5.2,5.1624,5.1624,0.0,0.0,0.0,0.0,0.0,0.0,5.4988,5.539,5.5516,5.5817,5.6219,5.6344,5.6646,5.7047,5.7173,5.7575,5.8001,5.7549,5.77,5.8077,5.8077,5.8152,5.8227,5.8227,5.8554,5.888,5.888,5.9182,5.9483,5.9483,5.9483,5.9483,5.9483,5.9483,5.9483,5.9483,5.9156,5.8755,5.8328,5.8152,0.0,0.0,0.0,0.0,0.0,0.0,0.0,0.0,0.0,0.0,0.0,0.0,0.0,0.0,0.0,0.0,0.0,0.0,0.0,0.0,0.0,5.9483,5.9483,0.0,5.9829,0.0,5.9066,5.7405,5.57,5.3904,5.1847,4.9564,4.9032,4.8867,4.8867,4.8867,4.8867,4.8867,4.8867,4.8867,4.8867,4.8867,4.8867,4.8867,0.0,0.0,0.0,0.0,0.0,0.0,0.0,6.15,6.1972,6.1912,6.1972,6.2241,6.2839,6.2959,6.2989,6.2989,6.3049,6.3079,6.3079,6.2052,6.1466,6.1466,6.0484,5.8865,5.6531,5.7874,5.6688,0.0,0.0,5.4278,5.2779,5.2779,0.0,0.0,0.0,0.0,0.0,5.5064,5.534,5.544,5.5942,5.6168,5.6269,5.6771,5.6997,5.7097,5.7625,5.8177,5.8629,5.8579,5.8604,5.8654,5.8654,5.8956,5.9332,5.9332,5.9382,5.9433,5.9433,5.9458,5.9483,5.9483,5.9483,5.9483,5.9483,5.9483,5.9483,5.9483,5.9458,5.9408,5.9357,5.8956,5.8654,0.0,0.0,0.0,0.0,0.0,0.0,0.0,0.0,0.0,0.0,0.0,0.0,0.0,0.0,0.0,0.0,0.0,0.0,5.7901,0.0,5.9483,5.9483,5.9483,5.8797,5.7371,5.9749,5.8916,5.5184,5.5481,5.4301,5.2027,4.9748,4.8867,4.8867,4.8867,4.8867,4.8867,4.8867,4.8867,4.8867,4.8867,4.8867,4.8867,0.0,0.0,0.0,0.0,0.0,0.0,0.0,6.3079,6.3378,6.3797,6.3498,6.3348,6.3588,6.309,6.3087,6.4128,6.2302,6.1906,6.4128,6.2779,6.2406,6.344,6.2016,6.0337,5.8395,5.8025,5.6468,0.0,0.0,5.4555,5.3909,5.3909,0.0,0.0,0.0,5.5064,5.5089,5.5641,5.5892,5.5942,5.647,5.6696,5.6771,5.7323,5.775,5.8077,5.8303,5.873,5.9182,5.9182,5.9182,5.9182,5.9182,5.9332,5.9483,5.9483,5.9483,5.9483,5.9483,5.9483,5.9483,5.9483,5.9483,5.9483,5.9483,5.9483,5.9483,5.9483,5.9483,5.9483,5.9483,5.9332,5.9182,0.0,0.0,0.0,0.0,0.0,0.0,0.0,0.0,5.6696,0.0,0.0,0.0,0.0,0.0,0.0,0.0,0.0,0.0,5.7901,0.0,5.9483,5.9483,5.9483,5.8615,5.6976,5.8361,5.7004,5.3059,5.3555,5.2545,5.0276,4.94,4.8867,4.8867,4.8867,4.8867,4.8867,4.8867,4.8867,4.8867,4.8867,4.8867,4.8867,5.7668,0.0,5.9911,0.0,6.2203,6.3258,6.4156,6.4306,6.4485,6.4964,6.4248,6.3862,6.4306,6.3558,6.3579,6.4905,6.2159,6.15,6.3973,6.2177,6.1628,6.2822,6.1413,0.0,5.8483,5.7315,5.5905,5.4561,5.4561,5.4561,5.4561,5.4737,0.0,0.0,5.539,5.5641,5.5666,5.6219,5.6445,5.6495,5.7072,5.7273,5.7349,5.7926,5.8378,5.873,5.8905,5.9182,5.9483,5.9483,5.9483,5.9483,5.9483,5.9483,5.9483,5.9483,5.9483,5.9483,5.9483,5.9483,5.9483,5.9483,5.9483,5.9483,5.9483,5.9483,5.9483,5.9483,5.9483,5.9483,5.9483,5.9483,5.9483,5.9483,0.0,0.0,0.0,0.0,0.0,0.0,5.7625,5.7273,5.7273,0.0,0.0,0.0,0.0,0.0,0.0,0.0,0.0,0.0,0.0,0.0,0.0,5.9483,5.8541,5.6762,5.8103,5.6267,5.1484,5.1398,5.0439,4.8867,4.8867,4.8867,4.8867,4.8867,4.8867,4.8867,4.8867,4.8867,4.8867,4.8867,4.8867,4.8867,6.0946,6.143,6.2151,6.4487,6.4994,6.4994,6.5024,6.5024,6.5024,6.5024,6.4012,6.3756,6.4845,6.5024,6.5024,6.5024,6.3334,6.2284,6.2284,5.9557,5.7894,0.0,0.0,5.6088,5.5534,5.5365,5.5114,5.4561,0.0,5.4561,5.4587,0.0,5.539,5.539,5.5968,5.6194,5.6244,5.6796,5.7022,5.7072,5.765,5.7901,5.7951,5.8504,5.8704,5.878,5.9307,5.9483,5.9483,5.9483,5.9483,5.9483,5.9483,5.9483,5.9483,5.9483,5.9483,5.9483,5.9483,5.9483,5.9483,5.9483,5.9483,5.9483,5.9483,5.9483,5.9483,5.9483,5.9483,5.9483,5.9483,5.9483,5.9483,5.9483,0.0,0.0,0.0,0.0,0.0,5.8704,5.8227,5.7901,5.7901,0.0,0.0,0.0,0.0,0.0,0.0,0.0,0.0,5.8704,5.9232,0.0,5.9483,5.9483,5.8344,5.6263,5.9637,5.7596,5.0848,4.9511,4.8848,4.8867,4.8867,4.8867,4.8867,4.8867,4.8867,4.8867,4.8867,4.8867,4.8867,4.8867,4.8867,4.8867,6.377,6.3919,6.4128,6.4875,6.5024,6.4784,6.3918,6.4896,6.5439,6.456,6.426,6.4191,6.4522,6.236,6.1309,0.0,5.9968,5.9177,0.0,5.9749,5.9169,6.0376,5.8937,5.803,5.7848,5.6616,5.5867,5.5691,0.0,0.0,0.0,5.5867,5.5942,5.5968,5.652,5.6771,5.6821,5.7374,5.7625,5.7675,5.8227,5.8453,5.8504,5.9056,5.9257,5.9282,5.9433,5.9483,5.9483,5.9483,5.9483,5.9483,5.9483,5.9483,5.9483,5.9483,5.9483,5.9483,5.9483,5.9483,5.9483,5.9483,5.9483,5.9483,5.9483,5.9483,5.9483,5.9483,5.9483,5.9483,5.9483,5.9483,5.9483,5.9483,5.9483,0.0,0.0,0.0,5.9257,5.9257,5.878,5.8453,0.0,5.8127,0.0,0.0,0.0,0.0,0.0,0.0,0.0,0.0,5.9232,0.0,5.9483,5.9483,5.8344,5.6239,5.9637,5.8848,5.4215,5.0479,4.8867,4.8867,4.8867,4.8867,4.8867,4.8867,4.8867,4.8867,4.8867,4.8867,4.8867,4.8867,4.8867,4.8867,6.5353,6.5413,6.5473,6.5712,6.5228,6.4458,6.3775,6.4115,6.4104,6.3419,6.2689,6.2264,6.2264,5.9787,0.0,6.1354,5.8903,5.825,6.0401,5.8903,5.8366,5.9574,5.8507,5.7824,5.7824,0.0,0.0,5.6219,5.642,5.652,5.652,5.6746,5.6846,5.6872,5.7198,5.7374,5.7399,5.7976,5.8202,5.8252,5.878,5.9006,5.9056,5.9382,5.9483,5.9483,5.9483,5.9483,5.9483,5.9483,5.9633,5.9809,5.9809,5.996,6.0085,5.9859,5.9809,5.9859,6.006,6.0136,6.0136,6.0136,6.0136,6.0136,6.0136,6.0136,6.0136,6.0136,5.996,5.9809,5.9809,5.9633,5.9483,5.9483,5.9483,5.9483,5.9483,0.0,5.9483,0.0,0.0,0.0,0.0,5.8704,0.0,0.0,0.0,0.0,0.0,0.0,0.0,5.9006,5.9332,0.0,5.9483,5.9483,5.8837,5.7376,5.8282,5.7642,5.5705,5.0964,4.8867,4.8867,4.8867,4.8867,4.8867,4.8867,4.8867,4.8867,4.8867,4.8867,4.8867,4.8867,4.8867,4.8867,6.5951,6.595,0.0,0.0,6.5387,0.0,6.3952,6.2641,6.1734,6.1599,6.0096,5.9035,5.9035,5.7892,5.8259,6.1111,0.0,0.0,0.0,5.7286,5.6319,5.6319,5.6319,5.6319,5.6319,5.6319,5.6319,5.6319,5.6846,5.7097,5.7097,5.765,5.7901,5.7901,5.7951,5.7951,5.8001,5.8554,5.8755,5.878,5.9282,5.9483,5.9483,5.9483,5.9483,5.9483,5.9483,5.9508,5.9558,5.9558,5.991,6.0387,6.0387,6.0738,6.109,6.0537,6.0387,6.0512,6.104,6.119,6.119,6.119,6.119,6.119,6.119,6.119,6.119,6.119,6.0738,6.0387,6.0387,5.996,5.9583,5.9558,5.9558,5.9533,5.9508,0.0,5.9483,0.0,0.0,0.0,0.0,5.9483,5.9483,0.0,0.0,0.0,0.0,0.0,5.9006,5.9483,5.9483,5.9483,5.9483,5.9483,5.9533,5.9608,5.595,5.4722,5.5682,5.0964,4.8867,4.8867,4.8867,4.8867,4.8867,4.8867,4.8867,4.8867,4.8867,4.8867,4.8867,4.8867,4.8867,4.8867,0.0,0.0,6.4774,6.4949,6.3743,6.2422,6.1051,6.2013,6.2452,6.0962,6.0392,6.0275,6.0275,5.8738,5.7924,5.8756,5.8315,5.8192,5.8192,5.7772,5.7499,5.7499,5.7499,5.7499,5.7499,5.7499,5.7499,5.7499,5.7625,5.77,5.77,5.7826,5.7901,5.7926,5.8328,5.8529,5.8554,5.9081,5.9307,5.9307,5.9433,5.9483,5.9483,5.9483,5.9483,5.9483,5.9483,5.9759,6.0111,6.0111,6.0512,6.0989,6.0989,6.1065,6.1165,6.1014,6.0989,6.1014,6.114,6.119,6.119,6.119,6.119,6.119,6.119,6.119,6.119,6.119,6.1065,6.0989,6.0989,6.0864,6.0638,6.0211,6.0111,5.9985,5.9558,5.9483,0.0,0.0,5.9483,5.9483,5.9483,5.9483,5.9483,0.0,0.0,0.0,0.0,5.9382,5.9357,5.9483,5.9483,5.9483,5.9483,5.9483,5.9935,6.0788,5.6299,5.4744,5.5705,5.0964,4.8867,4.8867,4.8867,4.8867,4.8867,4.8867,4.8867,4.8867,4.8867,4.8867,4.8867,4.8867,4.8867,4.8867,6.7897,6.7086,6.6137,6.5275,6.3919,6.2231,6.0456,6.046,6.0553,5.9437,5.9437,5.9437,5.9437,5.8679,5.8278,5.8278,5.8052,5.7901,5.7901,5.7901,5.7901,5.7901,5.7901,5.7901,5.7901,5.7901,5.7901,5.7901,5.8152,5.8278,5.8278,5.8529,5.8629,5.8629,5.8956,5.9081,5.9081,5.9382,5.9483,5.9483,5.9483,5.9483,5.9483,5.9483,5.9659,5.9885,5.9885,6.0236,6.0713,6.0713,6.109,6.1567,6.1567,6.1743,6.1943,6.1943,6.1768,6.1617,6.1868,6.1943,6.1943,6.1943,6.1943,6.1943,6.1943,6.1943,6.1943,6.1943,6.1743,6.1567,6.1567,6.1366,6.109,6.0763,6.0713,6.0512,5.996,5.9885,0.0,5.9533,5.9483,5.9483,5.9483,5.9483,5.9483,5.9483,5.9483,0.0,5.9483,5.9483,5.9483,5.9483,5.9483,5.9483,5.9483,5.9734,6.0311,6.119,5.6647,5.4945,5.5705,5.0964,4.8867,4.8867,4.8867,4.8867,4.8867,4.8867,4.8867,4.8867,4.8867,4.8867,4.8867,4.8867,4.8867,4.8867,6.8593,6.8309,6.7577,6.5622,6.3888,6.2155,6.0539,5.9076,5.8152,5.8152,5.8152,5.8152,5.8152,5.8554,5.883,5.883,5.8403,5.8152,5.8152,5.8152,5.8152,5.8152,5.8152,5.8152,5.8152,5.8152,5.8152,5.8152,5.8604,5.883,5.8855,5.9282,5.9483,5.9483,5.9483,5.9483,5.9483,5.9483,5.9483,5.9483,5.9483,5.9483,5.9508,5.9583,5.991,6.0337,6.0412,6.0814,6.1316,6.1316,6.1667,6.2119,6.2119,6.2446,6.2822,6.2822,6.2496,6.2245,6.2697,6.2822,6.2822,6.2822,6.2822,6.2822,6.2822,6.2822,6.2822,6.2822,6.2446,6.2119,6.2119,6.1743,6.1416,6.1316,6.1316,6.1115,6.0537,0.0,6.0236,5.9684,5.9608,5.9583,5.9508,5.9483,5.9483,5.9483,5.9483,5.9483,0.0,5.9483,5.9483,5.9483,5.9483,5.9483,5.9483,6.0035,6.0613,6.119,5.695,5.5213,5.5682,5.0964,4.8867,4.8867,4.8867,4.8867,4.8867,4.8867,4.8867,4.8867,4.8867,4.8867,4.8867,4.8867,4.8867,4.8867,6.6869,6.5354,6.3695,6.1764,6.0388,5.9286,5.9009,5.9109,5.9257,5.9257,5.9257,5.9257,5.9257,5.9332,5.9382,5.9382,5.9307,5.9257,5.9257,5.9257,5.9257,5.9257,5.9257,5.9257,5.9257,5.9257,5.9257,5.9257,5.9332,5.9382,5.9382,5.9458,5.9483,5.9483,5.9483,5.9483,5.9483,5.9483,5.9483,5.9483,5.9483,5.9483,5.9533,6.001,6.0236,6.0387,6.0864,6.1416,6.1868,6.1868,6.2245,6.2697,6.2697,6.2772,6.2822,6.2822,6.2772,6.2722,6.2797,6.2822,6.2822,6.2822,6.2822,6.2822,6.2822,6.2822,6.2822,6.2822,6.2772,6.2697,6.2697,6.2621,6.2421,6.1943,6.1868,6.1692,6.114,0.0,6.0839,6.0261,6.0186,6.001,5.9533,5.9483,5.9483,5.9483,5.9483,5.9483,5.9483,5.9483,5.9483,5.9483,5.9483,5.9483,5.9483,6.0035,6.0613,6.119,5.695,5.5386,5.5705,5.0964,4.8867,4.8867,4.8867,4.8867,4.8867,4.8867,4.8867,4.8867,4.8867,4.8867,4.8867,4.8867,4.8867,4.8867,6.7487,6.6514,6.4973,6.2033,6.1119,6.0301,5.9285,5.9332,5.9483,5.9483,5.9483,5.9483,5.9483,5.9483,5.9483,5.9483,5.9483,5.9483,5.9483,5.9483,5.9483,5.9483,5.9483,5.9483,5.9483,5.9483,5.9483,5.9483,5.9483,5.9483,5.9483,5.9483,5.9483,5.9483,5.9483,5.9483,5.9483,5.9483,5.9483,5.9533,5.9809,5.9935,6.001,6.0563,6.0964,6.1266,6.1542,6.1994,6.2446,6.2446,6.2621,6.2822,6.2822,6.2822,6.2822,6.2822,6.2822,6.2822,6.2822,6.2822,6.2822,6.2822,6.2822,6.2822,6.2822,6.2822,6.2822,6.2822,6.2822,6.2822,6.2822,6.2822,6.2747,6.2496,6.2446,0.0,0.0,6.1617,6.1416,6.0839,6.0512,6.0211,5.996,5.9659,5.9483,5.9483,5.9483,5.9483,5.9483,5.9483,5.9483,5.9483,5.9483,5.9633,5.9935,6.0487,6.0378,5.974,5.6813,5.4937,5.3948,5.0439,4.8867,4.8867,4.8867,4.8867,4.8867,4.8867,4.8867,4.8867,4.8867,4.8867,4.8867,4.8867,4.8867,4.8867,6.7094,6.6817,6.5667,6.2238,6.1666,6.124,5.9792,5.9483,5.9483,5.9483,5.9483,5.9483,5.9483,5.9483,5.9483,5.9483,5.9483,5.9483,5.9483,5.9483,5.9483,5.9483,5.9483,5.9483,5.9483,5.9483,5.9483,5.9483,5.9483,5.9483,5.9483,5.9483,5.9483,5.9483,5.9483,5.9558,5.9684,5.9684,5.9759,5.9935,6.0362,6.0512,6.0588,6.1165,6.1642,6.2019,6.2144,6.2471,6.2822,6.2822,6.2822,6.2822,6.2822,6.2822,6.2822,6.2822,6.2822,6.2822,6.2822,6.2822,6.2822,6.2822,6.2822,6.2822,6.2822,6.2822,6.2822,6.2822,6.2822,6.2822,6.2822,6.2822,6.2822,6.2822,0.0,0.0,0.0,6.2195,6.1994,6.1441,6.0989,6.0663,6.0537,6.0136,5.9834,5.9684,5.9684,5.9684,5.9684,5.9684,5.9734,5.9885,5.9759,5.996,6.0512,6.109,6.0713,5.9233,5.701,5.4807,5.3081,5.0276,4.8867,4.8867,4.8867,4.8867,4.8867,4.8867,4.8867,4.8867,4.8867,4.8867,4.8867,4.8867,4.8867,4.8867,6.3245,6.2831,6.2115,6.0074,5.9637,5.9637,5.9483,5.9483,5.9483,5.9483,5.9483,5.9483,5.9483,5.9483,5.9483,5.9483,5.9483,5.9483,5.9483,5.9483,5.9483,5.9483,5.9483,5.9483,5.9483,5.9483,5.9483,5.9483,5.9483,5.9483,5.9483,5.9483,5.9483,5.9483,5.9483,5.9784,6.0261,6.0261,6.0563,6.1065,6.1115,6.1115,6.119,6.1743,6.1969,6.2069,6.2571,6.2797,6.2822,6.2822,6.2822,6.2822,6.2822,6.2822,6.2822,6.2822,6.2822,6.2822,6.2822,6.2822,6.2822,6.2822,6.2822,6.2822,6.2822,6.2822,6.2822,6.2822,6.2822,6.2822,6.2822,6.2822,6.2822,6.2822,0.0,0.0,6.2772,6.2772,6.2571,6.2019,6.1893,6.1692,6.1165,6.109,6.0839,6.0286,6.0261,6.0261,6.0261,6.0261,6.0512,6.104,6.0537,6.0537,6.1115,6.1667,6.1807,6.1671,5.7716,5.5705,5.5333,5.0964,4.8867,4.8867,4.8867,4.8867,4.8867,4.8867,4.8867,4.8867,4.8867,4.8867,4.8867,4.8867,4.8867,4.8867,6.4499,6.3245,6.1816,5.9792,5.9483,5.9483,5.9483,5.9483,5.9483,5.9483,5.9483,5.9483,5.9483,5.9483,5.9483,5.9483,5.9483,5.9483,5.9483,5.9483,5.9483,5.9483,5.9483,5.9483,5.9483,5.9483,5.9483,5.9483,5.9483,5.9483,5.9483,5.9483,5.9684,6.001,6.001,6.0311,6.0864,6.0864,6.0989,6.1215,6.1542,6.1692,6.1743,6.2295,6.2521,6.2546,6.2747,6.2822,6.2822,6.2822,6.2822,6.2822,6.2822,6.2822,6.2822,6.2822,6.2822,6.2822,6.2822,6.2822,6.2822,6.2822,6.2822,6.2822,6.2822,6.2822,6.2822,6.2822,6.2822,6.2822,6.2822,6.2822,6.2822,6.2822,0.0,6.2822,6.2822,6.2822,6.2747,6.2546,6.222,6.1918,6.1718,6.1391,6.109,6.0864,6.0864,6.0864,6.0864,6.0864,6.1115,6.1667,6.1466,6.1466,6.1692,6.1893,6.1471,6.0237,5.8705,5.655,5.3593,5.1847,5.0276,4.8867,4.8867,4.8867,4.8867,4.8867,4.8867,4.8867,4.8867,4.8867,4.8867,4.8867,4.8867,4.8867,6.4642,6.2804,6.1089,5.9792,5.9483,5.9483,5.9483,5.9483,5.9483,5.9483,5.9483,5.9483,5.9483,5.9483,5.9483,5.9483,5.9483,5.9483,5.9483,5.9659,5.9684,5.9508,5.9483,5.9483,5.9483,5.9483,5.9483,5.9483,5.9659,5.9759,5.9759,5.9935,6.0236,6.0588,6.0588,6.0914,6.1441,6.1441,6.1542,6.1743,6.2119,6.227,6.2295,6.2672,6.2822,6.2822,6.2822,6.2822,6.2822,6.2822,6.2822,6.2822,6.2822,6.2822,6.2822,6.2822,6.2822,6.2822,6.2822,6.2822,6.2822,6.2822,6.2822,6.2822,6.2822,6.2822,6.2822,6.2822,6.2822,6.2822,6.2822,6.2822,6.2822,6.2822,6.2822,6.2822,6.2822,6.2822,6.2822,6.2822,6.2496,6.227,6.227,6.1918,6.1617,6.1441,6.1441,6.1441,6.1441,6.1592,6.1868,6.2245,6.227,6.227,6.227,6.227,6.1581,6.0362,5.8969,5.655,5.3437,5.2027,5.0439,4.8867,4.8867,4.8867,4.8867,4.8867,4.8867,4.8867,4.8867,4.8867,4.8867,4.8867,4.8867,4.8867,6.2413,6.0812,5.9483,5.9483,5.9483,5.9483,5.9483,5.9483,5.9483,5.9483,5.9483,5.9483,5.9508,5.9508,5.9508,5.9508,5.9508,5.9508,5.9508,6.001,6.0085,5.9533,5.9508,5.9508,5.9508,5.9508,5.9508,5.9508,6.006,6.0337,6.0337,6.0914,6.119,6.119,6.119,6.1492,6.2019,6.2019,6.232,6.2822,6.2822,6.2822,6.2822,6.2822,6.2822,6.2822,6.2822,6.2822,6.2822,6.2822,6.2822,6.2822,6.2822,6.2822,6.2822,6.2822,6.2822,6.2822,6.2822,6.2822,6.2822,6.2822,6.2822,6.2822,6.2822,6.2822,6.2822,6.2822,6.2822,6.2822,6.2822,6.2822,6.2822,6.2822,6.2822,6.2822,6.2822,6.2822,6.2822,6.2822,6.2822,6.2822,6.2822,6.2822,6.2596,6.2044,6.2019,6.2019,6.2019,6.2521,6.2822,6.2822,6.2822,6.2822,6.2822,6.2822,6.2822,6.2659,5.8143,5.5879,5.5705,5.0964,4.8867,4.8867,4.8867,4.8867,4.8867,4.8867,4.8867,4.8867,4.8867,4.8867,4.8867,4.8867,4.8867,4.8867,6.2413,6.0812,5.9483,5.9483,5.9483,5.9483,5.9483,5.9483,5.9483,5.9483,5.9483,5.9633,6.0035,6.006,6.0236,6.0638,6.0688,6.0688,6.0688,6.0839,6.0839,6.0688,6.0688,6.0688,6.0688,6.0688,6.0688,6.0688,6.0839,6.0914,6.0939,6.1115,6.1391,6.1768,6.1768,6.2069,6.2571,6.2571,6.2672,6.2822,6.2822,6.2822,6.2822,6.2822,6.2822,6.2822,6.2822,6.2822,6.2822,6.2822,6.2822,6.2822,6.2822,6.2822,6.2822,6.2822,6.2822,6.2822,6.2822,6.2822,6.2822,6.2822,6.2822,6.2822,6.2822,6.2822,6.2822,6.2822,6.2822,6.2822,6.2822,6.2822,6.2822,6.2822,6.2822,6.2822,6.2822,6.2822,6.2822,6.2822,6.2822,6.2822,6.2822,6.2822,6.2772,6.2596,6.2571,6.2571,6.2571,6.2747,6.2822,6.2822,6.2822,6.2822,6.2822,6.2822,6.2822,6.2822,5.9691,5.7412,5.5682,5.2724,5.0439,4.8867,4.8867,4.8867,4.8867,4.8867,4.8867,4.8867,4.8867,4.8867,4.8867,4.8867,4.8867,4.8867,6.3073,6.148,6.0161,6.0161,6.0161,6.0161,6.0161,6.0161,6.0161,6.0161,6.0161,6.0286,6.0613,6.0663,6.0788,6.114,6.119,6.119,6.119,6.1391,6.1517,6.1517,6.1718,6.1617,6.119,6.119,6.119,6.119,6.1391,6.1517,6.1517,6.1743,6.2019,6.2345,6.2345,6.2521,6.2822,6.2822,6.2822,6.2822,6.2822,6.2822,6.2822,6.2822,6.2822,6.2822,6.2822,6.2822,6.2822,6.2822,6.2822,6.2822,6.2822,6.2822,6.2822,6.2822,6.2822,6.2822,6.2822,6.2822,6.2822,6.2822,6.2822,6.2822,6.2822,6.2822,6.2822,6.2822,6.2822,6.2822,6.2822,6.2822,6.2822,6.2822,6.2822,6.2822,6.2822,6.2822,6.2822,6.2822,6.2822,6.2822,6.2822,6.2822,6.2822,6.2822,6.2822,6.2822,6.2822,6.2822,6.2822,6.2822,6.2822,6.2822,6.2822,6.2822,6.2822,6.2822,5.9499,5.724,5.5682,5.2545,5.0276,4.8867,4.8867,4.8867,4.8867,4.8867,4.8867,4.8867,4.8867,4.8867,4.8867,4.8867,4.8867,4.8867,6.3669,6.2351,6.119,6.119,6.119,6.119,6.119,6.119,6.119,6.119,6.119,6.119,6.124,6.1266,6.1266,6.1316,6.1341,6.1341,6.1341,6.1793,6.2069,6.2069,6.2546,6.2345,6.1341,6.1341,6.1341,6.1341,6.1843,6.2069,6.2094,6.2596,6.2822,6.2822,6.2822,6.2822,6.2822,6.2822,6.2822,6.2822,6.2822,6.2822,6.2822,6.2822,6.2822,6.2822,6.2822,6.2822,6.2822,6.2822,6.2822,6.2822,6.2822,6.2822,6.2822,6.2822,6.2822,6.2822,6.2822,6.2822,6.2822,6.2822,6.2822,6.2822,6.2822,6.2822,6.2822,6.2822,6.2822,6.2822,6.2822,6.2822,6.2822,6.2822,6.2822,6.2822,6.2822,6.2822,6.2822,6.2822,6.2822,6.2822,6.2822,6.2822,6.2822,6.2822,6.2822,6.2822,6.2822,6.2822,6.2822,6.2822,6.2822,6.2822,6.2822,6.2659,6.247,6.247,5.7972,5.5705,5.5333,5.0964,4.8867,4.8867,4.8867,4.8867,4.8867,4.8867,4.8867,4.8867,4.8867,4.8867,4.8867,4.8867,4.8867,4.8867,6.1774,6.1483,6.119,6.119,6.119,6.119,6.119,6.119,6.119,6.119,6.119,6.1341,6.1793,6.1818,6.1994,6.2446,6.2471,6.2471,6.2471,6.2571,6.2647,6.2647,6.2772,6.2722,6.2471,6.2471,6.2471,6.2471,6.2596,6.2647,6.2647,6.2772,6.2822,6.2822,6.2822,6.2822,6.2822,6.2822,6.2822,6.2822,6.2822,6.2822,6.2822,6.2822,6.2822,6.2822,6.2822,6.2822,6.2822,6.2822,6.2822,6.2822,6.2822,6.2822,6.2822,6.2822,6.2822,6.2822,6.2822,6.2822,6.2822,6.2822,6.2822,6.2822,6.2822,6.2822,6.2822,6.2822,6.2822,6.2822,6.2822,6.2822,6.2822,6.2822,6.2822,6.2822,6.2822,6.2822,6.2822,6.2822,6.2822,6.2822,6.2822,6.2822,6.2822,6.2822,6.2822,6.2822,6.2822,6.2822,6.2822,6.2822,6.2822,6.2822,6.2822,6.0886,6.0003,6.0003,5.724,5.4807,5.3081,5.0276,4.8867,4.8867,4.8867,4.8867,4.8867,4.8867,4.8867,4.8867,4.8867,4.8867,4.8867,4.8867,4.8867,4.8867,6.362,6.3462,6.3171,6.2104,6.1969,6.1969,6.1969,6.1969,6.1969,6.1969,6.1969,6.2069,6.237,6.2395,6.2521,6.2797,6.2822,6.2822,6.2822,6.2822,6.2822,6.2822,6.2822,6.2822,6.2822,6.2822,6.2822,6.2822,6.2822,6.2822,6.2822,6.2822,6.2822,6.2822,6.2822,6.2822,6.2822,6.2822,6.2822,6.2822,6.2822,6.2822,6.2822,6.2822,6.2822,6.2822,6.2822,6.2822,6.2822,6.2822,6.2822,6.2822,6.2822,6.2822,6.2822,6.2822,6.2822,6.2822,6.2822,6.2822,6.2822,6.2822,6.2822,6.2822,6.2822,6.2822,6.2822,6.2822,6.2822,6.2822,6.2822,6.2822,6.2822,6.2822,6.2822,6.2822,6.2822,6.2822,6.2822,6.2822,6.2822,6.2822,6.2822,6.2822,6.2822,6.2822,6.2822,6.2822,6.2822,6.2822,6.2822,6.2822,6.2822,6.2822,6.2822,6.0528,5.8799,5.7606,5.5333,5.3593,5.2387,4.9911,4.8867,4.8867,4.8867,4.8867,4.8867,4.8867,4.8867,4.8867,4.8867,4.8867,4.8867,4.8867,4.8867,4.8867,6.6156,6.5844,6.524,6.3123,6.2822,6.2822,6.2822,6.2822,6.2822,6.2822,6.2822,6.2822,6.2822,6.2822,6.2822,6.2822,6.2822,6.2822,6.2822,6.2822,6.2822,6.2822,6.2822,6.2822,6.2822,6.2822,6.2822,6.2822,6.2822,6.2822,6.2822,6.2822,6.2822,6.2822,6.2822,6.2822,6.2822,6.2822,6.2822,6.2822,6.2822,6.2822,6.2822,6.2822,6.2822,6.2822,6.2822,6.2822,6.2822,6.2822,6.2822,6.2822,6.2822,6.2822,6.2822,6.2822,6.2822,6.2822,6.2822,6.2822,6.2822,6.2822,6.2822,6.2822,6.2822,6.2822,6.2822,6.2822,6.2822,6.2822,6.2822,6.2822,6.2822,6.2822,6.2822,6.2822,6.2822,6.2822,6.2822,6.2822,6.2822,6.2822,6.2822,6.2822,6.2822,6.2822,6.2822,6.2822,6.2822,6.2822,6.2822,6.2822,6.2822,6.2659,6.2142,5.9835,5.7583,5.5355,5.2902,5.1847,5.1667,4.9748,4.8867,4.8867,4.8867,4.8867,4.8867,4.8867,4.8867,4.8867,4.8867,4.8867,4.8867,4.8867,4.8867,4.8867,6.6156,6.5844,6.524,6.3123,6.2822,6.2822,6.2822,6.2822,6.2822,6.2822,6.2822,6.2822,6.2822,6.2822,6.2822,6.2822,6.2822,6.2822,6.2822,6.2822,6.2822,6.2822,6.2822,6.2822,6.2822,6.2822,6.2822,6.2822,6.2822,6.2822,6.2822,6.2822,6.2822,6.2822,6.2822,6.2822,6.2822,6.2822,6.2822,6.2822,6.2822,6.2822,6.2822,6.2822,6.2822,6.2822,6.2822,6.2822,6.2822,6.2822,6.2822,6.2822,6.2822,6.2822,6.2822,6.2822,6.2822,6.2822,6.2822,6.2822,6.2822,6.2822,6.2822,6.2822,6.2822,6.2822,6.2822,6.2822,6.2822,6.2822,6.2822,6.2822,6.2822,6.2822,6.2822,6.2822,6.2822,6.2822,6.2822,6.2822,6.2822,6.2822,6.2822,6.2822,6.2822,6.2822,6.2822,6.2822,6.2822,6.2822,6.2822,6.2822,6.2822,6.1787,5.9835,5.7412,5.5158,5.2902,5.0439,4.938,4.938,4.9032,4.8867,4.8867,4.8867,4.8867,4.8867,4.8867,4.8867,4.8867,4.8867,4.8867,4.8867,4.8867,4.8867,4.8867,6.798,6.6623,6.524,6.3123,6.2822,6.2822,6.2822,6.2822,6.2822,6.2822,6.2822,6.2822,6.2822,6.2822,6.2822,6.2822,6.2822,6.2822,6.2822,6.2822,6.2822,6.2822,6.2822,6.2822,6.2822,6.2822,6.2822,6.2822,6.2822,6.2822,6.2822,6.2822,6.2822,6.2822,6.2822,6.2822,6.2822,6.2822,6.2822,6.2822,6.2822,6.2822,6.2822,6.2822,6.2822,6.2822,6.2822,6.2822,6.2822,6.2822,6.2822,6.2822,6.2822,6.2822,6.2822,6.2822,6.2822,6.2822,6.2822,6.2822,6.2822,6.2822,6.2822,6.2822,6.2822,6.2822,6.2822,6.2822,6.2822,6.2822,6.2822,6.2822,6.2822,6.2822,6.2822,6.2822,6.2822,6.2822,6.2822,6.2822,6.2822,6.2822,6.2822,6.2822,6.2822,6.2822,6.2822,6.2822,6.2822,6.2822,6.2822,6.2822,6.2822,6.2306,6.1242,5.7606,5.5355,5.4301,5.0621,4.8867,4.8867,4.8867,4.8867,4.8867,4.8867,4.8867,4.8867,4.8867,4.8867,4.8867,4.8867,4.8867,4.8867,4.8867,4.8867,4.8867]},{"header":{"parameterUnit":"m.s-1","parameterCategory":1,"la1":30.6,"la2":28.766,"lo1":-90.7593,"lo2":-88.6598,"dx":0.0162,"dy":0.0183,"nx":116,"ny":114,"refTime":"2023-01-22T06:00:00:Z","depth":0,"parameterNumber":3,"parameterNumberName":"V-component_of_WINDS"},"data":[0.0,0.0,0.0,0.0,0.0,0.0,0.0,0.0,0.0,0.0,0.0,0.0,0.0,0.0,0.0,0.0,0.0,0.0,0.0,0.0,0.0,0.0,0.0,0.0,0.0,0.0,0.0,0.0,0.0,0.0,0.0,0.0,0.0,0.0,0.0,0.0,0.0,0.0,0.0,0.0,0.0,0.0,0.0,0.0,0.0,0.0,0.0,0.0,0.0,0.0,0.0,0.0,0.0,0.0,0.0,0.0,0.0,0.0,0.0,0.0,0.0,0.0,0.0,0.0,0.0,0.0,0.0,0.0,0.0,0.0,0.0,0.0,0.0,0.0,0.0,0.0,0.0,0.0,0.0,0.0,0.0,0.0,0.0,0.0,0.0,0.0,0.0,0.0,0.0,0.0,0.0,0.0,0.0,0.0,0.0,0.0,0.0,0.0,0.0,0.0,0.0,0.0,0.0,0.0,0.0,0.0,0.0,0.0,0.0,0.0,0.0,0.0,0.0,0.0,0.0,0.0,0.0,0.0,0.0,0.0,0.0,0.0,0.0,0.0,0.0,0.0,0.0,0.0,0.0,0.0,0.0,0.0,0.0,0.0,0.0,0.0,0.0,0.0,0.0,0.0,0.0,0.0,0.0,0.0,0.0,0.0,0.0,0.0,0.0,0.0,0.0,0.0,0.0,0.0,0.0,0.0,0.0,0.0,0.0,0.0,0.0,0.0,0.0,0.0,0.0,0.0,0.0,0.0,0.0,0.0,0.0,0.0,0.0,0.0,0.0,0.0,0.0,0.0,0.0,0.0,0.0,0.0,0.0,0.0,0.0,0.0,0.0,0.0,0.0,0.0,0.0,0.0,0.0,0.0,0.0,0.0,0.0,0.0,0.0,0.0,0.0,0.0,0.0,0.0,0.0,0.0,0.0,0.0,0.0,0.0,0.0,0.0,0.0,0.0,0.0,0.0,0.0,0.0,0.0,0.0,0.0,0.0,0.0,0.0,0.0,0.0,0.0,0.0,0.0,0.0,0.0,0.0,0.0,0.0,0.0,0.0,0.0,0.0,0.0,0.0,0.0,0.0,0.0,0.0,0.0,0.0,0.0,0.0,0.0,0.0,0.0,0.0,0.0,0.0,0.0,0.0,0.0,0.0,0.0,0.0,0.0,0.0,0.0,0.0,0.0,0.0,0.0,0.0,0.0,0.0,0.0,0.0,0.0,0.0,0.0,0.0,0.0,0.0,0.0,0.0,0.0,0.0,0.0,0.0,0.0,0.0,0.0,0.0,0.0,0.0,0.0,0.0,0.0,0.0,0.0,0.0,0.0,0.0,0.0,0.0,0.0,0.0,0.0,0.0,0.0,0.0,0.0,0.0,0.0,0.0,0.0,0.0,0.0,0.0,0.0,0.0,0.0,0.0,0.0,0.0,0.0,0.0,0.0,0.0,0.0,0.0,0.0,0.0,0.0,0.0,0.0,0.0,0.0,0.0,0.0,0.0,0.0,0.0,0.0,0.0,0.0,0.0,0.0,0.0,0.0,0.0,0.0,0.0,0.0,0.0,0.0,0.0,0.0,0.0,0.0,0.0,0.0,0.0,0.0,0.0,0.0,0.0,0.0,0.0,0.0,0.0,0.0,0.0,0.0,0.0,0.0,0.0,0.0,0.0,0.0,0.0,0.0,0.0,0.0,0.0,0.0,0.0,0.0,0.0,0.0,0.0,0.0,0.0,0.0,0.0,0.0,0.0,0.0,0.0,0.0,0.0,0.0,0.0,0.0,0.0,0.0,0.0,0.0,0.0,0.0,0.0,0.0,0.0,0.0,0.0,0.0,0.0,0.0,0.0,0.0,0.0,0.0,0.0,0.0,0.0,0.0,0.0,0.0,0.0,0.0,0.0,0.0,0.0,0.0,0.0,0.0,0.0,0.0,0.0,0.0,0.0,0.0,0.0,0.0,0.0,0.0,0.0,0.0,0.0,0.0,0.0,0.0,0.0,0.0,0.0,0.0,0.0,0.0,0.0,0.0,0.0,0.0,0.0,0.0,0.0,0.0,0.0,0.0,0.0,0.0,0.0,0.0,0.0,0.0,0.0,0.0,0.0,0.0,0.0,0.0,0.0,0.0,0.0,0.0,0.0,0.0,0.0,0.0,0.0,0.0,0.0,0.0,0.0,0.0,0.0,0.0,0.0,0.0,0.0,0.0,0.0,0.0,0.0,0.0,0.0,0.0,0.0,0.0,0.0,0.0,0.0,0.0,0.0,0.0,0.0,0.0,0.0,0.0,0.0,0.0,0.0,0.0,0.0,0.0,0.0,0.0,0.0,0.0,0.0,0.0,0.0,0.0,0.0,0.0,0.0,0.0,0.0,0.0,0.0,0.0,0.0,0.0,0.0,0.0,0.0,0.0,0.0,0.0,0.0,0.0,0.0,0.0,0.0,0.0,0.0,0.0,0.0,0.0,0.0,0.0,0.0,0.0,0.0,0.0,0.0,0.0,0.0,0.0,0.0,0.0,0.0,0.0,0.0,0.0,0.0,0.0,0.0,0.0,0.0,0.0,0.0,0.0,0.0,0.0,0.0,0.0,0.0,0.0,0.0,0.0,0.0,0.0,0.0,0.0,0.0,0.0,0.0,0.0,0.0,0.0,0.0,0.0,0.0,0.0,0.0,0.0,0.0,0.0,0.0,0.0,0.0,0.0,0.0,0.0,0.0,0.0,0.0,0.0,0.0,0.0,0.0,0.0,0.0,0.0,0.0,0.0,0.0,0.0,0.0,0.0,0.0,0.0,0.0,0.0,0.0,0.0,0.0,0.0,0.0,0.0,0.0,0.0,0.0,0.0,0.0,0.0,0.0,0.0,0.0,0.0,0.0,0.0,0.0,0.0,0.0,0.0,0.0,0.0,0.0,0.0,0.0,0.0,0.0,0.0,0.0,0.0,0.0,0.0,0.0,0.0,0.0,0.0,0.0,0.0,0.0,0.0,0.0,0.0,0.0,0.0,0.0,0.0,0.0,0.0,0.0,0.0,0.0,0.0,0.0,0.0,0.0,0.0,0.0,0.0,0.0,0.0,0.0,0.0,0.0,0.0,0.0,0.0,0.0,0.0,0.0,0.0,0.0,0.0,0.0,0.0,0.0,0.0,0.0,0.0,0.0,0.0,0.0,0.0,0.0,0.0,0.0,0.0,0.0,0.0,0.0,0.0,0.0,0.0,0.0,0.0,0.0,0.0,0.0,0.0,0.0,0.0,0.0,0.0,0.0,0.0,0.0,0.0,0.0,0.0,0.0,0.0,0.0,0.0,0.0,0.0,0.0,0.0,0.0,0.0,0.0,0.0,0.0,0.0,0.0,0.0,0.0,0.0,0.0,0.0,0.0,0.0,0.0,0.0,0.0,0.0,0.0,0.0,0.0,0.0,0.0,0.0,0.0,0.0,0.0,0.0,0.0,0.0,0.0,0.0,0.0,0.0,0.0,0.0,0.0,0.0,0.0,0.0,0.0,0.0,0.0,0.0,0.0,0.0,0.0,0.0,0.0,0.0,0.0,0.0,0.0,0.0,0.0,0.0,0.0,0.0,0.0,0.0,0.0,0.0,0.0,0.0,0.0,0.0,0.0,0.0,0.0,0.0,0.0,0.0,0.0,0.0,0.0,0.0,0.0,0.0,0.0,0.0,0.0,0.0,0.0,0.0,0.0,0.0,0.0,0.0,0.0,0.0,0.0,0.0,0.0,0.0,0.0,0.0,0.0,0.0,0.0,0.0,0.0,0.0,0.0,0.0,0.0,0.0,0.0,0.0,0.0,0.0,0.0,0.0,0.0,0.0,0.0,0.0,0.0,0.0,0.0,0.0,0.0,0.0,0.0,0.0,0.0,0.0,0.0,0.0,0.0,0.0,0.0,0.0,0.0,0.0,0.0,0.0,0.0,0.0,0.0,0.0,0.0,0.0,0.0,0.0,0.0,0.0,0.0,0.0,0.0,0.0,0.0,0.0,0.0,0.0,0.0,0.0,0.0,0.0,0.0,0.0,0.0,0.0,0.0,0.0,0.0,0.0,0.0,0.0,0.0,0.0,0.0,0.0,0.0,0.0,0.0,0.0,0.0,0.0,0.0,0.0,0.0,0.0,0.0,0.0,0.0,0.0,0.0,0.0,0.0,0.0,0.0,0.0,0.0,0.0,0.0,0.0,0.0,0.0,0.0,0.0,0.0,0.0,0.0,0.0,0.0,0.0,0.0,0.0,0.0,0.0,0.0,0.0,0.0,0.0,0.0,0.0,0.0,0.0,0.0,0.0,0.0,0.0,0.0,0.0,0.0,0.0,0.0,0.0,0.0,0.0,0.0,0.0,0.0,0.0,0.0,0.0,0.0,0.0,0.0,0.0,0.0,0.0,0.0,0.0,0.0,0.0,0.0,0.0,0.0,0.0,0.0,0.0,0.0,0.0,0.0,0.0,0.0,0.0,0.0,0.0,0.0,0.0,0.0,0.0,0.0,0.0,0.0,0.0,0.0,0.0,0.0,0.0,0.0,0.0,0.0,0.0,0.0,0.0,0.0,0.0,0.0,0.0,0.0,0.0,0.0,0.0,0.0,0.0,0.0,0.0,0.0,0.0,0.0,0.0,0.0,0.0,0.0,0.0,0.0,0.0,0.0,0.0,0.0,0.0,0.0,0.0,0.0,0.0,0.0,0.0,0.0,0.0,0.0,0.0,0.0,0.0,0.0,0.0,0.0,0.0,0.0,0.0,0.0,0.0,0.0,0.0,0.0,0.0,0.0,0.0,0.0,0.0,0.0,0.0,0.0,0.0,0.0,0.0,0.0,0.0,0.0,0.0,0.0,0.0,0.0,0.0,0.0,0.0,0.0,0.0,0.0,0.0,0.0,0.0,0.0,0.0,0.0,0.0,0.0,0.0,0.0,0.0,0.0,0.0,0.0,0.0,0.0,0.0,0.0,0.0,0.0,0.0,0.0,0.0,0.0,0.0,0.0,0.0,0.0,0.0,0.0,0.0,0.0,0.0,0.0,0.0,0.0,0.0,0.0,0.0,0.0,0.0,0.0,0.0,0.0,0.0,0.0,0.0,0.0,0.0,0.0,0.0,0.0,0.0,0.0,0.0,0.0,0.0,0.0,0.0,0.0,0.0,0.0,0.0,0.0,0.0,0.0,0.0,0.0,0.0,0.0,0.0,0.0,0.0,0.0,0.0,0.0,0.0,0.0,0.0,0.0,0.0,0.0,0.0,0.0,0.0,0.0,0.0,0.0,0.0,0.0,0.0,0.0,0.0,0.0,0.0,0.0,0.0,0.0,0.0,0.0,0.0,0.0,0.0,0.0,0.0,0.0,0.0,0.0,0.0,0.0,0.0,0.0,0.0,0.0,0.0,0.0,0.0,0.0,0.0,0.0,0.0,0.0,0.0,0.0,0.0,0.0,0.0,0.0,0.0,0.0,0.0,0.0,0.0,0.0,0.0,0.0,0.0,0.0,0.0,0.0,0.0,0.0,0.0,0.0,0.0,0.0,0.0,0.0,0.0,0.0,0.0,0.0,0.0,0.0,0.0,0.0,0.0,0.0,0.0,0.0,0.0,0.0,0.0,0.0,0.0,0.0,0.0,0.0,0.0,0.0,0.0,0.0,0.0,0.0,0.0,0.0,0.0,0.0,0.0,0.0,0.0,0.0,0.0,0.0,0.0,0.0,0.0,0.0,0.0,0.0,0.0,0.0,0.0,0.0,0.0,0.0,0.0,0.0,0.0,0.0,0.0,0.0,0.0,0.0,0.0,0.0,0.0,0.0,0.0,0.0,0.0,0.0,0.0,0.0,0.0,0.0,0.0,0.0,0.0,0.0,0.0,0.0,0.0,0.0,0.0,0.0,0.0,0.0,0.0,0.0,0.0,0.0,0.0,0.0,0.0,0.0,0.0,0.0,0.0,0.0,0.0,0.0,0.0,0.0,0.0,0.0,0.0,0.0,0.0,0.0,0.0,0.0,0.0,0.0,0.0,0.0,0.0,0.0,0.0,0.0,0.0,0.0,0.0,0.0,0.0,0.0,0.0,0.0,0.0,0.0,0.0,0.0,0.0,0.0,0.0,0.0,0.0,0.0,0.0,0.0,0.0,0.0,-4.9703,0.0,0.0,0.0,0.0,0.0,0.0,0.0,0.0,0.0,0.0,0.0,0.0,0.0,0.0,0.0,0.0,0.0,0.0,0.0,0.0,0.0,0.0,0.0,0.0,0.0,0.0,0.0,0.0,0.0,0.0,0.0,0.0,0.0,0.0,0.0,0.0,0.0,0.0,0.0,0.0,0.0,0.0,0.0,0.0,0.0,0.0,0.0,0.0,0.0,0.0,0.0,0.0,0.0,0.0,0.0,0.0,0.0,0.0,0.0,0.0,0.0,0.0,0.0,0.0,0.0,0.0,0.0,0.0,0.0,0.0,0.0,0.0,0.0,0.0,0.0,0.0,0.0,0.0,0.0,0.0,0.0,0.0,0.0,0.0,0.0,0.0,0.0,0.0,0.0,0.0,0.0,0.0,0.0,0.0,0.0,0.0,0.0,0.0,0.0,0.0,0.0,0.0,0.0,0.0,0.0,0.0,0.0,0.0,0.0,0.0,0.0,0.0,0.0,0.0,0.0,0.0,-5.0212,0.0,0.0,0.0,0.0,0.0,0.0,0.0,0.0,0.0,0.0,0.0,0.0,0.0,0.0,0.0,0.0,0.0,0.0,0.0,0.0,0.0,0.0,0.0,0.0,0.0,0.0,0.0,0.0,0.0,0.0,0.0,0.0,0.0,0.0,0.0,0.0,0.0,0.0,0.0,0.0,0.0,0.0,0.0,0.0,0.0,0.0,0.0,0.0,0.0,0.0,0.0,0.0,0.0,0.0,0.0,0.0,0.0,0.0,0.0,0.0,0.0,0.0,0.0,0.0,0.0,0.0,0.0,0.0,0.0,0.0,0.0,0.0,0.0,0.0,0.0,0.0,0.0,0.0,0.0,0.0,0.0,0.0,0.0,0.0,0.0,0.0,0.0,0.0,0.0,0.0,0.0,0.0,0.0,0.0,0.0,0.0,0.0,0.0,0.0,0.0,0.0,0.0,0.0,0.0,0.0,0.0,0.0,0.0,0.0,-5.3174,-5.3174,-5.3174,-5.3174,-5.3114,-5.2037,-5.1558,-5.1528,0.0,0.0,0.0,0.0,0.0,0.0,0.0,0.0,0.0,0.0,0.0,0.0,0.0,0.0,0.0,0.0,0.0,0.0,0.0,0.0,0.0,0.0,0.0,0.0,0.0,0.0,0.0,0.0,0.0,0.0,0.0,0.0,0.0,0.0,0.0,0.0,0.0,0.0,0.0,-4.9134,-4.9374,-4.9344,-4.9074,0.0,0.0,0.0,0.0,0.0,0.0,0.0,0.0,0.0,0.0,0.0,0.0,0.0,0.0,0.0,0.0,0.0,0.0,0.0,0.0,0.0,0.0,0.0,0.0,0.0,0.0,0.0,0.0,0.0,0.0,0.0,0.0,0.0,0.0,0.0,0.0,0.0,0.0,0.0,0.0,0.0,0.0,0.0,0.0,-4.9164,-4.9254,0.0,0.0,0.0,0.0,0.0,0.0,0.0,0.0,0.0,0.0,0.0,0.0,0.0,0.0,-5.2935,-5.2995,-5.3084,-5.3174,-5.3174,-5.3174,-5.3174,-5.3174,-5.3174,-5.3174,-5.2995,0.0,-5.2905,-5.2815,0.0,0.0,0.0,0.0,0.0,0.0,0.0,0.0,0.0,0.0,0.0,0.0,0.0,0.0,0.0,0.0,0.0,0.0,0.0,0.0,0.0,0.0,0.0,0.0,0.0,0.0,0.0,0.0,0.0,0.0,0.0,0.0,0.0,0.0,0.0,0.0,-4.9944,-4.9823,-4.9823,-5.0182,-5.0361,-5.0361,-5.085,-5.0366,-4.9254,-4.9254,0.0,0.0,0.0,0.0,0.0,0.0,0.0,0.0,0.0,0.0,0.0,0.0,0.0,0.0,0.0,0.0,0.0,0.0,0.0,0.0,0.0,0.0,0.0,0.0,0.0,0.0,0.0,0.0,0.0,0.0,0.0,0.0,0.0,0.0,0.0,0.0,0.0,0.0,0.0,-4.9643,-4.9942,-5.0331,-5.0601,-5.093,0.0,0.0,0.0,0.0,0.0,0.0,0.0,0.0,0.0,-5.3174,-5.3174,-5.3354,-5.3743,-5.3773,-5.3952,-5.4311,-5.4311,-5.4311,-5.4311,-5.4311,-5.4311,-5.4311,-5.4311,-5.4311,-5.4251,-5.3503,-5.3174,-5.3144,0.0,0.0,0.0,0.0,0.0,-5.3044,0.0,0.0,0.0,0.0,0.0,0.0,0.0,0.0,0.0,0.0,0.0,0.0,0.0,0.0,0.0,-4.9931,0.0,0.0,0.0,0.0,0.0,0.0,0.0,0.0,0.0,0.0,0.0,0.0,-5.0577,-5.0481,-5.0511,-5.099,-5.1229,-5.1229,-5.1229,-5.069,-4.9763,-4.9763,-4.9763,0.0,0.0,0.0,0.0,0.0,0.0,0.0,0.0,0.0,0.0,0.0,0.0,0.0,0.0,0.0,0.0,0.0,0.0,0.0,0.0,0.0,0.0,0.0,0.0,0.0,0.0,0.0,0.0,0.0,0.0,0.0,0.0,0.0,0.0,0.0,0.0,0.0,0.0,-5.0631,-5.093,-5.1409,-5.1618,-5.1917,0.0,0.0,0.0,0.0,0.0,0.0,-5.3443,-5.3443,-5.3503,-5.3683,-5.3683,-5.4012,-5.47,-5.47,-5.5029,-5.5688,-5.5688,-5.5688,-5.5688,-5.5688,-5.5688,-5.5688,-5.5688,-5.5861,-5.6043,-5.4419,-5.3683,-5.3683,-5.3503,-5.3609,-5.3869,-5.3869,-5.4127,-5.4696,0.0,0.0,0.0,0.0,0.0,0.0,0.0,0.0,0.0,0.0,0.0,0.0,0.0,0.0,-4.881,-4.8922,-4.8566,-4.8702,0.0,0.0,0.0,0.0,0.0,0.0,0.0,0.0,0.0,-5.1203,-5.1139,-5.1169,-5.1169,-5.1199,-5.1229,-5.1229,-5.1229,-5.1169,-5.1109,-5.1109,-5.1109,-5.1109,0.0,0.0,0.0,0.0,0.0,0.0,0.0,0.0,0.0,0.0,0.0,0.0,0.0,0.0,0.0,0.0,0.0,0.0,0.0,0.0,0.0,0.0,0.0,0.0,0.0,0.0,0.0,0.0,0.0,0.0,0.0,0.0,0.0,0.0,0.0,0.0,0.0,0.0,0.0,-5.2157,-5.2695,0.0,0.0,0.0,0.0,-5.3174,-5.3174,-5.3473,-5.4132,-5.4162,-5.4431,-5.5059,-5.5089,-5.5418,-5.6077,-5.6077,-5.6376,-5.7004,-5.7004,-5.7004,-5.7004,-5.7004,-5.7004,-5.7004,-5.7004,-5.777,-5.8752,-5.6174,-5.5089,-5.5029,-5.4401,-5.4855,-5.5813,-5.5813,-5.6615,-5.7845,0.0,0.0,0.0,0.0,0.0,0.0,0.0,0.0,0.0,0.0,0.0,0.0,0.0,-4.8859,-4.8486,-4.8486,-4.8771,-4.9074,-4.9486,0.0,0.0,0.0,0.0,0.0,0.0,0.0,-5.1229,-5.1229,-5.1229,-5.1229,-5.1229,-5.1229,-5.1229,-5.1229,-5.1229,-5.1229,-5.1229,-5.1229,-5.1229,-5.1229,-5.1229,-5.1079,0.0,0.0,0.0,0.0,0.0,0.0,0.0,0.0,0.0,0.0,0.0,0.0,0.0,0.0,0.0,0.0,0.0,0.0,0.0,0.0,0.0,0.0,0.0,0.0,0.0,0.0,0.0,0.0,0.0,0.0,0.0,0.0,0.0,0.0,0.0,0.0,0.0,-5.5086,-5.5395,0.0,0.0,-5.4969,-5.4896,-5.453,-5.5189,-5.556,-5.552,-5.6222,-5.699,-5.7733,-5.6889,-5.7385,-5.9283,-5.8468,-5.8123,-5.8338,-5.8338,-5.7963,-5.7094,-5.7094,-5.7094,-5.7094,-5.7094,-5.7376,-5.7728,-5.6792,-5.7434,-5.8906,-5.8656,-5.8845,-5.9188,-5.9188,-5.9465,-6.0045,0.0,0.0,0.0,0.0,0.0,0.0,0.0,0.0,0.0,0.0,0.0,-4.8769,-4.86,-4.8404,-4.8386,-4.8596,-4.9224,-4.9583,-4.9583,0.0,0.0,0.0,0.0,0.0,0.0,-5.1229,-5.1229,-5.1229,-5.1439,-5.1558,-5.1558,-5.1768,-5.1887,-5.1887,-5.1887,-5.1887,-5.1887,-5.1887,-5.1618,-5.1229,-5.1229,-5.1229,-5.1229,0.0,0.0,0.0,0.0,0.0,0.0,0.0,0.0,0.0,0.0,0.0,0.0,0.0,0.0,0.0,0.0,0.0,0.0,0.0,0.0,0.0,0.0,0.0,0.0,0.0,0.0,0.0,0.0,0.0,0.0,0.0,0.0,0.0,0.0,0.0,-5.6077,-5.6493,-5.6715,-5.6888,-5.6683,-5.6745,-5.6673,-5.6555,-5.7673,-5.8052,-5.7223,-5.8355,-5.9027,-5.9104,-5.8608,-5.9197,-6.0646,-6.0294,-6.016,-6.038,-6.038,-5.9986,-5.9113,-5.9113,-5.9113,-5.9113,-5.9113,-5.9285,-5.9756,-5.9756,-6.0995,-6.2729,-6.0551,-6.0202,-6.0953,-6.0953,-6.1504,-6.2343,0.0,0.0,0.0,0.0,0.0,0.0,0.0,0.0,0.0,0.0,-4.8157,-4.8653,-4.8325,-4.8327,-4.8596,-4.9224,-4.9883,-5.0272,-5.0272,-5.2878,0.0,0.0,0.0,0.0,-5.1229,-5.1229,-5.1259,-5.1259,-5.1917,-5.2217,-5.2247,-5.2875,-5.3174,-5.3174,-5.3174,-5.3174,-5.3174,-5.3174,-5.2456,-5.1289,-5.1289,-5.1289,-5.1289,0.0,0.0,0.0,0.0,0.0,0.0,0.0,0.0,0.0,0.0,0.0,0.0,0.0,0.0,0.0,0.0,0.0,0.0,0.0,0.0,0.0,0.0,0.0,0.0,0.0,0.0,0.0,0.0,0.0,0.0,0.0,0.0,0.0,-5.6883,-5.7483,-5.7491,-5.6372,-5.6808,-5.7461,-5.8176,-5.8239,-5.8518,-5.9073,-6.0297,-6.0518,-5.9234,-6.0424,-6.055,-5.9265,-6.0455,-6.0805,-6.036,-6.1503,-6.2427,-6.31,-6.31,-6.3004,-6.3004,-6.3004,-6.3004,-6.3004,-6.3004,-6.3638,-6.4869,-6.4869,-6.5559,-6.61,-5.983,-5.8968,-6.1049,-6.1049,-6.2618,-6.4681,0.0,0.0,0.0,0.0,0.0,0.0,0.0,0.0,0.0,0.0,-4.8718,-4.8588,-4.9014,-4.9434,-4.9763,-4.9942,-5.0571,-5.096,-5.096,0.0,0.0,0.0,0.0,0.0,-5.1229,-5.1678,-5.1947,-5.1947,-5.2606,-5.2905,-5.2905,-5.3084,-5.3174,-5.3174,-5.3174,-5.3174,-5.3174,-5.3174,-5.2965,-5.2636,-5.2636,-5.2636,-5.2636,0.0,0.0,0.0,0.0,0.0,0.0,0.0,0.0,0.0,0.0,0.0,0.0,0.0,0.0,0.0,0.0,0.0,0.0,0.0,0.0,0.0,0.0,0.0,0.0,0.0,0.0,0.0,0.0,0.0,0.0,0.0,0.0,-5.9903,-5.7772,-5.8864,-6.0233,-6.13,-6.1616,-6.1673,-6.154,-6.1516,-6.1219,-6.058,-6.1627,-6.1945,-6.1249,-6.2404,-6.3088,-6.3334,-6.2775,-6.3246,-6.4962,-6.4392,-6.4218,-6.4414,-6.4414,-6.3919,-6.3004,-6.3004,-6.3004,-6.3004,-6.3004,-6.3196,-6.3544,-6.3544,-6.3764,-6.4105,-6.4137,-6.4575,-6.5167,-6.5167,-6.563,-6.6203,0.0,0.0,0.0,0.0,0.0,0.0,0.0,0.0,0.0,0.0,-4.9098,-4.8955,-4.9613,-5.0002,-5.0361,-5.0631,-5.099,-5.1229,-5.1229,0.0,0.0,0.0,0.0,-5.1618,-5.1618,-5.2276,-5.2606,-5.2606,-5.3294,-5.3623,-5.3623,-5.3892,-5.4012,-5.4012,-5.4012,-5.4012,-5.4012,-5.4012,-5.4012,-5.4012,-5.4012,-5.3683,-5.3174,-5.3174,-5.3174,-5.3174,-5.3174,-5.2935,-5.2606,-5.2606,0.0,0.0,0.0,0.0,0.0,0.0,0.0,0.0,0.0,0.0,0.0,0.0,0.0,0.0,0.0,0.0,0.0,0.0,0.0,0.0,0.0,0.0,0.0,0.0,-6.1283,-6.2179,-6.0141,-6.1297,-6.2466,-6.3099,-6.3249,-6.3233,-6.3297,-6.3276,-6.3111,-6.2652,-6.3826,-6.4112,-6.3302,-6.4365,-6.5039,-6.4869,-6.4688,-6.5081,-6.6029,-6.5855,-6.5646,-6.5646,-6.5646,-6.5293,-6.4629,-6.4629,-6.4629,0.0,-6.4629,-6.4629,-6.4629,-6.4629,-6.4629,0.0,0.0,0.0,0.0,0.0,-6.6812,-6.6812,0.0,0.0,0.0,0.0,0.0,0.0,0.0,0.0,0.0,0.0,0.0,-4.9794,-5.0272,-5.0361,-5.0571,-5.1169,-5.1229,-5.1229,0.0,0.0,0.0,-5.2757,-5.2392,-5.2247,-5.2306,-5.2965,-5.3294,-5.3294,-5.3982,-5.4311,-5.4341,-5.491,-5.5179,-5.5179,-5.5179,-5.5179,-5.5179,-5.5179,-5.5179,-5.5179,-5.5179,-5.4461,-5.3414,-5.3414,-5.3414,-5.3414,-5.3414,-5.3354,-5.3294,-5.3294,0.0,0.0,0.0,0.0,0.0,0.0,0.0,0.0,0.0,0.0,0.0,0.0,0.0,0.0,0.0,0.0,0.0,0.0,0.0,0.0,0.0,0.0,0.0,0.0,-6.3173,-6.4353,-6.3239,-6.4137,-6.4454,-6.3239,-6.3153,-6.3417,-6.4145,-6.4211,-6.4476,-6.5015,-6.6148,-6.632,-6.5171,0.0,0.0,0.0,0.0,-6.6235,-6.5171,-6.6235,-6.6846,-6.6948,-6.6948,-6.6981,-6.7083,-6.7083,-6.7083,-6.7083,-6.7083,-6.7083,-6.7083,-6.7083,-6.7083,-6.6846,-6.4387,-6.4137,-6.526,-6.6406,-6.6812,0.0,0.0,0.0,0.0,0.0,0.0,0.0,0.0,0.0,0.0,-5.0366,-5.0786,-5.1297,-5.1053,-5.102,-5.1079,-5.1199,-5.1229,-5.1229,0.0,0.0,-5.1533,-5.2326,-5.2222,-5.2456,-5.2965,-5.3653,-5.4012,-5.4012,-5.467,-5.4999,-5.4999,-5.5119,-5.5179,-5.5179,-5.5179,-5.5179,-5.5179,-5.5179,-5.5179,-5.5179,-5.5179,-5.5029,-5.479,-5.479,-5.479,-5.479,-5.479,-5.4461,-5.4012,-5.4012,-5.3653,-5.3174,-5.3174,0.0,0.0,0.0,0.0,0.0,0.0,0.0,0.0,0.0,0.0,0.0,0.0,0.0,0.0,0.0,0.0,0.0,0.0,0.0,0.0,-6.2431,-6.4152,-6.5377,-6.5177,-6.58,-6.6052,-6.5278,-6.5093,-6.5396,-6.6137,-6.6204,-6.6271,-6.6406,-6.6643,-6.6728,-6.644,-6.6643,0.0,-6.644,-6.6694,-6.6728,-6.644,-6.6728,-6.7117,-6.7692,0.0,0.0,-6.8673,-6.8673,-6.8673,-6.8673,-6.8673,-6.8673,-6.8673,-6.8673,-6.8673,-6.8451,-6.6705,-6.6235,-6.644,-6.6728,-6.6812,-6.6812,0.0,0.0,0.0,0.0,0.0,0.0,0.0,0.0,0.0,0.0,-5.2052,-5.2529,-5.2869,-5.188,-5.1386,-5.1972,-5.1572,0.0,0.0,-5.1528,-5.1858,-5.2187,-5.2845,-5.3354,-5.3683,-5.4371,-5.47,-5.47,-5.5029,-5.5179,-5.5179,-5.5179,-5.5179,-5.5179,-5.5179,-5.5179,-5.5179,-5.5179,-5.5179,-5.5179,-5.5179,-5.5179,-5.5179,-5.5179,-5.5179,-5.5179,-5.5179,-5.497,-5.47,-5.47,-5.4461,-5.4192,-5.4192,-5.4192,-5.4192,0.0,0.0,0.0,0.0,0.0,0.0,0.0,0.0,0.0,0.0,0.0,0.0,0.0,0.0,-6.0519,0.0,0.0,-6.3682,-6.46,-6.5632,-6.6237,-6.6237,-6.6576,-6.6677,-6.6305,-6.6237,-6.6406,-6.6779,-6.6812,-6.6812,-6.6812,-6.6812,-6.6812,-6.6812,-6.6812,-6.6981,-6.7354,-6.7354,-6.7557,-6.7963,-6.7963,-6.8132,-6.8504,-6.8504,-6.8707,-6.9113,-6.9113,-6.9113,-6.9113,-6.9113,-6.9113,-6.9113,-6.9113,-6.9113,-6.9011,-6.8267,-6.7963,-6.7963,-6.7963,-6.7963,-6.7963,0.0,0.0,0.0,0.0,0.0,0.0,0.0,0.0,0.0,0.0,-5.3221,-5.3828,-5.4505,-5.2989,-5.2245,0.0,0.0,0.0,0.0,-5.1982,-5.2306,-5.2576,-5.3623,-5.4281,-5.4401,-5.491,-5.5179,-5.5179,-5.5179,-5.5179,-5.5179,-5.5179,-5.5179,-5.5209,-5.5329,-5.5388,-5.5388,-5.5508,-5.5568,-5.5568,-5.5568,-5.5568,-5.5568,-5.5568,-5.5418,-5.5209,-5.5329,-5.5388,-5.5388,-5.5508,-5.5568,-5.5568,-5.5568,-5.5568,-5.5568,-5.5568,-5.5568,0.0,0.0,0.0,0.0,0.0,0.0,0.0,0.0,0.0,-5.9746,-6.1057,-6.137,-6.1994,-6.409,-6.4486,-6.498,-6.6542,-6.6812,-6.6812,-6.6812,-6.6812,-6.6812,-6.6812,-6.6812,-6.6812,-6.6812,-6.6812,-6.6812,-6.6812,-6.6948,-6.7015,-6.7015,-6.7184,-6.7523,-6.8098,-6.8132,-6.8436,-6.9079,-6.9113,-6.918,-6.9316,-6.9316,-6.9383,-6.9519,-6.9519,-6.9519,-6.9519,-6.9519,-6.9519,-6.9519,-6.9519,-6.9519,-6.9519,-6.9519,-6.9519,-6.9485,-6.9214,-6.9113,-6.9113,0.0,0.0,0.0,0.0,0.0,0.0,0.0,0.0,0.0,0.0,0.0,0.0,0.0,0.0,0.0,0.0,0.0,0.0,-5.3497,-5.2758,-5.2725,-5.3922,-5.4132,-5.4491,-5.5059,-5.5149,-5.5179,-5.5179,-5.5179,-5.5179,-5.5179,-5.5179,-5.5179,-5.5209,-5.5807,-5.6077,-5.6107,-5.6645,-5.6885,-5.6885,-5.6885,-5.6885,-5.6885,-5.6885,-5.6166,-5.5269,-5.5837,-5.6077,-5.6137,-5.6705,-5.6885,-5.6885,-5.6885,-5.6885,-5.6885,-5.6885,0.0,-5.6885,0.0,0.0,0.0,-5.8539,-5.8838,-5.9092,0.0,0.0,-6.049,-6.2428,-6.2748,-6.3538,-6.6014,-6.6508,-6.6542,-6.6779,-6.6812,-6.6812,-6.6812,-6.6812,-6.6812,-6.6812,-6.6812,-6.6812,-6.6812,-6.6812,-6.6812,-6.6812,-6.7421,-6.7793,-6.7793,-6.847,-6.8876,-6.8977,-6.8977,-6.9011,-6.9113,-6.9113,-6.9417,-7.006,-7.006,-7.0432,-7.1075,-7.1075,-7.1075,-7.1075,-7.1075,-7.1075,-7.1075,-7.1075,-7.1075,-7.1075,-7.1075,-7.1075,-7.0906,-6.9586,-6.9113,-6.9113,0.0,0.0,0.0,0.0,0.0,0.0,0.0,0.0,0.0,0.0,0.0,0.0,0.0,0.0,0.0,0.0,0.0,0.0,-5.3771,-5.3152,-5.3204,-5.4162,-5.4581,-5.491,-5.5179,-5.5179,-5.5179,-5.5179,-5.5179,-5.5179,-5.5209,-5.5598,-5.5777,-5.5777,-5.6436,-5.6705,-5.6735,-5.6974,-5.7094,-5.7094,-5.7094,-5.7094,-5.7094,-5.7094,-5.6765,-5.6346,-5.6615,-5.6705,0.0,-5.7004,-5.7094,-5.7094,-5.7094,-5.7094,-5.7094,-5.7094,-5.7094,0.0,-5.7573,0.0,0.0,0.0,-5.9045,-5.9624,-6.1325,-6.1782,-6.2428,-6.4745,-6.5204,-6.5559,-6.661,-6.6812,-6.6812,0.0,-6.6812,-6.6812,-6.6812,-6.6812,-6.6981,-6.7387,-6.7455,-6.7286,-6.6846,-6.7184,-6.7455,-6.7455,-6.8166,-6.8605,-6.8605,-6.891,-6.9316,-6.9722,-6.9722,-6.9958,-7.0398,-7.0804,-7.1176,-7.1481,-7.1921,-7.2259,-7.2563,-7.2563,-7.2563,-7.2563,-7.2563,-7.2563,-7.2563,-7.2563,-7.2563,-7.2563,-7.2563,-7.2563,-7.2394,-7.0939,-7.0398,-7.0398,0.0,0.0,0.0,0.0,0.0,0.0,0.0,0.0,0.0,0.0,0.0,0.0,0.0,0.0,0.0,0.0,0.0,0.0,0.0,-5.4326,-5.4104,-5.4461,-5.494,-5.5179,-5.5179,-5.5179,-5.5179,-5.5179,-5.5179,-5.5179,-5.5209,-5.5867,-5.6166,-5.6196,-5.7004,-5.7393,-5.7393,-5.7573,-5.7663,-5.7663,-5.7663,-5.7663,-5.7663,-5.7663,-5.7663,-5.7633,-5.7453,-5.7393,-5.7498,-5.7962,-5.7918,-5.7738,-5.8022,-5.82,-5.82,-5.82,-5.82,-5.8217,-5.8338,0.0,0.0,-5.9576,-5.9576,-6.018,-6.1995,-6.2487,-6.2972,-6.4778,-6.547,-6.5855,-6.6235,-6.6525,0.0,-6.6812,-6.6812,-6.688,-6.7083,-6.7117,-6.7387,-6.8132,-6.8233,-6.803,-6.7489,-6.7929,-6.8233,-6.8233,-6.8944,-6.9417,-6.9417,-6.9789,-7.0263,-7.077,-7.1007,-7.1379,-7.1921,-7.2428,-7.2699,-7.2699,-7.324,-7.3477,-7.3477,-7.3477,-7.3477,-7.3477,-7.3477,-7.3477,-7.3477,-7.3477,-7.3477,-7.3477,-7.3477,-7.3477,-7.3341,-7.2293,-7.1921,-7.1921,0.0,0.0,0.0,0.0,0.0,0.0,0.0,0.0,0.0,0.0,0.0,0.0,0.0,0.0,0.0,0.0,0.0,0.0,0.0,-5.6555,-5.5708,-5.522,-5.5179,-5.5179,-5.5179,-5.5179,-5.5179,-5.5179,-5.5179,-5.5179,-5.5209,-5.5867,-5.6166,-5.6226,-5.7513,-5.8082,-5.8141,-5.877,-5.9039,-5.9039,-5.9039,-5.9039,-5.9039,-5.9039,-5.9039,-5.8949,-5.8321,-5.8082,-5.8384,-6.0229,-6.0089,-5.9225,-6.0444,-6.0825,0.0,-6.0825,-6.0825,0.0,0.0,0.0,-5.9392,-6.0609,-6.0887,-6.0989,-6.0989,-6.1091,-6.1091,-6.1193,-6.2193,-6.3482,-6.4688,-6.5942,-6.6812,-6.6812,-6.6812,-6.7049,-6.776,-6.7861,-6.8166,-6.8977,-6.9079,-6.9045,0.0,-6.9045,-6.9079,-6.9079,-6.9755,-7.0161,-7.0161,-7.1515,-7.2326,-7.2326,-7.3003,-7.3409,-7.3409,-7.3443,-7.3443,-7.3443,-7.3477,-7.3477,-7.3477,-7.3477,-7.3477,-7.3477,-7.3477,-7.3477,-7.3477,-7.3477,-7.3477,-7.3477,-7.3477,-7.3477,-7.3477,-7.3443,-7.3409,-7.3409,0.0,0.0,0.0,0.0,0.0,0.0,0.0,0.0,0.0,0.0,0.0,0.0,0.0,0.0,0.0,0.0,0.0,0.0,0.0,-5.7132,-5.6089,-5.6414,-5.5651,-5.5179,-5.5179,-5.5179,-5.5179,-5.5179,-5.5179,-5.5179,-5.5209,-5.6286,-5.6795,-5.6825,-5.8171,-5.877,-5.88,-5.9009,-5.9099,-5.9099,-5.9099,-5.9099,-5.9099,-5.9099,-5.9576,-6.0298,0.0,-5.953,-5.8984,-6.0444,0.0,0.0,-6.1896,0.0,0.0,-6.1294,0.0,0.0,0.0,0.0,-5.9207,-5.9683,-5.9758,-5.997,-6.0815,-6.0989,-6.1294,-6.2094,-6.3355,-6.4137,-6.3732,-6.5382,-6.6693,-6.6313,-6.6973,-6.7793,-6.8605,-6.8707,-6.8977,-6.9722,-6.9823,0.0,0.0,0.0,0.0,-6.9823,-7.0973,-7.165,-7.165,-7.2597,-7.3105,-7.3105,-7.3341,-7.3477,-7.3477,-7.3984,-7.4221,-7.4255,-7.4728,-7.4965,-7.4965,-7.4965,-7.4965,-7.4965,-7.4965,-7.4965,-7.4965,-7.4965,-7.4965,-7.4965,-7.4965,-7.4965,-7.4965,-7.4965,-7.4965,-7.4796,0.0,0.0,0.0,0.0,0.0,0.0,0.0,0.0,0.0,0.0,0.0,0.0,0.0,0.0,0.0,0.0,0.0,0.0,0.0,0.0,-5.7428,-5.7055,-5.6638,-5.628,-5.5819,-5.628,-5.6403,-5.6183,-5.594,-5.5771,-5.5568,-5.6615,-5.7094,-5.7154,-5.8501,-5.9099,-5.9099,-5.9099,-5.9099,-5.9099,-5.9099,-5.9099,-5.9099,-5.9099,-5.9864,0.0,-6.0989,-6.0815,-6.0671,0.0,0.0,0.0,0.0,0.0,0.0,0.0,0.0,0.0,0.0,-5.9099,-5.9099,-5.9099,-5.9099,-5.9285,-6.015,-6.0328,-6.0536,-6.1426,-6.2585,-6.3324,-6.2738,-6.4806,-6.6279,-6.5755,-6.7145,-6.8398,-6.8663,-6.9187,-6.9857,-7.0872,-7.0973,0.0,0.0,0.0,0.0,-7.1007,-7.209,-7.28,-7.28,-7.3477,-7.3883,-7.3883,-7.4153,-7.4289,-7.4289,-7.4762,-7.4999,-7.4999,-7.5777,-7.6115,-7.6149,-7.6386,-7.6521,-7.6521,-7.6521,-7.6521,-7.6521,-7.6521,-7.6521,-7.6521,-7.6521,-7.6521,-7.6521,-7.6521,-7.6521,-7.6318,0.0,0.0,0.0,0.0,0.0,0.0,0.0,0.0,0.0,0.0,0.0,0.0,0.0,0.0,0.0,0.0,0.0,0.0,0.0,0.0,0.0,-5.7245,-5.8268,-5.8268,-5.7086,-5.8177,-5.8525,-5.808,-5.7363,-5.6843,-5.6269,-5.6825,-5.7154,-5.7214,-5.853,-5.9099,-5.9099,-5.9099,-5.9099,-5.9099,-5.9099,-5.9099,-5.9099,-5.9099,-5.997,-6.1091,-6.0989,-6.1896,0.0,0.0,0.0,0.0,0.0,0.0,0.0,0.0,0.0,-6.2225,-5.9789,-5.9099,-5.9099,-5.9099,-5.9099,-5.9099,-5.9099,-5.9099,-5.9099,-5.9099,-6.018,-6.1268,0.0,0.0,-6.5755,-6.5055,-6.7328,-6.8942,-6.8352,-6.9477,-7.0838,0.0,0.0,0.0,0.0,0.0,0.0,-7.2563,0.0,-7.3544,-7.3544,-7.4255,-7.4661,-7.4661,-7.5371,-7.5743,-7.5743,-7.5811,-7.5811,-7.5811,-7.6589,-7.6961,-7.6961,-7.7671,-7.7976,-7.7976,-7.7976,-7.7976,-7.7976,-7.7976,-7.7976,-7.7976,-7.7976,-7.7976,-7.7976,-7.7976,-7.7976,-7.7773,0.0,0.0,0.0,0.0,0.0,0.0,0.0,0.0,0.0,0.0,0.0,0.0,0.0,0.0,0.0,0.0,0.0,0.0,0.0,0.0,0.0,0.0,0.0,0.0,0.0,0.0,0.0,0.0,-5.8058,-5.7695,-5.7518,-5.7721,-5.7872,-5.7902,-5.874,-5.9099,-5.9099,-5.9099,-5.9099,-5.9099,-5.9099,-5.9099,-5.9099,-5.9099,-6.0463,-6.239,-6.1395,0.0,0.0,0.0,0.0,0.0,0.0,0.0,-6.1865,0.0,0.0,-5.997,-5.9285,-5.9099,-5.9099,-5.9099,-5.9099,-5.9099,-5.9099,-5.9099,-5.9099,-5.9099,-6.0471,-6.1545,0.0,0.0,0.0,-6.5924,-6.8181,0.0,-7.1127,-7.1637,0.0,0.0,0.0,-7.3274,-7.3477,-7.3984,0.0,0.0,-7.4221,-7.4322,-7.4322,-7.5033,-7.5439,-7.5439,-7.6183,-7.6589,-7.6589,-7.713,-7.7401,-7.7401,-7.7604,-7.7705,-7.7705,-7.7908,-7.7976,-7.7976,-7.7976,-7.7976,-7.7976,-7.7976,-7.7976,-7.7976,-7.7976,-7.7976,-7.7976,-7.7976,-7.7976,-7.7942,0.0,0.0,0.0,0.0,0.0,0.0,0.0,0.0,0.0,0.0,0.0,0.0,0.0,0.0,0.0,0.0,0.0,0.0,0.0,0.0,0.0,0.0,0.0,0.0,0.0,0.0,0.0,0.0,0.0,0.0,-5.9789,-5.9477,-5.9175,-5.9027,-5.9666,-5.9576,-5.9099,-5.9099,-5.9099,0.0,0.0,-5.997,-5.997,-5.997,-6.1224,-6.2779,0.0,0.0,0.0,0.0,0.0,-6.3732,-6.1927,-6.1527,-6.1696,-6.0536,0.0,-5.9758,-5.9315,-5.9099,-5.9099,-5.9099,-5.9099,-5.9099,-5.9099,-5.9099,-5.9315,-5.9864,-6.1089,0.0,0.0,0.0,0.0,0.0,0.0,0.0,-7.1419,-7.2262,-7.3138,0.0,-7.3984,0.0,-7.4424,-7.483,-7.5236,0.0,0.0,-7.5236,-7.5608,-7.6014,-7.6352,-7.669,-7.713,-7.7367,-7.7367,-7.7773,-7.7976,-7.7976,-7.8314,-7.8483,-7.8483,-7.8822,-7.8957,-7.8957,0.0,-7.8957,-7.8957,-7.8957,-7.8957,-7.8957,-7.8957,-7.8957,-7.8957,-7.8957,-7.8957,-7.8957,0.0,0.0,0.0,0.0,0.0,0.0,0.0,0.0,0.0,0.0,0.0,0.0,0.0,0.0,0.0,0.0,0.0,0.0,0.0,0.0,0.0,0.0,0.0,0.0,0.0,0.0,0.0,0.0,0.0,0.0,0.0,0.0,0.0,0.0,-6.1014,-6.064,-5.9606,-5.9392,-5.9392,-5.9392,-6.0328,-6.0712,-6.0815,0.0,-6.1696,0.0,0.0,0.0,0.0,0.0,-6.2682,-6.2323,-5.9895,-6.0671,-6.2027,-5.9789,-5.9864,-6.0536,-5.9392,-5.9099,-5.9099,-5.9099,-5.9099,-5.9099,-5.9099,-5.9099,-5.9392,-6.0536,0.0,-6.2205,-6.2867,0.0,-6.7557,-6.5953,0.0,-7.1993,-7.0921,-7.2418,-7.3916,-7.4661,-7.4762,-7.5033,-7.5777,-7.5845,-7.6183,-7.6995,-7.6386,-7.6318,-7.6995,-7.7063,-7.7367,-7.8111,-7.8145,-7.8179,-7.828,-7.828,-7.828,-7.828,-7.8957,-7.9261,-7.9295,-7.9904,-8.0209,-8.0209,0.0,0.0,-8.0209,-8.0209,-8.0209,-8.0209,-8.0209,-8.0209,-8.0209,-8.0209,-8.0209,-8.0209,0.0,0.0,0.0,0.0,0.0,0.0,0.0,0.0,0.0,0.0,0.0,0.0,0.0,0.0,0.0,0.0,0.0,0.0,0.0,0.0,0.0,0.0,0.0,0.0,0.0,0.0,0.0,0.0,0.0,0.0,0.0,0.0,0.0,0.0,-6.2364,-6.2487,-6.2225,-6.1122,-6.0712,-6.0609,-5.9758,-5.9392,-5.9576,-6.0609,0.0,0.0,0.0,0.0,0.0,0.0,-6.1395,-6.1091,-5.9576,-5.9392,-5.9683,-5.9207,-5.9315,-5.9392,-5.9207,-5.9099,-5.9099,-5.9099,-5.9099,-5.9099,-5.9099,-5.9099,0.0,0.0,-6.0385,-6.1668,-6.2823,-6.5393,0.0,-6.8372,0.0,0.0,0.0,0.0,-7.4695,0.0,0.0,0.0,0.0,0.0,0.0,0.0,0.0,0.0,-7.7773,-7.7807,-7.8145,-7.8889,-7.8923,-7.9194,-7.9803,-7.9803,-7.9803,-7.9803,-7.9938,-8.0006,-8.0006,-8.0141,-8.0209,-8.0209,0.0,0.0,-8.0209,-8.0209,-8.0209,-8.0209,-8.0209,-8.0209,-8.0209,-8.0209,-8.0209,-8.0209,0.0,0.0,0.0,0.0,0.0,0.0,0.0,0.0,0.0,0.0,0.0,0.0,0.0,0.0,0.0,0.0,0.0,0.0,0.0,0.0,0.0,0.0,0.0,0.0,0.0,0.0,0.0,0.0,0.0,0.0,0.0,0.0,0.0,0.0,0.0,0.0,0.0,0.0,-6.1252,0.0,0.0,0.0,0.0,0.0,0.0,0.0,0.0,0.0,0.0,0.0,-6.0536,-5.9864,-5.9285,-5.9099,-5.9099,-5.9099,-5.9099,-5.9099,-5.9099,-5.9099,-5.9099,-5.9099,-5.9099,-5.9099,-5.9099,0.0,0.0,0.0,-6.1218,-6.2272,-6.296,-6.5313,0.0,0.0,0.0,0.0,0.0,0.0,0.0,0.0,0.0,0.0,0.0,0.0,0.0,0.0,0.0,0.0,-7.8585,-7.8923,-7.9295,-7.9667,-7.9667,-7.9837,-8.0209,-8.0209,-8.0209,-8.0209,-8.0209,-8.0209,-8.0209,-8.0209,-8.0209,-8.0209,-8.0209,0.0,-8.0209,-8.0209,-8.0412,-8.075,-8.075,-8.1021,-8.1359,-8.1359,-8.1359,-8.1359,0.0,0.0,0.0,0.0,0.0,0.0,0.0,0.0,0.0,0.0,0.0,0.0,0.0,0.0,0.0,0.0,0.0,0.0,0.0,0.0,0.0,0.0,0.0,0.0,0.0,0.0,0.0,0.0,0.0,0.0,0.0,0.0,0.0,0.0,0.0,0.0,0.0,0.0,0.0,0.0,0.0,0.0,0.0,0.0,0.0,0.0,0.0,0.0,0.0,0.0,-6.015,-5.9099,-5.9099,-5.9099,-5.9099,-5.9099,-5.9099,-5.9099,-5.9099,-5.9099,-5.9099,-5.9099,-5.9099,-5.9099,-5.9099,-5.9099,0.0,0.0,-6.1717,-6.2884,-6.3381,-6.5313,-6.6543,0.0,0.0,0.0,0.0,0.0,0.0,0.0,0.0,0.0,0.0,0.0,0.0,0.0,0.0,0.0,0.0,-7.9904,-8.0209,-8.0209,-8.0209,-8.0209,-8.0209,-8.0209,-8.0209,-8.0209,-8.0209,-8.0209,-8.0209,-8.0344,-8.0445,-8.0445,-8.0615,0.0,0.0,-8.0682,-8.1021,-8.1528,-8.1528,-8.19,-8.2408,-8.2408,-8.2408,-8.2408,0.0,0.0,0.0,0.0,0.0,0.0,0.0,0.0,0.0,0.0,0.0,0.0,0.0,0.0,0.0,0.0,0.0,0.0,0.0,0.0,0.0,0.0,0.0,0.0,0.0,0.0,0.0,0.0,0.0,0.0,0.0,0.0,0.0,0.0,0.0,0.0,0.0,0.0,0.0,0.0,0.0,0.0,0.0,0.0,0.0,0.0,0.0,0.0,0.0,0.0,0.0,-5.9099,-5.9099,-5.9099,-5.9099,-5.9099,0.0,0.0,-5.9099,-5.9099,-5.9099,-5.9099,-5.9099,-5.9099,-5.9099,0.0,0.0,-5.9315,-6.0366,-6.2008,-6.4583,-6.5104,-6.6048,0.0,0.0,-7.1524,0.0,0.0,0.0,0.0,0.0,0.0,0.0,0.0,0.0,0.0,0.0,0.0,0.0,-8.0175,-8.0209,-8.0209,-8.0209,-8.0209,-8.0209,-8.0209,-8.0209,-8.0209,-8.0209,-8.0209,-8.0209,-8.0885,-8.119,-8.1224,0.0,0.0,0.0,-8.2205,-8.2238,-8.2306,-8.2306,-8.234,-8.2408,-8.2408,-8.2408,-8.2408,0.0,0.0,0.0,0.0,0.0,0.0,0.0,0.0,0.0,0.0,0.0,0.0,0.0,0.0,0.0,0.0,0.0,0.0,0.0,0.0,0.0,0.0,0.0,0.0,0.0,0.0,0.0,0.0,0.0,0.0,0.0,0.0,0.0,0.0,0.0,0.0,0.0,0.0,0.0,0.0,0.0,0.0,0.0,0.0,0.0,0.0,0.0,0.0,0.0,0.0,0.0,0.0,-5.9099,-5.9099,0.0,0.0,-5.9099,-5.9099,-5.9099,-5.9099,-5.9099,-5.9099,-5.9099,-5.9099,-5.9099,0.0,0.0,-5.9099,-6.0176,-6.1408,-6.2518,-6.3403,-6.4209,-6.5328,-6.7427,-6.8957,0.0,0.0,0.0,0.0,0.0,0.0,0.0,0.0,0.0,0.0,0.0,0.0,0.0,-8.0209,-8.0209,-8.0209,-8.0209,-8.0412,-8.0851,-8.0851,-8.1088,-8.1528,-8.1528,-8.1528,-8.1528,-8.1832,-8.1968,-8.1968,0.0,0.0,0.0,-8.2408,-8.2678,-8.305,-8.305,-8.3355,-8.3727,-8.3727,-8.3727,-8.3727,0.0,0.0,0.0,0.0,0.0,0.0,0.0,0.0,0.0,0.0,0.0,0.0,0.0,0.0,0.0,0.0,0.0,0.0,0.0,0.0,0.0,0.0,0.0,0.0,0.0,0.0,0.0,0.0,0.0,0.0,0.0,0.0,0.0,0.0,0.0,0.0,0.0,0.0,0.0,0.0,0.0,0.0,0.0,0.0,0.0,0.0,0.0,0.0,0.0,0.0,0.0,0.0,0.0,0.0,0.0,0.0,-5.9099,-5.9099,-5.9099,-5.9099,-5.9099,-5.9099,-5.9099,-5.9099,0.0,0.0,0.0,-5.9099,-6.0176,-6.1216,-6.1599,-6.2491,-6.3164,-6.3592,-6.5617,-6.7237,-6.7237,0.0,0.0,0.0,0.0,0.0,0.0,0.0,0.0,0.0,0.0,0.0,0.0,-8.0513,-8.0513,-8.0513,-8.075,-8.1088,-8.1596,-8.1629,-8.19,-8.2408,-8.2408,-8.2408,-8.2408,-8.2644,-8.2746,-8.2746,0.0,0.0,0.0,-8.305,-8.3355,-8.3828,-8.3828,-8.4167,-8.464,-8.464,-8.464,-8.464,0.0,0.0,0.0,0.0,0.0,0.0,0.0,0.0,0.0,0.0,0.0,0.0,0.0,0.0,0.0,0.0,0.0,0.0,0.0,0.0,0.0,0.0,0.0,0.0,0.0,0.0,0.0,0.0,0.0,0.0,0.0,0.0,0.0,0.0,0.0,0.0,0.0,0.0,0.0,0.0,0.0,0.0,0.0,0.0,0.0,0.0,0.0,0.0,0.0,0.0,0.0,0.0,0.0,0.0,0.0,0.0,-5.9099,-5.9099,-5.9099,-5.9099,-5.9099,-5.9099,-5.9099,-5.9099,0.0,0.0,0.0,-5.9099,-6.0176,-6.1489,-6.2853,-6.3072,-6.3478,-6.4813,-6.6257,-6.7237,-6.7237,0.0,0.0,0.0,0.0,0.0,0.0,0.0,0.0,0.0,0.0,0.0,0.0,0.0,-8.1257,-8.1257,-8.2002,-8.2408,-8.2408,-8.2408,-8.2408,-8.2408,-8.2408,-8.2408,-8.2441,-8.3152,-8.349,0.0,0.0,0.0,0.0,-8.4606,-8.4606,-8.4606,-8.4606,-8.4606,-8.464,-8.464,-8.464,-8.464,0.0,0.0,0.0,0.0,0.0,0.0,0.0,0.0,0.0,0.0,0.0,0.0,0.0,0.0,0.0,0.0,0.0,0.0,0.0,0.0,0.0,0.0,0.0,0.0,0.0,0.0,0.0,0.0,0.0,0.0,0.0,0.0,0.0,0.0,0.0,0.0,0.0,0.0,0.0,0.0,0.0,0.0,0.0,0.0,0.0,0.0,0.0,0.0,0.0,0.0,0.0,0.0,0.0,0.0,0.0,0.0,0.0,0.0,-5.9099,-5.9099,-5.9099,-5.9099,-5.9099,-5.9099,-5.9099,0.0,0.0,-5.9099,-5.9787,-6.0646,-6.1619,-6.213,-6.2769,-6.3615,-6.4795,-6.5642,-6.5642,0.0,0.0,0.0,0.0,0.0,0.0,0.0,0.0,0.0,0.0,0.0,0.0,0.0,-8.2577,-8.2069,-8.2272,-8.2644,-8.3152,-8.3152,-8.3422,-8.393,-8.393,-8.393,-8.393,-8.4167,0.0,0.0,0.0,0.0,0.0,-8.464,-8.464,-8.464,-8.464,-8.464,-8.464,-8.464,-8.464,-8.464,0.0,0.0,0.0,0.0,0.0,0.0,0.0,0.0,0.0,0.0,0.0,0.0,0.0,0.0,0.0,0.0,0.0,0.0,0.0,0.0,0.0,0.0,0.0,0.0,0.0,0.0,0.0,0.0,0.0,0.0,0.0,0.0,0.0,0.0,0.0,0.0,0.0,0.0,0.0,0.0,0.0,0.0,0.0,0.0,0.0,0.0,0.0,0.0,0.0,0.0,0.0,0.0,0.0,0.0,0.0,0.0,0.0,0.0,0.0,-5.9099,-5.9099,-5.9099,-5.9099,0.0,0.0,0.0,0.0,-5.9099,-5.9847,-6.0595,-6.1044,-6.1852,-6.26,-6.3019,-6.4186,-6.5231,-6.5759,0.0,0.0,0.0,0.0,0.0,0.0,0.0,0.0,0.0,0.0,0.0,0.0,0.0,-8.3422,-8.3253,-8.3253,-8.3456,-8.393,-8.393,-8.4167,-8.464,-8.464,-8.464,-8.464,-8.464,0.0,0.0,0.0,0.0,0.0,-8.464,-8.464,-8.464,-8.464,-8.464,-8.464,-8.464,-8.464,-8.464,0.0,0.0,0.0,0.0,0.0,0.0,0.0,0.0,0.0,0.0,0.0,0.0,0.0,0.0,0.0,0.0,0.0,0.0,0.0,0.0,0.0,0.0,0.0,0.0,0.0,0.0,0.0,0.0,-5.3162,-5.3468,-5.3025,0.0,0.0,0.0,0.0,0.0,0.0,0.0,0.0,0.0,0.0,0.0,0.0,0.0,0.0,0.0,0.0,0.0,0.0,0.0,0.0,0.0,0.0,0.0,0.0,0.0,0.0,0.0,0.0,0.0,0.0,0.0,0.0,0.0,0.0,0.0,0.0,0.0,0.0,-6.1044,-6.1104,-6.2151,-6.3049,-6.3139,-6.4216,-6.5467,0.0,0.0,0.0,0.0,0.0,0.0,0.0,0.0,0.0,0.0,0.0,0.0,0.0,0.0,0.0,-8.4606,-8.464,-8.464,-8.464,-8.464,-8.464,-8.464,-8.464,-8.464,-8.464,-8.464,0.0,0.0,0.0,0.0,0.0,-8.464,-8.464,-8.464,-8.464,-8.464,-8.464,-8.464,-8.464,-8.464,0.0,0.0,0.0,0.0,0.0,0.0,0.0,0.0,0.0,0.0,0.0,0.0,0.0,0.0,0.0,0.0,0.0,0.0,0.0,0.0,0.0,0.0,0.0,0.0,0.0,0.0,0.0,-5.1439,-5.169,-5.178,-5.1708,-5.2442,0.0,0.0,0.0,0.0,0.0,0.0,0.0,0.0,0.0,0.0,0.0,0.0,0.0,0.0,0.0,0.0,0.0,0.0,0.0,0.0,0.0,0.0,0.0,0.0,0.0,0.0,0.0,0.0,0.0,0.0,0.0,0.0,0.0,0.0,0.0,0.0,0.0,0.0,0.0,-6.1792,-6.266,-6.3617,-6.4485,-6.5323,-6.613,0.0,0.0,0.0,0.0,0.0,0.0,0.0,0.0,0.0,0.0,0.0,0.0,0.0,0.0,-8.4606,-8.464,-8.464,-8.464,-8.464,-8.464,-8.464,-8.464,-8.464,-8.464,-8.464,0.0,0.0,0.0,0.0,-8.464,-8.464,-8.464,-8.464,-8.464,-8.464,-8.464,-8.464,-8.464,-8.464,0.0,0.0,0.0,0.0,0.0,0.0,0.0,0.0,0.0,0.0,0.0,0.0,0.0,0.0,0.0,0.0,0.0,0.0,0.0,0.0,0.0,0.0,0.0,0.0,0.0,0.0,0.0,0.0,0.0,-5.1229,0.0,0.0,0.0,0.0,0.0,0.0,0.0,0.0,0.0,0.0,0.0,0.0,0.0,0.0,0.0,0.0,0.0,0.0,0.0,-5.7004,-5.7633,-5.8171,0.0,0.0,0.0,0.0,-5.9099,0.0,0.0,0.0,0.0,0.0,0.0,0.0,0.0,0.0,0.0,0.0,0.0,0.0,0.0,0.0,0.0,-6.3827,-6.4575,0.0,0.0,0.0,0.0,0.0,0.0,0.0,0.0,0.0,0.0,0.0,0.0,0.0,0.0,0.0,0.0,0.0,-8.464,-8.464,-8.464,-8.464,-8.464,-8.464,-8.464,-8.464,-8.464,-8.464,0.0,0.0,0.0,0.0,-8.464,-8.464,-8.464,-8.464,-8.464,-8.464,-8.464,-8.464,-8.464,-8.464,0.0,0.0,0.0,0.0,0.0,0.0,0.0,0.0,0.0,0.0,0.0,0.0,0.0,0.0,0.0,0.0,0.0,0.0,0.0,0.0,0.0,0.0,0.0,0.0,0.0,0.0,0.0,0.0,0.0,0.0,0.0,0.0,0.0,0.0,0.0,0.0,0.0,0.0,0.0,0.0,0.0,0.0,0.0,0.0,0.0,0.0,0.0,0.0,0.0,-5.6137,-5.6974,-5.7992,-5.8082,0.0,0.0,0.0,0.0,0.0,0.0,0.0,0.0,0.0,0.0,0.0,0.0,0.0,0.0,0.0,0.0,0.0,0.0,0.0,0.0,0.0,0.0,0.0,0.0,0.0,0.0,0.0,0.0,0.0,0.0,0.0,0.0,0.0,0.0,0.0,0.0,0.0,0.0,0.0,-8.464,-8.464,-8.464,-8.464,-8.464,-8.464,-8.464,-8.464,-8.464,-8.464,-8.464,0.0,0.0,0.0,-8.464,-8.464,-8.464,-8.464,-8.464,-8.464,-8.464,-8.464,-8.464,-8.464,0.0,0.0,0.0,0.0,0.0,0.0,0.0,0.0,0.0,0.0,0.0,0.0,0.0,0.0,0.0,0.0,0.0,0.0,0.0,0.0,0.0,0.0,0.0,0.0,0.0,0.0,0.0,0.0,0.0,0.0,-5.1229,-5.1229,-5.1229,0.0,0.0,0.0,0.0,0.0,0.0,0.0,0.0,0.0,0.0,0.0,0.0,0.0,0.0,0.0,0.0,-5.5987,-5.6645,-5.7363,-5.7932,0.0,0.0,0.0,0.0,0.0,-5.9099,-5.9099,0.0,0.0,0.0,0.0,0.0,0.0,0.0,0.0,0.0,0.0,0.0,0.0,0.0,0.0,0.0,0.0,0.0,0.0,0.0,0.0,0.0,0.0,0.0,0.0,0.0,0.0,0.0,0.0,0.0,0.0,0.0,-8.464,-8.464,-8.464,-8.464,-8.464,-8.464,-8.464,-8.464,-8.464,-8.464,-8.464,-8.464,0.0,0.0,-8.464,-8.464,-8.464,-8.464,-8.464,-8.464,-8.464,-8.464,-8.464,-8.464,-8.464,0.0,0.0,0.0,0.0,0.0,0.0,0.0,0.0,0.0,0.0,0.0,0.0,0.0,0.0,0.0,0.0,0.0,0.0,0.0,0.0,0.0,0.0,0.0,0.0,0.0,0.0,0.0,0.0,0.0,-5.1229,-5.1229,-5.1229,-5.1229,-5.1229,0.0,0.0,0.0,0.0,0.0,0.0,0.0,0.0,0.0,0.0,0.0,0.0,0.0,0.0,0.0,0.0,-5.6286,-5.7154,-5.7453,0.0,0.0,0.0,0.0,0.0,-5.9099,-5.9099,-5.9099,0.0,0.0,0.0,0.0,0.0,0.0,0.0,0.0,0.0,0.0,0.0,0.0,0.0,0.0,0.0,0.0,0.0,0.0,0.0,0.0,0.0,0.0,0.0,0.0,0.0,0.0,0.0,0.0,0.0,0.0,0.0,-8.464,-8.464,-8.464,-8.464,-8.464,-8.464,-8.464,-8.464,-8.464,-8.464,-8.464,-8.464,0.0,-8.464,-8.464,-8.464,-8.464,-8.464,-8.464,-8.464,-8.464,-8.464,-8.464,-8.464,0.0,0.0,0.0,0.0,0.0,0.0,0.0,0.0,0.0,0.0,0.0,0.0,0.0,0.0,0.0,0.0,0.0,0.0,0.0,0.0,0.0,0.0,0.0,0.0,0.0,0.0,0.0,-5.1229,-5.1229,-5.1229,-5.1229,-5.1229,-5.1229,0.0,0.0,0.0,0.0,0.0,0.0,0.0,0.0,0.0,0.0,0.0,0.0,0.0,0.0,0.0,0.0,0.0,0.0,0.0,0.0,0.0,0.0,-5.9099,-5.9099,-5.9099,-5.9099,-5.9099,-5.9099,0.0,0.0,-5.9099,-5.9099,0.0,0.0,0.0,0.0,0.0,0.0,0.0,0.0,0.0,0.0,0.0,0.0,0.0,0.0,0.0,0.0,0.0,0.0,0.0,0.0,0.0,0.0,0.0,0.0,0.0,0.0,0.0,-8.464,-8.464,-8.464,-8.464,-8.464,-8.464,-8.464,-8.464,-8.464,-8.464,-8.464,-8.464,-8.464,-8.464,-8.464,-8.464,-8.464,-8.464,-8.464,-8.464,-8.464,-8.464,-8.464,-8.464,0.0,0.0,0.0,0.0,0.0,0.0,0.0,0.0,0.0,0.0,0.0,0.0,0.0,0.0,0.0,0.0,0.0,0.0,0.0,0.0,0.0,0.0,0.0,0.0,0.0,-5.1229,-5.1229,-5.1229,-5.1229,-5.1229,-5.1229,-5.1229,-5.1229,-5.1229,0.0,0.0,0.0,0.0,0.0,0.0,0.0,0.0,0.0,0.0,0.0,0.0,0.0,0.0,0.0,0.0,0.0,0.0,0.0,0.0,-5.9099,-5.9099,-5.9099,-5.9099,-5.9099,-5.9099,-5.9099,-5.9099,0.0,0.0,-5.9099,0.0,0.0,0.0,0.0,0.0,0.0,0.0,0.0,0.0,0.0,0.0,0.0,0.0,0.0,0.0,0.0,0.0,0.0,0.0,0.0,0.0,0.0,0.0,0.0,0.0,0.0,0.0,0.0,-8.464,-8.464,-8.464,-8.464,-8.464,-8.464,-8.464,-8.464,-8.464,-8.464,-8.464,-8.464,-8.464,-8.464,-8.464,-8.464,-8.464,-8.464,-8.464,-8.464,-8.464,-8.464,-8.464,0.0,0.0,0.0,0.0,0.0,0.0,0.0,0.0,0.0,0.0,0.0,0.0,0.0,0.0,0.0,0.0,0.0,0.0,0.0,0.0,0.0,0.0,0.0,-5.1229,-5.1229,-5.1229,-5.1229,-5.1229,-5.1229,-5.1229,-5.1229,-5.1229,0.0,0.0,0.0,0.0,0.0,0.0,0.0,0.0,0.0,0.0,0.0,0.0,0.0,0.0,0.0,0.0,0.0,0.0,-5.6047,-5.7094,-5.7094,-5.8022,-5.9099,-5.9099,-5.9099,-5.9099,-5.9099,-5.9099,-5.9099,-5.9099,0.0,0.0,0.0,0.0,0.0,0.0,0.0,0.0,0.0,0.0,0.0,0.0,0.0,0.0,0.0,0.0,0.0,0.0,0.0,0.0,0.0,0.0,0.0,0.0,0.0,0.0,0.0,0.0,0.0,0.0,0.0,-8.464,-8.464,-8.464,-8.464,-8.464,-8.464,-8.464,-8.464,-8.464,-8.464,-8.464,-8.464,-8.464,-8.464,-8.464,-8.464,-8.464,-8.464,-8.464,-8.464,-8.464,-8.464,-8.464,0.0,0.0,0.0,0.0,0.0,0.0,0.0,0.0,0.0,0.0,0.0,0.0,0.0,0.0,0.0,0.0,0.0,0.0,0.0,0.0,0.0,0.0,0.0,-5.1229,-5.1229,-5.1229,-5.1229,-5.1229,-5.1229,-5.1229,-5.1229,0.0,0.0,0.0,0.0,0.0,0.0,0.0,0.0,0.0,0.0,0.0,0.0,0.0,0.0,0.0,0.0,0.0,0.0,0.0,-5.6047,-5.7094,-5.7094,-5.8022,-5.9099,-5.9099,-5.9099,-5.9099,-5.9099,-5.9099,-5.9099,-5.9099,0.0,0.0,0.0,0.0,0.0,0.0,0.0,0.0,0.0,0.0,0.0,0.0,0.0,0.0,0.0,0.0,0.0,0.0,0.0,0.0,0.0,0.0,0.0,0.0,0.0,0.0,0.0,0.0,0.0,0.0,0.0,0.0,-8.464,-8.464,-8.464,-8.464,-8.464,-8.464,-8.464,-8.464,-8.464,-8.464,-8.464,-8.464,-8.464,-8.464,-8.464,-8.464,-8.464,-8.464,-8.464,-8.464,-8.464,-8.464,0.0,0.0,0.0,0.0,0.0,0.0,0.0,0.0,0.0,0.0,0.0,0.0,0.0,0.0,0.0,0.0,0.0,0.0,0.0,0.0,0.0,0.0,0.0,-5.1229,-5.1229,-5.1229,-5.1229,-5.1229,-5.1229,-5.1229,-5.1229,-5.1229,0.0,0.0,0.0,0.0,0.0,0.0,0.0,0.0,0.0,0.0,0.0,0.0,0.0,0.0,0.0,0.0,0.0,0.0,-5.6047,-5.7094,-5.7094,-5.8022,-5.9099,-5.9099,-5.9099,-5.9099,-5.9099,-5.9099,-5.9099,-5.9099,0.0,0.0,0.0,0.0,0.0,0.0,0.0,0.0,0.0,0.0,0.0,0.0,0.0,0.0,0.0,0.0,0.0,0.0,0.0,0.0,0.0,0.0,0.0,0.0,0.0,0.0,0.0,0.0,0.0,0.0,0.0,0.0,-8.464,-8.464,-8.464,-8.464,-8.464,-8.464,-8.464,-8.464,-8.464,-8.464,-8.464,-8.464,-8.464,-8.464,-8.464,-8.464,-8.464,-8.464,-8.464,-8.464,-8.464,-8.464,0.0,0.0,0.0,0.0,0.0,0.0,0.0,0.0,0.0,0.0,0.0,0.0,0.0,0.0,0.0,0.0,0.0,0.0,0.0,0.0,0.0,0.0,0.0,0.0,0.0,0.0,-5.1229,-5.1229,-5.1229,-5.1229,0.0,0.0,0.0,-5.2247,0.0,0.0,0.0,0.0,0.0,0.0,0.0,0.0,0.0,0.0,0.0,0.0,0.0,0.0,0.0,0.0,0.0,0.0,-5.7094,-5.8022,-5.9099,-5.9099,-5.9099,-5.9099,-5.9099,0.0,0.0,0.0,0.0,0.0,0.0,0.0,0.0,0.0,0.0,0.0,0.0,0.0,0.0,0.0,0.0,0.0,0.0,0.0,0.0,0.0,0.0,0.0,0.0,0.0,0.0,0.0,0.0,0.0,0.0,0.0,0.0,0.0,0.0,0.0,-8.464,-8.464,-8.464,-8.464,-8.464,-8.464,-8.464,-8.464,-8.464,-8.464,-8.464,-8.464,-8.464,-8.464,-8.464,-8.464,-8.464,-8.464,-8.464,-8.464,-8.464,-8.464,0.0,0.0,0.0,0.0,0.0,0.0,0.0,0.0,0.0,0.0,0.0,0.0,0.0,0.0,0.0,0.0,0.0,0.0,0.0,0.0,0.0,0.0,0.0,0.0,0.0,-5.1229,-5.1229,0.0,0.0,0.0,0.0,0.0,0.0,-5.2636,0.0,-5.4371,0.0,0.0,0.0,0.0,0.0,0.0,0.0,0.0,0.0,0.0,0.0,0.0,0.0,0.0,0.0,0.0,-5.7513,-5.8231,-5.9099,-5.9099,-5.9099,-5.9099,0.0,0.0,0.0,0.0,0.0,0.0,0.0,0.0,0.0,0.0,0.0,0.0,0.0,0.0,0.0,0.0,0.0,0.0,0.0,0.0,0.0,0.0,0.0,0.0,0.0,0.0,0.0,0.0,0.0,0.0,0.0,0.0,0.0,0.0,0.0,0.0,-8.464,-8.464,-8.464,-8.464,-8.464,-8.464,-8.464,-8.464,-8.464,-8.464,-8.464,-8.464,-8.464,-8.464,-8.464,-8.464,-8.464,-8.464,-8.464,-8.464,-8.464,-8.464,0.0,0.0,0.0,0.0,0.0,0.0,0.0,0.0,0.0,0.0,0.0,0.0,0.0,0.0,0.0,0.0,0.0,0.0,0.0,0.0,0.0,0.0,0.0,0.0,0.0,0.0,0.0,0.0,0.0,0.0,0.0,0.0,-5.2636,-5.3294,0.0,-5.464,0.0,0.0,0.0,0.0,0.0,0.0,0.0,0.0,0.0,0.0,0.0,0.0,0.0,0.0,0.0,0.0,-5.8112,-5.859,-5.9099,-5.9099,-5.9099,0.0,0.0,0.0,0.0,0.0,0.0,0.0,0.0,0.0,0.0,0.0,0.0,0.0,0.0,0.0,0.0,0.0,0.0,0.0,0.0,0.0,0.0,0.0,0.0,0.0,0.0,0.0,0.0,0.0,0.0,0.0,0.0,0.0,0.0,0.0,0.0,0.0,-8.464,-8.464,-8.464,0.0,-8.464,-8.464,-8.464,-8.464,-8.464,-8.464,-8.464,-8.464,-8.464,-8.464,-8.464,-8.464,-8.464,-8.464,-8.464,-8.464,-8.464,-8.464,0.0,0.0,0.0,0.0,0.0,0.0,0.0,0.0,0.0,0.0,0.0,0.0,0.0,0.0,0.0,0.0,0.0,0.0,0.0,0.0,0.0,0.0,0.0,0.0,0.0,0.0,0.0,0.0,0.0,0.0,0.0,0.0,0.0,-5.4012,0.0,-5.5059,0.0,0.0,0.0,0.0,0.0,0.0,0.0,0.0,0.0,0.0,0.0,0.0,0.0,0.0,0.0,0.0,-5.8112,-5.859,-5.9099,-5.9099,-5.9099,0.0,0.0,0.0,0.0,0.0,0.0,0.0,0.0,0.0,0.0,0.0,0.0,0.0,0.0,0.0,0.0,0.0,0.0,0.0,0.0,0.0,0.0,0.0,0.0,0.0,0.0,0.0,0.0,0.0,0.0,0.0,0.0,0.0,0.0,0.0,0.0,-8.464,-8.464,-8.464,-8.464,0.0,-8.464,-8.464,-8.464,-8.464,-8.464,-8.464,-8.464,-8.464,-8.464,-8.464,-8.464,-8.464,-8.464,-8.464,-8.464,-8.464,-8.464,-8.464,0.0,0.0,0.0,0.0,0.0,0.0,0.0,0.0,0.0,0.0,0.0,0.0,0.0,0.0,0.0,0.0,0.0,0.0,0.0,0.0,0.0,0.0,0.0,0.0,0.0,0.0,0.0,0.0,0.0,0.0,0.0,0.0,0.0,-5.4251,0.0,-5.5179,0.0,0.0,0.0,0.0,0.0,0.0,0.0,0.0,0.0,0.0,0.0,0.0,0.0,0.0,0.0,0.0,0.0,0.0,-5.9099,-5.9099,0.0,0.0,0.0,0.0,0.0,0.0,0.0,0.0,0.0,0.0,0.0,0.0,0.0,0.0,0.0,0.0,0.0,0.0,0.0,0.0,0.0,0.0,0.0,0.0,0.0,0.0,0.0,0.0,0.0,0.0,0.0,0.0,0.0,0.0,0.0,0.0,-8.4143,-8.464,-8.464,-8.464,-8.464,-8.464,-8.464,-8.464,-8.464,-8.464,-8.464,-8.464,-8.464,-8.464,-8.464,-8.464,-8.464,-8.464,-8.464,-8.464,-8.464,-8.464,-8.464,-8.464,0.0,0.0,0.0,0.0,0.0,0.0,0.0,0.0,0.0,0.0,0.0,0.0,0.0,0.0,0.0,0.0,0.0,0.0,0.0,0.0,0.0,0.0,0.0,0.0,0.0,0.0,0.0,0.0,0.0,0.0,0.0,0.0,0.0,-5.4401,0.0,0.0,0.0,0.0,0.0,0.0,0.0,0.0,0.0,-5.6885,-5.7154,0.0,0.0,0.0,0.0,-5.8291,0.0,0.0,0.0,0.0,-5.9099,-5.9099,0.0,0.0,0.0,0.0,0.0,0.0,0.0,0.0,0.0,0.0,0.0,0.0,0.0,0.0,0.0,0.0,0.0,0.0,0.0,0.0,0.0,0.0,0.0,0.0,0.0,0.0,0.0,0.0,0.0,0.0,0.0,0.0,0.0,0.0,-8.2345,-8.2572,-8.3893,-8.464,-8.464,-8.464,-8.464,-8.464,-8.464,-8.464,-8.464,-8.464,-8.464,-8.464,-8.464,-8.464,-8.464,-8.464,-8.464,-8.464,-8.464,-8.464,-8.464,-8.464,-8.464,-8.464,0.0,0.0,0.0,0.0,0.0,0.0,0.0,0.0,0.0,0.0,0.0,0.0,0.0,0.0,0.0,0.0,0.0,0.0,0.0,0.0,0.0,0.0,0.0,0.0,0.0,0.0,0.0,0.0,0.0,0.0,0.0,0.0,0.0,-5.5059,0.0,0.0,0.0,0.0,0.0,0.0,0.0,0.0,-5.6974,-5.7064,-5.7453,0.0,0.0,0.0,0.0,-5.8979,-5.9039,0.0,0.0,0.0,0.0,0.0,0.0,0.0,0.0,0.0,0.0,0.0,0.0,0.0,0.0,0.0,0.0,0.0,0.0,0.0,0.0,0.0,0.0,0.0,0.0,0.0,0.0,0.0,0.0,0.0,0.0,0.0,0.0,0.0,0.0,0.0,0.0,0.0,0.0,-8.2083,-8.283,-8.4251,-8.45,-8.464,-8.464,-8.464,-8.464,-8.464,-8.464,-8.464,-8.464,-8.464,-8.464,-8.464,-8.464,-8.464,-8.464,-8.464,-8.464,-8.464,-8.464,-8.464,-8.464,-8.464,-8.464,-8.464,0.0,0.0,0.0,0.0,0.0,0.0,0.0,0.0,0.0,0.0,0.0,0.0,0.0,0.0,0.0,0.0,0.0,0.0,0.0,0.0,0.0,0.0,0.0,0.0,0.0,0.0,0.0,0.0,0.0,0.0,0.0,-5.4581,-5.491,0.0,0.0,0.0,0.0,0.0,0.0,0.0,0.0,0.0,0.0,-5.8082,-5.8411,-5.868,0.0,0.0,0.0,0.0,-5.9099,-5.9099,-5.9099,0.0,0.0,0.0,0.0,0.0,0.0,0.0,0.0,0.0,0.0,0.0,0.0,0.0,0.0,0.0,0.0,0.0,0.0,0.0,0.0,0.0,0.0,0.0,0.0,0.0,0.0,0.0,0.0,0.0,0.0,0.0,0.0,0.0,0.0,0.0,-7.8059,-7.9893,-8.1239,-8.1853,-8.3674,-8.464,-8.464,-8.464,-8.464,-8.464,-8.464,-8.464,-8.464,-8.464,-8.464,-8.464,-8.464,-8.464,-8.464,-8.464,-8.464,-8.464,-8.464,-8.464,-8.464,-8.464,-8.464,-8.464,0.0,0.0,0.0,0.0,0.0,0.0,0.0,0.0,0.0,0.0,0.0,0.0,0.0,0.0,0.0,0.0,0.0,0.0,0.0,0.0,0.0,0.0,0.0,0.0,0.0,0.0,0.0,0.0,0.0,0.0,-5.4461,-5.497,-5.5179,0.0,-5.5179,0.0,0.0,0.0,0.0,0.0,0.0,0.0,0.0,0.0,0.0,-5.9099,-5.9099,0.0,0.0,0.0,0.0,-5.9099,-5.9099,-5.9099,0.0,0.0,0.0,0.0,0.0,0.0,0.0,0.0,0.0,0.0,0.0,0.0,0.0,0.0,0.0,0.0,0.0,0.0,0.0,0.0,0.0,0.0,0.0,0.0,0.0,0.0,0.0,0.0,0.0,0.0,0.0,0.0,0.0,0.0,-7.5489,-7.7804,-7.9527,-8.0408,-8.2684,-8.4143,-8.464,-8.464,-8.464,-8.464,-8.464,-8.464,-8.464,-8.464,-8.464,-8.464,-8.464,-8.464,-8.464,-8.464,-8.464,-8.464,-8.464,-8.464,-8.464,-8.464,-8.464,-8.464,0.0,0.0,0.0,0.0,0.0,0.0,0.0,0.0,0.0,0.0,0.0,0.0,0.0,0.0,0.0,0.0,0.0,0.0,0.0,0.0,0.0,0.0,0.0,0.0,0.0,0.0,0.0,0.0,0.0,0.0,-5.5149,-5.5179,-5.5179,-5.5179,-5.5179,-5.5538,-5.6137,0.0,0.0,0.0,0.0,0.0,0.0,0.0,0.0,0.0,0.0,0.0,0.0,0.0,0.0,-5.9099,-5.9099,-5.9099,-5.9099,0.0,0.0,0.0,0.0,0.0,0.0,0.0,0.0,0.0,0.0,0.0,0.0,0.0,0.0,0.0,0.0,0.0,0.0,0.0,0.0,0.0,0.0,0.0,0.0,0.0,0.0,0.0,0.0,0.0,0.0,0.0,0.0,0.0,-7.7061,-7.729,-7.8909,-8.1968,-8.223,-8.3054,-8.464,-8.464,-8.464,-8.464,-8.464,-8.464,-8.464,-8.464,-8.464,-8.464,-8.464,-8.464,-8.464,-8.464,-8.464,-8.464,-8.464,-8.464,-8.464,-8.464,-8.464,-8.464,0.0,0.0,0.0,0.0,0.0,0.0,0.0,0.0,0.0,0.0,0.0,0.0,0.0,-5.1229,-5.1379,-5.1798,-5.2247,0.0,0.0,0.0,0.0,0.0,0.0,0.0,0.0,0.0,0.0,0.0,0.0,-5.497,-5.5179,-5.5179,-5.5179,-5.5179,-5.5179,-5.5568,-5.6196,-5.6585,0.0,0.0,0.0,0.0,0.0,0.0,0.0,0.0,0.0,0.0,0.0,0.0,0.0,0.0,-5.9099,-5.9099,-5.9099,-5.9099,-5.9099,-5.9099,0.0,0.0,0.0,0.0,0.0,0.0,0.0,0.0,0.0,0.0,0.0,0.0,0.0,0.0,0.0,0.0,0.0,0.0,0.0,0.0,0.0,0.0,0.0,0.0,0.0,0.0,0.0,0.0,0.0,0.0,-7.5698,-7.7707,-7.8909,-7.9001,-8.2083,-8.4035,-8.4606,-8.464,-8.464,-8.464,-8.464,-8.464,-8.464,-8.464,-8.464,-8.464,-8.464,-8.464,-8.464,-8.464,-8.464,-8.464,-8.464,-8.464,-8.464,-8.464,-8.464,-8.464,0.0,0.0,0.0,0.0,0.0,0.0,0.0,0.0,0.0,0.0,0.0,0.0,0.0,0.0,-5.1828,-5.2486,-5.2935,-5.3294,-5.3503,0.0,0.0,0.0,0.0,0.0,0.0,0.0,0.0,0.0,0.0,0.0,0.0,0.0,-5.5299,-5.5538,-5.5538,-5.5897,0.0,0.0,0.0,-5.8501,0.0,0.0,-5.9099,0.0,0.0,0.0,0.0,0.0,0.0,0.0,0.0,0.0,-5.9099,-5.9099,-5.9099,-5.9099,-5.9099,-5.9099,-5.9099,0.0,0.0,0.0,0.0,0.0,0.0,0.0,0.0,0.0,0.0,0.0,0.0,0.0,0.0,0.0,0.0,0.0,0.0,0.0,0.0,0.0,0.0,0.0,0.0,0.0,0.0,0.0,0.0,0.0,-7.4839,-7.6992,-7.7963,-7.729,-8.0971,-8.3277,-8.3784,-8.3784,-8.4035,-8.464,-8.464,-8.464,-8.464,-8.464,-8.464,-8.464,-8.464,-8.464,-8.464,-8.464,-8.464,-8.464,-8.464,-8.464,-8.464,-8.464,-8.464,-8.464,0.0,0.0,0.0,0.0,0.0,0.0,0.0,0.0,0.0,-5.1259,0.0,0.0,0.0,0.0,0.0,-5.3144,-5.3234,-5.3533,-5.4192,-5.4251,0.0,0.0,0.0,0.0,0.0,0.0,0.0,0.0,0.0,0.0,0.0,0.0,-5.5568,0.0,-5.6226,-5.6555,-5.7154,0.0,-5.8501,-5.9099,0.0,-5.9099,-5.9099,0.0,0.0,0.0,-5.9099,-5.9099,0.0,0.0,0.0,0.0,0.0,-5.9099,-5.9099,-5.9099,-5.9099,-5.9099,0.0,0.0,0.0,0.0,0.0,0.0,0.0,0.0,0.0,0.0,0.0,0.0,0.0,0.0,0.0,0.0,0.0,0.0,0.0,0.0,0.0,0.0,0.0,0.0,0.0,0.0,0.0,0.0,0.0,-7.4151,-7.4809,-7.4869,-7.5728,-7.7419,-7.9033,-8.0615,-8.223,-8.223,-8.3054,-8.464,-8.464,-8.464,-8.464,-8.464,-8.464,-8.464,-8.464,-8.464,-8.464,-8.464,-8.464,-8.464,-8.464,-8.464,-8.464,-8.464,-8.464,-8.464,0.0,0.0,0.0,0.0,0.0,0.0,0.0,0.0,-5.1379,0.0,0.0,0.0,-5.2845,-5.3354,-5.3713,-5.3922,-5.4371,-5.473,-5.491,-5.491,-5.4999,-5.5179,-5.5179,0.0,0.0,0.0,0.0,0.0,0.0,0.0,0.0,0.0,0.0,0.0,-5.7363,-5.7693,-5.7842,-5.8052,0.0,0.0,-5.9099,-5.9099,0.0,0.0,0.0,0.0,0.0,-5.9099,0.0,0.0,-5.9099,-5.9099,0.0,-5.9099,-5.9099,-5.9099,-5.9099,-5.9099,-5.9099,0.0,0.0,0.0,0.0,0.0,0.0,0.0,0.0,0.0,0.0,0.0,0.0,0.0,0.0,0.0,0.0,0.0,0.0,0.0,0.0,0.0,0.0,0.0,0.0,0.0,0.0,0.0,-7.2804,-7.3462,-7.4121,-7.4629,-7.673,-8.0734,-8.0167,-8.1121,-8.3893,-8.3926,-8.4143,-8.464,-8.464,-8.464,-8.464,-8.464,-8.464,-8.464,-8.464,-8.464,-8.464,-8.464,-8.464,-8.464,-8.464,-8.464,-8.464,-8.464,-8.464,-8.464,0.0,0.0,0.0,0.0,0.0,0.0,0.0,0.0,-5.1858,0.0,0.0,0.0,-5.3533,-5.4221,-5.461,-5.461,-5.497,-5.5179,-5.5179,-5.5179,-5.5179,-5.5179,-5.5179,-5.5179,0.0,0.0,0.0,0.0,0.0,0.0,0.0,0.0,0.0,0.0,0.0,0.0,0.0,0.0,0.0,0.0,-5.9099,0.0,0.0,-5.9099,-5.9099,0.0,0.0,0.0,-5.9099,-5.9099,-5.9099,0.0,0.0,0.0,-5.9099,-5.9099,-5.9099,-5.9099,-5.9099,-5.9099,-5.9099,0.0,0.0,0.0,0.0,-6.1613,0.0,0.0,0.0,0.0,0.0,0.0,0.0,0.0,0.0,0.0,0.0,0.0,0.0,0.0,0.0,0.0,0.0,0.0,0.0,0.0,-7.2265,-7.2894,-7.3851,-7.451,-7.6233,-7.9033,-7.8941,-8.0014,-8.2538,-8.3277,-8.3926,-8.464,-8.464,-8.464,-8.464,-8.464,-8.464,-8.464,-8.464,-8.464,-8.464,-8.464,-8.464,-8.464,-8.464,-8.464,-8.464,-8.464,-8.464,-8.464,0.0,0.0,0.0,0.0,0.0,0.0,0.0,0.0,0.0,0.0,-5.3354,-5.3623,-5.4251,-5.485,-5.5209,-5.5299,-5.5299,-5.5329,-5.5388,-5.5388,-5.5388,-5.5388,-5.5388,-5.5388,-5.5388,0.0,0.0,0.0,0.0,0.0,0.0,0.0,0.0,0.0,0.0,0.0,0.0,0.0,0.0,-5.9099,-5.9099,-5.9099,0.0,0.0,-5.9099,0.0,-5.9099,-5.9099,-5.9099,-5.9099,-5.9099,0.0,0.0,0.0,0.0,0.0,-5.9099,-5.9099,-5.9099,-5.9099,-5.9099,-5.9099,0.0,0.0,-6.0954,-6.1613,-6.2271,0.0,0.0,0.0,0.0,0.0,0.0,0.0,0.0,0.0,0.0,0.0,0.0,0.0,0.0,0.0,0.0,0.0,-7.1158,-7.1727,-7.1846,-7.2475,-7.3821,-7.445,-7.4916,-7.5112,-7.6568,-7.8155,-7.9771,-8.1356,-8.2942,-8.4392,-8.45,-8.464,-8.464,-8.464,-8.464,-8.464,-8.464,-8.464,-8.464,-8.464,-8.464,-8.464,-8.464,-8.464,-8.464,-8.464,-8.464,-8.464,0.0,0.0,0.0,0.0,0.0,0.0,0.0,0.0,0.0,-5.3922,-5.4461,-5.485,-5.497,-5.5119,-5.5418,-5.5927,-5.5987,-5.6196,-5.6705,-5.6735,-5.6735,-5.6735,-5.6735,-5.6735,-5.6735,-5.6585,-5.6645,0.0,0.0,0.0,0.0,0.0,0.0,-5.8919,0.0,0.0,0.0,0.0,0.0,-5.9099,-5.9099,0.0,-5.9099,-5.9099,-5.9099,-5.9099,-5.9099,-5.9099,-5.9099,0.0,-5.9099,-5.9099,0.0,0.0,0.0,0.0,0.0,0.0,0.0,0.0,0.0,0.0,0.0,0.0,-6.0954,-6.1613,-6.2271,0.0,0.0,0.0,0.0,0.0,0.0,0.0,0.0,0.0,0.0,0.0,0.0,0.0,0.0,0.0,0.0,0.0,-7.0949,-7.1098,-7.1577,-7.2475,-7.3821,-7.4001,-7.4946,-7.68,-7.7191,-7.8155,-7.9771,-8.1356,-8.2345,-8.2684,-8.4001,-8.464,-8.464,-8.464,-8.464,-8.464,-8.464,-8.464,-8.464,-8.464,-8.464,-8.464,-8.464,-8.464,-8.464,-8.464,-8.464,-8.464,0.0,0.0,0.0,0.0,0.0,0.0,0.0,0.0,-5.3922,-5.461,-5.5269,-5.5688,-5.5688,-5.5957,-5.6286,-5.6615,-5.6645,-5.6765,-5.7064,-5.7094,0.0,-5.7094,-5.7094,-5.7094,-5.7094,-5.7094,-5.7274,-5.7603,0.0,0.0,0.0,0.0,0.0,0.0,0.0,0.0,0.0,0.0,-5.9099,-5.9099,-5.9099,0.0,-5.9099,-5.9099,-5.9099,-5.9099,-5.9099,-5.9308,-5.9638,-5.9997,-5.9877,0.0,0.0,-5.9368,-5.9099,0.0,-5.9099,-5.9099,0.0,0.0,0.0,-5.9518,0.0,0.0,0.0,-6.1852,-6.2271,0.0,0.0,0.0,0.0,0.0,0.0,0.0,0.0,0.0,0.0,0.0,0.0,0.0,0.0,0.0,0.0,0.0,-7.0889,-7.0889,-7.1517,-7.2176,-7.2864,-7.3522,-7.4406,-7.5582,-7.6777,-7.7676,-7.8534,-8.0135,-8.1388,-8.223,-8.3054,-8.3784,-8.464,-8.464,-8.464,-8.464,-8.464,-8.464,-8.464,-8.464,-8.464,-8.464,-8.464,-8.464,-8.464,-8.464,-8.464,-8.464,0.0,0.0,0.0,0.0,0.0,0.0,0.0,0.0,0.0,-5.5299,-5.5957,-5.6346,-5.6346,-5.6557,-5.6809,-5.7274,-5.6716,-5.664,-5.7483,0.0,0.0,-5.7483,-5.7483,-5.7483,-5.7483,-5.7483,-5.7752,-5.8321,0.0,0.0,0.0,-5.9099,0.0,0.0,0.0,0.0,0.0,0.0,0.0,-5.9099,0.0,-5.9099,-5.9099,-5.9099,-5.9189,-5.9308,-5.9458,-5.9847,-6.0386,-6.0924,0.0,-6.0266,-6.0266,-5.9907,0.0,0.0,0.0,0.0,0.0,0.0,0.0,0.0,0.0,-6.0745,0.0,0.0,0.0,-6.2959,0.0,0.0,0.0,0.0,0.0,0.0,0.0,0.0,0.0,0.0,0.0,0.0,0.0,0.0,0.0,0.0,-7.0889,-7.0889,-7.1398,-7.1757,-7.1876,-7.2924,-7.3612,-7.3881,-7.5744,-7.6677,-7.68,-7.8439,-8.0014,-8.1239,-8.1853,-8.2942,-8.4143,-8.45,-8.464,-8.464,-8.464,-8.464,-8.464,-8.464,-8.464,-8.464,-8.464,-8.464,-8.464,-8.464,-8.464,-8.464,-5.3174,-5.3144,0.0,0.0,0.0,0.0,0.0,0.0,-5.5329,-5.5987,-5.6615,-5.7004,0.0,0.0,0.0,0.0,0.0,0.0,-5.8614,0.0,-5.7348,-5.8752,-5.889,0.0,-5.889,-5.889,-5.8919,-5.9009,-5.9009,-5.9039,-5.9099,-5.9099,0.0,0.0,-5.9099,0.0,0.0,0.0,-5.9099,0.0,-5.9099,-5.9099,0.0,-5.9099,-5.9458,-6.0057,-6.0655,-6.0924,-6.1014,0.0,-6.1074,-6.1014,0.0,-6.0954,0.0,0.0,0.0,0.0,0.0,0.0,0.0,0.0,-6.1433,0.0,0.0,0.0,-6.2989,-6.3049,0.0,0.0,0.0,0.0,0.0,0.0,0.0,0.0,0.0,0.0,0.0,0.0,0.0,0.0,0.0,0.0,-7.0889,-7.0889,-7.0979,-7.1278,-7.1846,-7.2026,-7.2654,-7.3851,-7.4211,-7.4511,-7.5112,-7.6831,-7.7676,-7.7901,-8.0852,-8.2345,-8.2572,-8.3893,-8.464,-8.464,-8.464,-8.464,-8.464,-8.464,-8.464,-8.464,-8.464,-8.464,-8.464,-8.464,-8.464,-8.464,-5.2602,-5.3544,0.0,0.0,0.0,0.0,0.0,0.0,-5.6406,-5.6675,-5.7274,0.0,0.0,0.0,0.0,0.0,0.0,0.0,0.0,0.0,-5.744,0.0,0.0,0.0,0.0,-5.9099,-5.9099,-5.9099,-5.9099,-5.9099,-5.9099,-5.9099,-5.9099,0.0,-5.9099,0.0,-5.9099,0.0,0.0,0.0,0.0,0.0,0.0,-5.9668,-6.0086,-6.0775,-6.1433,-6.1672,-6.1732,0.0,-6.2002,0.0,0.0,0.0,0.0,0.0,0.0,0.0,0.0,0.0,0.0,0.0,0.0,0.0,0.0,0.0,-6.3079,0.0,0.0,0.0,0.0,0.0,0.0,0.0,0.0,0.0,0.0,0.0,0.0,0.0,0.0,0.0,0.0,0.0,0.0,0.0,0.0,-7.1009,-7.1308,-7.1667,-7.2146,-7.2714,-7.3492,-7.4031,-7.43,-7.5412,-7.6335,-7.729,-7.8659,-7.9893,-8.0852,-8.2458,-8.3199,-8.331,-8.4143,-8.464,-8.464,-8.464,-8.464,-8.464,-8.464,-8.464,-8.464,-8.464,-8.464,-8.464,-5.1925,0.0,0.0,0.0,0.0,0.0,0.0,0.0,0.0,0.0,0.0,0.0,-5.8381,-5.801,0.0,0.0,0.0,-5.5763,0.0,0.0,-5.744,0.0,0.0,0.0,0.0,-5.9099,-5.9099,-5.9099,-5.9099,-5.9099,-5.9099,-5.9099,-5.9099,-5.9099,0.0,-5.9099,-5.9099,0.0,0.0,-5.9129,-5.9308,-5.9877,-6.0625,-6.0625,-6.0954,-6.1463,-6.2121,-6.2361,-6.245,-6.2929,-6.275,0.0,-6.2361,0.0,0.0,0.0,0.0,0.0,-6.1642,0.0,0.0,0.0,0.0,0.0,0.0,0.0,0.0,0.0,0.0,0.0,0.0,0.0,0.0,0.0,0.0,0.0,0.0,0.0,0.0,0.0,0.0,0.0,0.0,0.0,0.0,0.0,-7.0649,-7.0739,-7.0889,-7.1368,-7.1697,-7.1876,-7.3013,-7.3702,-7.3881,-7.5022,-7.5966,-7.67,-7.7548,-7.8408,-7.9157,-8.0766,-8.1737,-8.223,-8.3421,-8.4143,-8.464,-8.464,-8.464,-8.464,-8.464,-8.464,-8.464,-8.464,-8.464,-8.464,-5.1598,-5.3579,0.0,0.0,0.0,0.0,0.0,0.0,0.0,0.0,0.0,0.0,0.0,0.0,0.0,0.0,0.0,-5.3402,-5.648,0.0,-5.744,0.0,0.0,0.0,0.0,0.0,-5.9099,-5.9099,-5.9099,-5.9099,-5.9099,-5.9099,-5.9099,-5.9099,0.0,-5.9099,-5.9099,-5.9099,-5.9099,-5.9159,-5.9787,-6.0864,-6.2032,0.0,-6.2061,-6.2151,-6.281,0.0,0.0,-6.3079,-6.3079,0.0,0.0,0.0,0.0,0.0,0.0,0.0,0.0,0.0,0.0,-6.3049,0.0,0.0,0.0,0.0,-6.3977,0.0,0.0,0.0,0.0,0.0,-6.5981,-6.6041,-6.658,0.0,0.0,0.0,0.0,0.0,0.0,0.0,0.0,0.0,0.0,-6.9961,-7.0021,-7.026,-7.0859,-7.0919,-7.1218,-7.1876,-7.2565,-7.3253,-7.3881,-7.6099,-7.6436,-7.5006,-7.8218,-7.8941,-7.7419,-7.9065,-8.0766,-8.223,-8.223,-8.3166,-8.464,-8.464,-8.464,-8.464,-8.464,-8.464,-8.464,-8.464,-8.464,-8.464,0.0,0.0,0.0,0.0,0.0,0.0,0.0,-5.7399,0.0,0.0,0.0,0.0,0.0,0.0,-5.4149,0.0,0.0,-5.2455,-5.3522,-5.3643,0.0,0.0,0.0,-5.7552,0.0,0.0,-5.9099,-5.9099,-5.9099,-5.9099,-5.9099,-5.9099,-5.9099,-5.9099,0.0,-5.9099,0.0,0.0,0.0,0.0,0.0,-6.1702,-6.2091,0.0,0.0,-6.278,-6.2989,-6.3348,0.0,-6.3677,-6.3977,-6.4366,-6.4366,-6.4366,-6.4366,-6.4366,-6.4366,0.0,0.0,0.0,-6.4366,-6.4366,0.0,0.0,0.0,0.0,0.0,0.0,0.0,0.0,0.0,0.0,-6.6161,-6.658,-6.6849,-6.6909,0.0,0.0,0.0,0.0,0.0,0.0,0.0,0.0,0.0,-6.9273,-6.9722,-7.0081,0.0,-7.0679,-7.1009,-7.1218,-7.1876,-7.2565,-7.3223,-7.4493,-7.551,-7.6436,-7.6599,-7.6831,-7.729,-7.7932,-7.9033,-8.0647,-8.1737,-8.3054,-8.464,-8.464,-8.464,-8.464,-8.464,-8.464,-8.464,-8.464,-8.464,-8.464,-5.5671,0.0,0.0,0.0,0.0,0.0,0.0,0.0,0.0,0.0,-5.5327,0.0,-5.4386,0.0,-5.3187,0.0,-5.1989,-5.1989,-5.1989,-5.2578,0.0,-5.4386,-5.5907,0.0,0.0,0.0,-5.9099,-5.9099,-5.9099,-5.9099,-5.9099,-5.9099,-5.9099,-5.9099,0.0,0.0,0.0,0.0,-5.9697,0.0,0.0,-6.2361,0.0,0.0,-6.3019,-6.3408,0.0,-6.3827,-6.4366,-6.4366,-6.4665,-6.5024,-6.5024,-6.5024,-6.5024,-6.5024,-6.5024,-6.5024,-6.5024,-6.5024,0.0,-6.5024,-6.5024,0.0,-6.5024,0.0,0.0,0.0,0.0,0.0,0.0,0.0,-6.649,-6.6909,-6.6999,-6.6999,0.0,-6.6999,0.0,0.0,0.0,0.0,0.0,0.0,-6.7897,-6.8585,-6.9034,-6.9482,0.0,0.0,-7.0679,-7.0889,-7.1547,-7.2116,-7.2535,-7.404,-7.5175,-7.6099,-7.5844,-7.5966,-7.6436,-7.6436,-7.7321,-7.9065,-8.0647,-8.2198,-8.3784,-8.4392,-8.464,-8.464,-8.464,-8.464,-8.464,-8.464,-8.464,-8.464,0.0,0.0,0.0,0.0,-5.7752,0.0,0.0,0.0,-5.6593,0.0,-5.5094,-5.4149,-5.4149,-5.2822,-5.1865,-5.1865,-5.1865,0.0,-5.1865,-5.3308,0.0,0.0,-5.5676,-5.648,-5.6593,0.0,0.0,-5.9099,-5.9099,-5.9099,-5.9099,-5.9099,-5.9099,-5.9099,-5.9129,0.0,-5.9189,-5.9847,-6.0146,-6.0296,-6.1642,-6.2929,-6.4006,-6.4036,0.0,-6.4096,-6.4066,-6.4485,-6.5084,-6.5084,-6.5114,-6.5114,-6.5114,-6.5114,-6.5114,-6.5114,-6.5114,-6.5114,-6.5114,-6.5114,-6.5114,-6.5114,0.0,0.0,0.0,0.0,-6.6071,0.0,0.0,0.0,0.0,0.0,0.0,-6.6999,-6.6999,-6.6999,-6.6999,0.0,0.0,0.0,0.0,0.0,0.0,-6.6999,-6.7238,-6.7867,-6.7956,0.0,0.0,0.0,-7.026,-7.0889,-7.1517,-7.1846,-7.1876,-7.4721,-7.5426,-7.4016,-7.613,-7.6436,-7.5006,-7.4869,-7.5728,-7.7419,-7.9033,-8.0615,-8.2345,-8.3893,-8.45,-8.464,-8.464,-8.464,-8.464,-8.464,-8.464,-8.464,-5.7289,-5.801,-5.8308,0.0,0.0,-5.8535,0.0,0.0,0.0,0.0,-5.1865,-5.079,-5.079,-5.0436,-5.0181,-5.0181,-5.0181,0.0,0.0,0.0,0.0,-5.079,-5.2332,-5.3763,-5.4976,-5.6508,0.0,-5.9099,-5.9099,-5.9099,-5.9099,-5.9099,-5.9099,-5.9129,0.0,0.0,-5.9877,-6.0565,-6.1134,-6.1702,-6.2989,-6.3707,0.0,0.0,-6.5054,-6.5413,-6.4934,-6.5173,-6.5742,-6.5742,-6.6071,-6.649,-6.649,-6.649,-6.649,-6.649,-6.649,-6.649,-6.649,-6.649,-6.649,-6.649,-6.649,-6.649,0.0,0.0,0.0,0.0,0.0,0.0,0.0,0.0,0.0,-6.6999,-6.6999,-6.6999,0.0,0.0,0.0,0.0,0.0,0.0,-6.6999,-6.6999,-6.7059,-6.7238,-6.7687,0.0,0.0,0.0,0.0,-7.0889,-7.1068,-7.1398,-7.1876,-7.3082,-7.4345,-7.5686,-7.5529,-7.5966,-7.67,-7.5489,-7.5728,-7.729,-7.7773,-7.9495,-8.2198,-8.2684,-8.3531,-8.464,-8.464,-8.464,-8.464,-8.464,-8.464,-8.464,-5.6878,0.0,0.0,-5.9099,0.0,0.0,-5.6849,0.0,0.0,-5.2112,-5.0537,0.0,-4.959,-4.9816,-4.9967,-4.9967,-5.0193,0.0,0.0,0.0,0.0,-5.0318,-5.1895,-5.3476,-5.5187,-5.6475,0.0,-5.9548,0.0,0.0,-5.9099,-5.9099,-5.9249,-5.9548,0.0,-6.0266,0.0,-6.1253,-6.2091,-6.2989,-6.3707,0.0,0.0,-6.5293,-6.5862,-6.64,-6.6011,-6.6131,-6.643,-6.643,-6.67,-6.6999,-6.6999,-6.6999,-6.6999,-6.6999,-6.7208,-6.7418,-6.7418,-6.7627,-6.7867,-6.7867,-6.7867,-6.7867,-6.7867,-6.7867,-6.7867,0.0,0.0,0.0,0.0,0.0,0.0,-6.6999,-6.6999,-6.6999,0.0,0.0,0.0,0.0,0.0,0.0,-6.6999,-6.6999,-6.6999,-6.6999,0.0,0.0,0.0,0.0,0.0,-7.047,-7.0769,-7.1068,-7.1457,-7.2116,-7.3274,-7.4768,-7.463,-7.5456,-7.729,-7.6335,-7.6831,-7.8439,-7.9157,-8.0495,-8.223,-8.2942,-8.3784,-8.464,-8.464,-8.464,-8.464,-8.464,-8.464,-8.464,0.0,0.0,0.0,0.0,0.0,0.0,0.0,-5.3763,0.0,-5.1846,0.0,-4.9715,-4.9816,-5.0243,-5.0519,0.0,0.0,-5.1272,-5.1272,-5.1272,-5.1272,-5.1272,-5.262,-5.4213,-5.6209,-5.6767,0.0,0.0,0.0,0.0,-5.9368,-5.9368,-5.9668,0.0,0.0,0.0,0.0,-6.2061,-6.2989,0.0,-6.4186,-6.4964,-6.6011,-6.6101,-6.649,-6.6999,-6.6999,-6.6999,-6.6999,-6.6999,-6.7059,-6.7119,-6.7119,-6.7178,-6.7238,-6.7238,-6.7657,-6.8106,-6.8106,-6.8555,-6.9004,-6.9004,-6.9004,-6.9004,-6.9004,-6.9004,-6.9004,-6.9004,-6.8525,-6.8106,0.0,0.0,0.0,-6.7119,0.0,0.0,0.0,0.0,0.0,0.0,0.0,0.0,0.0,-6.6999,0.0,0.0,0.0,0.0,0.0,0.0,0.0,-6.9961,-7.059,0.0,-7.0889,0.0,-7.2235,-7.2924,-7.3582,-7.4959,-7.6931,-7.716,-7.8059,-7.9559,-8.1121,-8.1968,-8.2345,-8.3674,-8.4392,-8.464,-8.464,-8.464,-8.464,-8.464,-8.464,-8.464,0.0,0.0,0.0,0.0,0.0,-5.4386,0.0,-5.2332,-5.1675,-5.0817,-5.0398,0.0,-5.0946,-5.1071,-5.1122,-5.1122,-5.1222,0.0,0.0,0.0,0.0,-5.1272,-5.1513,-5.3114,-5.6087,-5.496,-5.6503,0.0,0.0,0.0,-6.0775,-6.0775,-6.0835,0.0,0.0,0.0,-6.278,-6.3408,0.0,-6.4096,-6.5203,-6.5802,-6.6071,-6.661,-6.6879,-6.6999,-6.6999,-6.6999,-6.6999,-6.6999,-6.7358,-6.7807,-6.7807,-6.8196,-6.8645,-6.8645,-6.8734,-6.8824,-6.8824,-6.8914,-6.9004,-6.9004,-6.9004,-6.9004,-6.9004,-6.9004,-6.9004,-6.9004,-6.8914,-6.8824,-6.8824,0.0,0.0,0.0,0.0,0.0,0.0,0.0,0.0,0.0,0.0,0.0,0.0,0.0,0.0,0.0,0.0,0.0,0.0,0.0,0.0,0.0,-7.056,0.0,0.0,0.0,-7.2235,-7.2924,-7.3582,-7.4346,-7.5354,-7.67,-7.7419,-7.7804,-7.9559,-8.1003,-8.223,-8.2458,-8.3421,-8.464,-8.464,-8.464,-8.464,-8.464,-8.464,-8.464,0.0,0.0,0.0,0.0,0.0,0.0,0.0,-5.2152,0.0,-5.055,-5.067,-5.0971,-5.1247,-5.1548,-5.1699,-5.1699,-5.1975,-5.2126,-5.2126,-5.2126,-5.2126,-5.2126,-5.2126,0.0,-5.7024,-5.5943,-5.7388,-6.1613,0.0,0.0,-6.1104,-6.1104,-6.1313,-6.1672,0.0,-6.3258,0.0,0.0,0.0,-6.5084,-6.5742,-6.6221,-6.655,-6.6879,-6.7208,-6.7508,-6.7508,-6.7717,-6.7986,-6.7627,-6.7956,-6.8495,-6.8495,-6.8734,-6.9004,-6.9004,-6.9243,-6.9512,-6.9512,-6.9752,-6.9991,-6.9991,-6.9991,-6.9991,-6.9991,-6.9991,-6.9991,-6.9991,-6.9722,-6.9393,-6.9064,-6.8734,0.0,0.0,0.0,0.0,0.0,0.0,0.0,0.0,0.0,0.0,0.0,0.0,0.0,0.0,0.0,0.0,0.0,0.0,0.0,0.0,0.0,0.0,0.0,0.0,0.0,-7.2924,-7.4062,-7.5587,-7.745,-7.9157,-8.0256,-8.1089,-8.1968,-8.2684,-8.3421,-8.3421,-8.3893,-8.464,-8.464,-8.464,-8.464,-8.464,-8.464,-8.464,0.0,-5.7961,0.0,0.0,-5.461,0.0,0.0,-5.2251,-5.1297,-5.082,-5.1172,-5.1498,-5.1624,-5.2026,-5.2277,-5.2277,-5.2678,-5.2929,-5.2929,-5.3417,-5.3605,-5.3605,-5.4117,-5.5789,-5.8704,-5.7854,-5.9058,0.0,0.0,-6.1154,-6.1523,-6.1523,0.0,0.0,0.0,0.0,0.0,0.0,-6.5533,-6.6011,-6.6161,-6.652,-6.6999,-6.7148,-6.7508,-6.7986,-6.8136,-6.8615,-6.9123,-6.8585,-6.8764,-6.9213,-6.9213,-6.9303,-6.9393,-6.9393,-6.9782,-7.0171,-7.0171,-7.053,-7.0889,-7.0889,-7.0889,-7.0889,-7.0889,-7.0889,-7.0889,-7.0889,-7.05,-7.0021,-6.9512,-6.9303,0.0,0.0,0.0,0.0,0.0,0.0,0.0,0.0,0.0,0.0,0.0,0.0,0.0,0.0,0.0,0.0,0.0,0.0,0.0,0.0,0.0,-7.0889,-7.0889,0.0,-7.1618,0.0,-7.4256,-7.6526,-7.9547,-8.1056,-8.2572,-8.4143,-8.45,-8.464,-8.464,-8.464,-8.464,-8.464,-8.464,-8.464,-8.464,-8.464,-8.464,-8.464,0.0,0.0,0.0,0.0,0.0,0.0,0.0,-5.1833,-5.2,-5.195,-5.2,-5.2226,-5.2729,-5.2829,-5.2854,-5.2854,-5.2904,-5.2929,-5.2929,-5.4899,-5.6077,-5.6077,-5.8154,-5.9902,-6.1155,-5.9669,-6.0261,0.0,0.0,-6.135,-6.2899,-6.2899,0.0,0.0,0.0,0.0,0.0,-6.5622,-6.5951,-6.6071,-6.667,-6.6939,-6.7059,-6.7657,-6.7926,-6.8046,-6.8675,-6.9333,-6.9871,-6.9812,-6.9842,-6.9901,-6.9901,-7.026,-7.0709,-7.0709,-7.0769,-7.0829,-7.0829,-7.0859,-7.0889,-7.0889,-7.0889,-7.0889,-7.0889,-7.0889,-7.0889,-7.0889,-7.0859,-7.0799,-7.0739,-7.026,-6.9901,0.0,0.0,0.0,0.0,0.0,0.0,0.0,0.0,0.0,0.0,0.0,0.0,0.0,0.0,0.0,0.0,0.0,0.0,-6.9004,0.0,-7.0889,-7.0889,-7.0889,-7.1964,-7.4096,-7.3456,-7.5071,-7.8811,-7.9604,-8.0885,-8.2458,-8.4035,-8.464,-8.464,-8.464,-8.464,-8.464,-8.464,-8.464,-8.464,-8.464,-8.464,-8.464,0.0,0.0,0.0,0.0,0.0,0.0,0.0,-5.2929,-5.3181,-5.3532,-5.3281,-5.3155,-5.3356,-5.4602,-5.5083,-5.4049,-5.5851,-5.6232,-5.4049,-5.5787,-5.6437,-5.5391,-5.7327,-5.9035,-6.0469,-6.0879,-6.2167,0.0,0.0,-6.3595,-6.4246,-6.4246,0.0,0.0,0.0,-6.5622,-6.5652,-6.6311,-6.661,-6.667,-6.7298,-6.7567,-6.7657,-6.8315,-6.8824,-6.9213,-6.9482,-6.9991,-7.053,-7.053,-7.053,-7.053,-7.053,-7.0709,-7.0889,-7.0889,-7.0889,-7.0889,-7.0889,-7.0889,-7.0889,-7.0889,-7.0889,-7.0889,-7.0889,-7.0889,-7.0889,-7.0889,-7.0889,-7.0889,-7.0889,-7.0709,-7.053,0.0,0.0,0.0,0.0,0.0,0.0,0.0,0.0,-6.7567,0.0,0.0,0.0,0.0,0.0,0.0,0.0,0.0,0.0,-6.9004,0.0,-7.0889,-7.0889,-7.0889,-7.2062,-7.4253,-7.4364,-7.6338,-8.0164,-8.0913,-8.2083,-8.3674,-8.4285,-8.464,-8.464,-8.464,-8.464,-8.464,-8.464,-8.464,-8.464,-8.464,-8.464,-8.464,-5.6177,0.0,-5.442,0.0,-5.3598,-5.308,-5.3833,-5.3959,-5.411,-5.4511,-5.4873,-5.4784,-5.3959,-5.5494,-5.6003,-5.4703,-5.7459,-5.8107,-5.5611,-5.7728,-5.8483,-5.7315,-5.9048,0.0,-6.1628,-6.2822,-6.4028,-6.5024,-6.5024,-6.5024,-6.5024,-6.5233,0.0,0.0,-6.6011,-6.6311,-6.634,-6.6999,-6.7268,-6.7328,-6.8016,-6.8256,-6.8345,-6.9034,-6.9572,-6.9991,-7.0201,-7.053,-7.0889,-7.0889,-7.0889,-7.0889,-7.0889,-7.0889,-7.0889,-7.0889,-7.0889,-7.0889,-7.0889,-7.0889,-7.0889,-7.0889,-7.0889,-7.0889,-7.0889,-7.0889,-7.0889,-7.0889,-7.0889,-7.0889,-7.0889,-7.0889,-7.0889,-7.0889,0.0,0.0,0.0,0.0,0.0,0.0,-6.8675,-6.8256,-6.8256,0.0,0.0,0.0,0.0,0.0,0.0,0.0,0.0,0.0,0.0,0.0,0.0,-7.0889,-7.1971,-7.3974,-7.4368,-7.6738,-8.0814,-8.2254,-8.3531,-8.464,-8.464,-8.464,-8.464,-8.464,-8.464,-8.464,-8.464,-8.464,-8.464,-8.464,-8.464,-8.464,-5.6585,-5.629,-5.5961,-5.4834,-5.4536,-5.4536,-5.4561,-5.4561,-5.4561,-5.4561,-5.6633,-5.7155,-5.4895,-5.4561,-5.4561,-5.4561,-5.628,-5.7324,-5.7324,-6.1137,-6.3457,0.0,0.0,-6.6547,-6.589,-6.5981,-6.5682,-6.5024,0.0,-6.5024,-6.5054,0.0,-6.6011,-6.6011,-6.67,-6.6969,-6.7029,-6.7687,-6.7956,-6.8016,-6.8704,-6.9004,-6.9064,-6.9722,-6.9961,-7.0051,-7.0679,-7.0889,-7.0889,-7.0889,-7.0889,-7.0889,-7.0889,-7.0889,-7.0889,-7.0889,-7.0889,-7.0889,-7.0889,-7.0889,-7.0889,-7.0889,-7.0889,-7.0889,-7.0889,-7.0889,-7.0889,-7.0889,-7.0889,-7.0889,-7.0889,-7.0889,-7.0889,-7.0889,0.0,0.0,0.0,0.0,0.0,-6.9961,-6.9393,-6.9004,-6.9004,0.0,0.0,0.0,0.0,0.0,0.0,0.0,0.0,-6.9961,-7.059,0.0,-7.0889,-7.0889,-7.1728,-7.3323,-7.2992,-7.5401,-8.02,-8.3221,-8.4606,-8.464,-8.464,-8.464,-8.464,-8.464,-8.464,-8.464,-8.464,-8.464,-8.464,-8.464,-8.464,-8.464,-5.519,-5.5076,-5.5013,-5.4678,-5.4561,-5.5087,-5.6799,-5.5918,-5.5644,-5.7369,-5.8114,-5.8307,-5.7588,-5.9697,-6.0776,0.0,-6.2099,-6.2907,0.0,-6.2688,-6.3451,-6.2249,-6.4038,-6.5018,-6.4814,-6.5996,-6.658,-6.637,0.0,0.0,0.0,-6.658,-6.667,-6.67,-6.7358,-6.7657,-6.7717,-6.8375,-6.8675,-6.8734,-6.9393,-6.9662,-6.9722,-7.038,-7.062,-7.0649,-7.0829,-7.0889,-7.0889,-7.0889,-7.0889,-7.0889,-7.0889,-7.0889,-7.0889,-7.0889,-7.0889,-7.0889,-7.0889,-7.0889,-7.0889,-7.0889,-7.0889,-7.0889,-7.0889,-7.0889,-7.0889,-7.0889,-7.0889,-7.0889,-7.0889,-7.0889,-7.0889,-7.0889,-7.0889,0.0,0.0,0.0,-7.062,-7.062,-7.0051,-6.9662,0.0,-6.9273,0.0,0.0,0.0,0.0,0.0,0.0,0.0,0.0,-7.059,0.0,-7.0889,-7.0889,-7.1728,-7.3292,-7.2992,-7.5323,-8.0,-8.3187,-8.464,-8.464,-8.464,-8.464,-8.464,-8.464,-8.464,-8.464,-8.464,-8.464,-8.464,-8.464,-8.464,-8.464,-5.4838,-5.4888,-5.4938,-5.5139,-5.571,-5.6777,-5.8183,-5.7983,-5.8228,-5.9659,-6.0538,-6.092,-6.092,-6.3834,0.0,-6.1891,-6.4281,-6.4978,-6.2821,-6.4281,-6.4822,-6.3606,-6.4694,-6.5358,-6.5358,0.0,0.0,-6.6999,-6.7238,-6.7358,-6.7358,-6.7627,-6.7747,-6.7777,-6.8166,-6.8375,-6.8405,-6.9093,-6.9363,-6.9423,-7.0051,-7.032,-7.038,-7.0769,-7.0889,-7.0889,-7.0889,-7.0889,-7.0889,-7.0889,-7.1068,-7.1278,-7.1278,-7.1457,-7.1607,-7.1338,-7.1278,-7.1338,-7.1577,-7.1667,-7.1667,-7.1667,-7.1667,-7.1667,-7.1667,-7.1667,-7.1667,-7.1667,-7.1457,-7.1278,-7.1278,-7.1068,-7.0889,-7.0889,-7.0889,-7.0889,-7.0889,0.0,-7.0889,0.0,0.0,0.0,0.0,-6.9961,0.0,0.0,0.0,0.0,0.0,0.0,0.0,-7.032,-7.0709,0.0,-7.0889,-7.0889,-7.1375,-7.2455,-7.393,-7.6494,-7.9925,-8.3166,-8.464,-8.464,-8.464,-8.464,-8.464,-8.464,-8.464,-8.464,-8.464,-8.464,-8.464,-8.464,-8.464,-8.464,-5.534,-5.5584,0.0,0.0,-5.785,0.0,-5.9375,-6.0756,-6.1734,-6.1868,-6.3328,-6.4425,-6.4425,-6.6597,-6.6432,-6.2459,0.0,0.0,0.0,-6.6192,-6.7119,-6.7119,-6.7119,-6.7119,-6.7119,-6.7119,-6.7119,-6.7119,-6.7747,-6.8046,-6.8046,-6.8704,-6.9004,-6.9004,-6.9064,-6.9064,-6.9123,-6.9782,-7.0021,-7.0051,-7.0649,-7.0889,-7.0889,-7.0889,-7.0889,-7.0889,-7.0889,-7.0919,-7.0979,-7.0979,-7.1398,-7.1966,-7.1966,-7.2385,-7.2804,-7.2146,-7.1966,-7.2116,-7.2744,-7.2924,-7.2924,-7.2924,-7.2924,-7.2924,-7.2924,-7.2924,-7.2924,-7.2924,-7.2385,-7.1966,-7.1966,-7.1457,-7.1009,-7.0979,-7.0979,-7.0949,-7.0919,0.0,-7.0889,0.0,0.0,0.0,0.0,-7.0889,-7.0889,0.0,0.0,0.0,0.0,0.0,-7.032,-7.0889,-7.0889,-7.0889,-7.0889,-7.0889,-7.0949,-7.1038,-7.5613,-7.8515,-7.9893,-8.3166,-8.464,-8.464,-8.464,-8.464,-8.464,-8.464,-8.464,-8.464,-8.464,-8.464,-8.464,-8.464,-8.464,-8.464,0.0,0.0,-5.8068,-5.8224,-6.0226,-6.215,-6.3497,-6.3381,-6.3552,-6.5089,-6.5618,-6.5779,-6.5779,-6.757,-6.8422,-6.7295,-6.7678,-6.7834,-6.7834,-6.8244,-6.8525,-6.8525,-6.8525,-6.8525,-6.8525,-6.8525,-6.8525,-6.8525,-6.8675,-6.8764,-6.8764,-6.8914,-6.9004,-6.9034,-6.9512,-6.9752,-6.9782,-7.041,-7.0679,-7.0679,-7.0829,-7.0889,-7.0889,-7.0889,-7.0889,-7.0889,-7.0889,-7.1218,-7.1637,-7.1637,-7.2116,-7.2684,-7.2684,-7.2774,-7.2894,-7.2714,-7.2684,-7.2714,-7.2864,-7.2924,-7.2924,-7.2924,-7.2924,-7.2924,-7.2924,-7.2924,-7.2924,-7.2924,-7.2774,-7.2684,-7.2684,-7.2535,-7.2265,-7.1757,-7.1637,-7.1487,-7.0979,-7.0889,0.0,0.0,-7.0889,-7.0889,-7.0889,-7.0889,-7.0889,0.0,0.0,0.0,0.0,-7.0769,-7.0739,-7.0889,-7.0889,-7.0889,-7.0889,-7.0889,-7.1427,-7.2445,-7.6084,-7.8547,-7.9925,-8.3166,-8.464,-8.464,-8.464,-8.464,-8.464,-8.464,-8.464,-8.464,-8.464,-8.464,-8.464,-8.464,-8.464,-8.464,-5.6972,-5.7805,-5.8771,-5.9552,-6.1457,-6.3604,-6.54,-6.598,-6.6372,-6.7477,-6.7477,-6.7477,-6.7477,-6.8704,-6.9453,-6.9453,-6.9183,-6.9004,-6.9004,-6.9004,-6.9004,-6.9004,-6.9004,-6.9004,-6.9004,-6.9004,-6.9004,-6.9004,-6.9303,-6.9453,-6.9453,-6.9752,-6.9871,-6.9871,-7.026,-7.041,-7.041,-7.0769,-7.0889,-7.0889,-7.0889,-7.0889,-7.0889,-7.0889,-7.1098,-7.1368,-7.1368,-7.1787,-7.2355,-7.2355,-7.2804,-7.3373,-7.3373,-7.3582,-7.3821,-7.3821,-7.3612,-7.3432,-7.3732,-7.3821,-7.3821,-7.3821,-7.3821,-7.3821,-7.3821,-7.3821,-7.3821,-7.3821,-7.3582,-7.3373,-7.3373,-7.3133,-7.2804,-7.2415,-7.2355,-7.2116,-7.1457,-7.1368,0.0,-7.0949,-7.0889,-7.0889,-7.0889,-7.0889,-7.0889,-7.0889,-7.0889,0.0,-7.0889,-7.0889,-7.0889,-7.0889,-7.0889,-7.0889,-7.0889,-7.1188,-7.1876,-7.2924,-7.6555,-7.8835,-7.9925,-8.3166,-8.464,-8.464,-8.464,-8.464,-8.464,-8.464,-8.464,-8.464,-8.464,-8.464,-8.464,-8.464,-8.464,-8.464,-5.8326,-5.8599,-5.9264,-6.1193,-6.3057,-6.4928,-6.6648,-6.8259,-6.9303,-6.9303,-6.9303,-6.9303,-6.9303,-6.9782,-7.0111,-7.0111,-6.9602,-6.9303,-6.9303,-6.9303,-6.9303,-6.9303,-6.9303,-6.9303,-6.9303,-6.9303,-6.9303,-6.9303,-6.9842,-7.0111,-7.0141,-7.0649,-7.0889,-7.0889,-7.0889,-7.0889,-7.0889,-7.0889,-7.0889,-7.0889,-7.0889,-7.0889,-7.0919,-7.1009,-7.1398,-7.1906,-7.1996,-7.2475,-7.3073,-7.3073,-7.3492,-7.4031,-7.4031,-7.442,-7.4869,-7.4869,-7.448,-7.418,-7.4719,-7.4869,-7.4869,-7.4869,-7.4869,-7.4869,-7.4869,-7.4869,-7.4869,-7.4869,-7.442,-7.4031,-7.4031,-7.3582,-7.3193,-7.3073,-7.3073,-7.2834,-7.2146,0.0,-7.1787,-7.1128,-7.1038,-7.1009,-7.0919,-7.0889,-7.0889,-7.0889,-7.0889,-7.0889,0.0,-7.0889,-7.0889,-7.0889,-7.0889,-7.0889,-7.0889,-7.1547,-7.2235,-7.2924,-7.6963,-7.922,-7.9893,-8.3166,-8.464,-8.464,-8.464,-8.464,-8.464,-8.464,-8.464,-8.464,-8.464,-8.464,-8.464,-8.464,-8.464,-8.464,-5.9945,-6.1479,-6.3141,-6.5085,-6.7363,-6.9109,-6.9397,-7.0132,-7.062,-7.062,-7.062,-7.062,-7.062,-7.0709,-7.0769,-7.0769,-7.0679,-7.062,-7.062,-7.062,-7.062,-7.062,-7.062,-7.062,-7.062,-7.062,-7.062,-7.062,-7.0709,-7.0769,-7.0769,-7.0859,-7.0889,-7.0889,-7.0889,-7.0889,-7.0889,-7.0889,-7.0889,-7.0889,-7.0889,-7.0889,-7.0949,-7.1517,-7.1787,-7.1966,-7.2535,-7.3193,-7.3732,-7.3732,-7.418,-7.4719,-7.4719,-7.4809,-7.4869,-7.4869,-7.4809,-7.4749,-7.4839,-7.4869,-7.4869,-7.4869,-7.4869,-7.4869,-7.4869,-7.4869,-7.4869,-7.4869,-7.4809,-7.4719,-7.4719,-7.4629,-7.439,-7.3821,-7.3732,-7.3522,-7.2864,0.0,-7.2505,-7.1816,-7.1727,-7.1517,-7.0949,-7.0889,-7.0889,-7.0889,-7.0889,-7.0889,-7.0889,-7.0889,-7.0889,-7.0889,-7.0889,-7.0889,-7.0889,-7.1547,-7.2235,-7.2924,-7.6963,-7.9099,-7.9925,-8.3166,-8.464,-8.464,-8.464,-8.464,-8.464,-8.464,-8.464,-8.464,-8.464,-8.464,-8.464,-8.464,-8.464,-8.464,-6.1301,-6.2298,-6.3848,-6.6814,-6.8178,-6.9368,-7.0341,-7.0709,-7.0889,-7.0889,-7.0889,-7.0889,-7.0889,-7.0889,-7.0889,-7.0889,-7.0889,-7.0889,-7.0889,-7.0889,-7.0889,-7.0889,-7.0889,-7.0889,-7.0889,-7.0889,-7.0889,-7.0889,-7.0889,-7.0889,-7.0889,-7.0889,-7.0889,-7.0889,-7.0889,-7.0889,-7.0889,-7.0889,-7.0889,-7.0949,-7.1278,-7.1427,-7.1517,-7.2176,-7.2654,-7.3013,-7.3343,-7.3881,-7.442,-7.442,-7.4629,-7.4869,-7.4869,-7.4869,-7.4869,-7.4869,-7.4869,-7.4869,-7.4869,-7.4869,-7.4869,-7.4869,-7.4869,-7.4869,-7.4869,-7.4869,-7.4869,-7.4869,-7.4869,-7.4869,-7.4869,-7.4869,-7.4779,-7.448,-7.442,0.0,0.0,-7.3432,-7.3193,-7.2505,-7.2116,-7.1757,-7.1457,-7.1098,-7.0889,-7.0889,-7.0889,-7.0889,-7.0889,-7.0889,-7.0889,-7.0889,-7.0889,-7.1068,-7.1427,-7.2086,-7.3244,-7.4768,-7.7839,-7.9934,-8.1121,-8.3531,-8.464,-8.464,-8.464,-8.464,-8.464,-8.464,-8.464,-8.464,-8.464,-8.464,-8.464,-8.464,-8.464,-8.464,-6.3392,-6.3684,-6.4813,-6.8219,-6.8788,-6.922,-7.0629,-7.0889,-7.0889,-7.0889,-7.0889,-7.0889,-7.0889,-7.0889,-7.0889,-7.0889,-7.0889,-7.0889,-7.0889,-7.0889,-7.0889,-7.0889,-7.0889,-7.0889,-7.0889,-7.0889,-7.0889,-7.0889,-7.0889,-7.0889,-7.0889,-7.0889,-7.0889,-7.0889,-7.0889,-7.0979,-7.1128,-7.1128,-7.1218,-7.1427,-7.1936,-7.2116,-7.2206,-7.2894,-7.3462,-7.3911,-7.4061,-7.445,-7.4869,-7.4869,-7.4869,-7.4869,-7.4869,-7.4869,-7.4869,-7.4869,-7.4869,-7.4869,-7.4869,-7.4869,-7.4869,-7.4869,-7.4869,-7.4869,-7.4869,-7.4869,-7.4869,-7.4869,-7.4869,-7.4869,-7.4869,-7.4869,-7.4869,-7.4869,0.0,0.0,0.0,-7.4121,-7.3881,-7.3223,-7.2684,-7.2295,-7.2146,-7.1667,-7.1308,-7.1128,-7.1128,-7.1128,-7.1128,-7.1128,-7.1188,-7.1368,-7.1218,-7.1457,-7.2116,-7.2804,-7.3979,-7.5815,-7.8468,-8.0495,-8.1737,-8.3674,-8.464,-8.464,-8.464,-8.464,-8.464,-8.464,-8.464,-8.464,-8.464,-8.464,-8.464,-8.464,-8.464,-8.464,-6.7232,-6.7673,-6.8383,-7.0337,-7.0759,-7.0759,-7.0889,-7.0889,-7.0889,-7.0889,-7.0889,-7.0889,-7.0889,-7.0889,-7.0889,-7.0889,-7.0889,-7.0889,-7.0889,-7.0889,-7.0889,-7.0889,-7.0889,-7.0889,-7.0889,-7.0889,-7.0889,-7.0889,-7.0889,-7.0889,-7.0889,-7.0889,-7.0889,-7.0889,-7.0889,-7.1248,-7.1816,-7.1816,-7.2176,-7.2774,-7.2834,-7.2834,-7.2924,-7.3582,-7.3851,-7.3971,-7.4569,-7.4839,-7.4869,-7.4869,-7.4869,-7.4869,-7.4869,-7.4869,-7.4869,-7.4869,-7.4869,-7.4869,-7.4869,-7.4869,-7.4869,-7.4869,-7.4869,-7.4869,-7.4869,-7.4869,-7.4869,-7.4869,-7.4869,-7.4869,-7.4869,-7.4869,-7.4869,-7.4869,0.0,0.0,-7.4809,-7.4809,-7.4569,-7.3911,-7.3762,-7.3522,-7.2894,-7.2804,-7.2505,-7.1846,-7.1816,-7.1816,-7.1816,-7.1816,-7.2116,-7.2744,-7.2146,-7.2146,-7.2834,-7.3492,-7.3986,-7.4151,-7.7999,-7.9925,-8.0135,-8.3166,-8.464,-8.464,-8.464,-8.464,-8.464,-8.464,-8.464,-8.464,-8.464,-8.464,-8.464,-8.464,-8.464,-8.464,-6.5921,-6.7232,-6.8654,-7.0629,-7.0889,-7.0889,-7.0889,-7.0889,-7.0889,-7.0889,-7.0889,-7.0889,-7.0889,-7.0889,-7.0889,-7.0889,-7.0889,-7.0889,-7.0889,-7.0889,-7.0889,-7.0889,-7.0889,-7.0889,-7.0889,-7.0889,-7.0889,-7.0889,-7.0889,-7.0889,-7.0889,-7.0889,-7.1128,-7.1517,-7.1517,-7.1876,-7.2535,-7.2535,-7.2684,-7.2954,-7.3343,-7.3522,-7.3582,-7.424,-7.451,-7.454,-7.4779,-7.4869,-7.4869,-7.4869,-7.4869,-7.4869,-7.4869,-7.4869,-7.4869,-7.4869,-7.4869,-7.4869,-7.4869,-7.4869,-7.4869,-7.4869,-7.4869,-7.4869,-7.4869,-7.4869,-7.4869,-7.4869,-7.4869,-7.4869,-7.4869,-7.4869,-7.4869,-7.4869,0.0,-7.4869,-7.4869,-7.4869,-7.4779,-7.454,-7.4151,-7.3791,-7.3552,-7.3163,-7.2804,-7.2535,-7.2535,-7.2535,-7.2535,-7.2535,-7.2834,-7.3492,-7.3253,-7.3253,-7.3522,-7.3762,-7.457,-7.6069,-7.7552,-7.9281,-8.1356,-8.2572,-8.3674,-8.464,-8.464,-8.464,-8.464,-8.464,-8.464,-8.464,-8.464,-8.464,-8.464,-8.464,-8.464,-8.464,-6.578,-6.7644,-6.9353,-7.0629,-7.0889,-7.0889,-7.0889,-7.0889,-7.0889,-7.0889,-7.0889,-7.0889,-7.0889,-7.0889,-7.0889,-7.0889,-7.0889,-7.0889,-7.0889,-7.1098,-7.1128,-7.0919,-7.0889,-7.0889,-7.0889,-7.0889,-7.0889,-7.0889,-7.1098,-7.1218,-7.1218,-7.1427,-7.1787,-7.2206,-7.2206,-7.2595,-7.3223,-7.3223,-7.3343,-7.3582,-7.4031,-7.421,-7.424,-7.4689,-7.4869,-7.4869,-7.4869,-7.4869,-7.4869,-7.4869,-7.4869,-7.4869,-7.4869,-7.4869,-7.4869,-7.4869,-7.4869,-7.4869,-7.4869,-7.4869,-7.4869,-7.4869,-7.4869,-7.4869,-7.4869,-7.4869,-7.4869,-7.4869,-7.4869,-7.4869,-7.4869,-7.4869,-7.4869,-7.4869,-7.4869,-7.4869,-7.4869,-7.4869,-7.4869,-7.4869,-7.448,-7.421,-7.421,-7.3791,-7.3432,-7.3223,-7.3223,-7.3223,-7.3223,-7.3402,-7.3732,-7.418,-7.421,-7.421,-7.421,-7.421,-7.5036,-7.6568,-7.7548,-7.9281,-8.1505,-8.2458,-8.3531,-8.464,-8.464,-8.464,-8.464,-8.464,-8.464,-8.464,-8.464,-8.464,-8.464,-8.464,-8.464,-8.464,-6.8112,-6.9648,-7.0889,-7.0889,-7.0889,-7.0889,-7.0889,-7.0889,-7.0889,-7.0889,-7.0889,-7.0889,-7.0919,-7.0919,-7.0919,-7.0919,-7.0919,-7.0919,-7.0919,-7.1517,-7.1607,-7.0949,-7.0919,-7.0919,-7.0919,-7.0919,-7.0919,-7.0919,-7.1577,-7.1906,-7.1906,-7.2595,-7.2924,-7.2924,-7.2924,-7.3283,-7.3911,-7.3911,-7.427,-7.4869,-7.4869,-7.4869,-7.4869,-7.4869,-7.4869,-7.4869,-7.4869,-7.4869,-7.4869,-7.4869,-7.4869,-7.4869,-7.4869,-7.4869,-7.4869,-7.4869,-7.4869,-7.4869,-7.4869,-7.4869,-7.4869,-7.4869,-7.4869,-7.4869,-7.4869,-7.4869,-7.4869,-7.4869,-7.4869,-7.4869,-7.4869,-7.4869,-7.4869,-7.4869,-7.4869,-7.4869,-7.4869,-7.4869,-7.4869,-7.4869,-7.4869,-7.4869,-7.4869,-7.4869,-7.4599,-7.3941,-7.3911,-7.3911,-7.3911,-7.451,-7.4869,-7.4869,-7.4869,-7.4869,-7.4869,-7.4869,-7.4869,-7.5006,-7.8218,-7.9803,-7.9925,-8.3166,-8.464,-8.464,-8.464,-8.464,-8.464,-8.464,-8.464,-8.464,-8.464,-8.464,-8.464,-8.464,-8.464,-8.464,-6.8112,-6.9648,-7.0889,-7.0889,-7.0889,-7.0889,-7.0889,-7.0889,-7.0889,-7.0889,-7.0889,-7.1068,-7.1547,-7.1577,-7.1787,-7.2265,-7.2325,-7.2325,-7.2325,-7.2505,-7.2505,-7.2325,-7.2325,-7.2325,-7.2325,-7.2325,-7.2325,-7.2325,-7.2505,-7.2595,-7.2624,-7.2834,-7.3163,-7.3612,-7.3612,-7.3971,-7.4569,-7.4569,-7.4689,-7.4869,-7.4869,-7.4869,-7.4869,-7.4869,-7.4869,-7.4869,-7.4869,-7.4869,-7.4869,-7.4869,-7.4869,-7.4869,-7.4869,-7.4869,-7.4869,-7.4869,-7.4869,-7.4869,-7.4869,-7.4869,-7.4869,-7.4869,-7.4869,-7.4869,-7.4869,-7.4869,-7.4869,-7.4869,-7.4869,-7.4869,-7.4869,-7.4869,-7.4869,-7.4869,-7.4869,-7.4869,-7.4869,-7.4869,-7.4869,-7.4869,-7.4869,-7.4869,-7.4869,-7.4869,-7.4809,-7.4599,-7.4569,-7.4569,-7.4569,-7.4779,-7.4869,-7.4869,-7.4869,-7.4869,-7.4869,-7.4869,-7.4869,-7.4869,-7.7092,-7.8659,-7.9893,-8.1968,-8.3531,-8.464,-8.464,-8.464,-8.464,-8.464,-8.464,-8.464,-8.464,-8.464,-8.464,-8.464,-8.464,-8.464,-6.8832,-7.0414,-7.1697,-7.1697,-7.1697,-7.1697,-7.1697,-7.1697,-7.1697,-7.1697,-7.1697,-7.1846,-7.2235,-7.2295,-7.2445,-7.2864,-7.2924,-7.2924,-7.2924,-7.3163,-7.3313,-7.3313,-7.3552,-7.3432,-7.2924,-7.2924,-7.2924,-7.2924,-7.3163,-7.3313,-7.3313,-7.3582,-7.3911,-7.43,-7.43,-7.451,-7.4869,-7.4869,-7.4869,-7.4869,-7.4869,-7.4869,-7.4869,-7.4869,-7.4869,-7.4869,-7.4869,-7.4869,-7.4869,-7.4869,-7.4869,-7.4869,-7.4869,-7.4869,-7.4869,-7.4869,-7.4869,-7.4869,-7.4869,-7.4869,-7.4869,-7.4869,-7.4869,-7.4869,-7.4869,-7.4869,-7.4869,-7.4869,-7.4869,-7.4869,-7.4869,-7.4869,-7.4869,-7.4869,-7.4869,-7.4869,-7.4869,-7.4869,-7.4869,-7.4869,-7.4869,-7.4869,-7.4869,-7.4869,-7.4869,-7.4869,-7.4869,-7.4869,-7.4869,-7.4869,-7.4869,-7.4869,-7.4869,-7.4869,-7.4869,-7.4869,-7.4869,-7.4869,-7.7191,-7.8784,-7.9893,-8.2083,-8.3674,-8.464,-8.464,-8.464,-8.464,-8.464,-8.464,-8.464,-8.464,-8.464,-8.464,-8.464,-8.464,-8.464,-7.0402,-7.1727,-7.2924,-7.2924,-7.2924,-7.2924,-7.2924,-7.2924,-7.2924,-7.2924,-7.2924,-7.2924,-7.2984,-7.3013,-7.3013,-7.3073,-7.3103,-7.3103,-7.3103,-7.3642,-7.3971,-7.3971,-7.454,-7.43,-7.3103,-7.3103,-7.3103,-7.3103,-7.3702,-7.3971,-7.4001,-7.4599,-7.4869,-7.4869,-7.4869,-7.4869,-7.4869,-7.4869,-7.4869,-7.4869,-7.4869,-7.4869,-7.4869,-7.4869,-7.4869,-7.4869,-7.4869,-7.4869,-7.4869,-7.4869,-7.4869,-7.4869,-7.4869,-7.4869,-7.4869,-7.4869,-7.4869,-7.4869,-7.4869,-7.4869,-7.4869,-7.4869,-7.4869,-7.4869,-7.4869,-7.4869,-7.4869,-7.4869,-7.4869,-7.4869,-7.4869,-7.4869,-7.4869,-7.4869,-7.4869,-7.4869,-7.4869,-7.4869,-7.4869,-7.4869,-7.4869,-7.4869,-7.4869,-7.4869,-7.4869,-7.4869,-7.4869,-7.4869,-7.4869,-7.4869,-7.4869,-7.4869,-7.4869,-7.4869,-7.4869,-7.5006,-7.5112,-7.5112,-7.8344,-7.9925,-8.0135,-8.3166,-8.464,-8.464,-8.464,-8.464,-8.464,-8.464,-8.464,-8.464,-8.464,-8.464,-8.464,-8.464,-8.464,-8.464,-7.2328,-7.2626,-7.2924,-7.2924,-7.2924,-7.2924,-7.2924,-7.2924,-7.2924,-7.2924,-7.2924,-7.3103,-7.3642,-7.3672,-7.3881,-7.442,-7.445,-7.445,-7.445,-7.4569,-7.4659,-7.4659,-7.4809,-7.4749,-7.445,-7.445,-7.445,-7.445,-7.4599,-7.4659,-7.4659,-7.4809,-7.4869,-7.4869,-7.4869,-7.4869,-7.4869,-7.4869,-7.4869,-7.4869,-7.4869,-7.4869,-7.4869,-7.4869,-7.4869,-7.4869,-7.4869,-7.4869,-7.4869,-7.4869,-7.4869,-7.4869,-7.4869,-7.4869,-7.4869,-7.4869,-7.4869,-7.4869,-7.4869,-7.4869,-7.4869,-7.4869,-7.4869,-7.4869,-7.4869,-7.4869,-7.4869,-7.4869,-7.4869,-7.4869,-7.4869,-7.4869,-7.4869,-7.4869,-7.4869,-7.4869,-7.4869,-7.4869,-7.4869,-7.4869,-7.4869,-7.4869,-7.4869,-7.4869,-7.4869,-7.4869,-7.4869,-7.4869,-7.4869,-7.4869,-7.4869,-7.4869,-7.4869,-7.4869,-7.4869,-7.6202,-7.68,-7.68,-7.8784,-8.0495,-8.1737,-8.3674,-8.464,-8.464,-8.464,-8.464,-8.464,-8.464,-8.464,-8.464,-8.464,-8.464,-8.464,-8.464,-8.464,-8.464,-7.2226,-7.2364,-7.267,-7.3686,-7.3851,-7.3851,-7.3851,-7.3851,-7.3851,-7.3851,-7.3851,-7.3971,-7.433,-7.436,-7.451,-7.4839,-7.4869,-7.4869,-7.4869,-7.4869,-7.4869,-7.4869,-7.4869,-7.4869,-7.4869,-7.4869,-7.4869,-7.4869,-7.4869,-7.4869,-7.4869,-7.4869,-7.4869,-7.4869,-7.4869,-7.4869,-7.4869,-7.4869,-7.4869,-7.4869,-7.4869,-7.4869,-7.4869,-7.4869,-7.4869,-7.4869,-7.4869,-7.4869,-7.4869,-7.4869,-7.4869,-7.4869,-7.4869,-7.4869,-7.4869,-7.4869,-7.4869,-7.4869,-7.4869,-7.4869,-7.4869,-7.4869,-7.4869,-7.4869,-7.4869,-7.4869,-7.4869,-7.4869,-7.4869,-7.4869,-7.4869,-7.4869,-7.4869,-7.4869,-7.4869,-7.4869,-7.4869,-7.4869,-7.4869,-7.4869,-7.4869,-7.4869,-7.4869,-7.4869,-7.4869,-7.4869,-7.4869,-7.4869,-7.4869,-7.4869,-7.4869,-7.4869,-7.4869,-7.4869,-7.4869,-7.6436,-7.7676,-7.8565,-8.0135,-8.1356,-8.223,-8.3893,-8.464,-8.464,-8.464,-8.464,-8.464,-8.464,-8.464,-8.464,-8.464,-8.464,-8.464,-8.464,-8.464,-8.464,-7.1568,-7.1856,-7.2456,-7.4564,-7.4869,-7.4869,-7.4869,-7.4869,-7.4869,-7.4869,-7.4869,-7.4869,-7.4869,-7.4869,-7.4869,-7.4869,-7.4869,-7.4869,-7.4869,-7.4869,-7.4869,-7.4869,-7.4869,-7.4869,-7.4869,-7.4869,-7.4869,-7.4869,-7.4869,-7.4869,-7.4869,-7.4869,-7.4869,-7.4869,-7.4869,-7.4869,-7.4869,-7.4869,-7.4869,-7.4869,-7.4869,-7.4869,-7.4869,-7.4869,-7.4869,-7.4869,-7.4869,-7.4869,-7.4869,-7.4869,-7.4869,-7.4869,-7.4869,-7.4869,-7.4869,-7.4869,-7.4869,-7.4869,-7.4869,-7.4869,-7.4869,-7.4869,-7.4869,-7.4869,-7.4869,-7.4869,-7.4869,-7.4869,-7.4869,-7.4869,-7.4869,-7.4869,-7.4869,-7.4869,-7.4869,-7.4869,-7.4869,-7.4869,-7.4869,-7.4869,-7.4869,-7.4869,-7.4869,-7.4869,-7.4869,-7.4869,-7.4869,-7.4869,-7.4869,-7.4869,-7.4869,-7.4869,-7.4869,-7.5006,-7.5384,-7.6931,-7.8534,-8.0167,-8.1853,-8.2572,-8.2684,-8.4035,-8.464,-8.464,-8.464,-8.464,-8.464,-8.464,-8.464,-8.464,-8.464,-8.464,-8.464,-8.464,-8.464,-8.464,-7.1568,-7.1856,-7.2456,-7.4564,-7.4869,-7.4869,-7.4869,-7.4869,-7.4869,-7.4869,-7.4869,-7.4869,-7.4869,-7.4869,-7.4869,-7.4869,-7.4869,-7.4869,-7.4869,-7.4869,-7.4869,-7.4869,-7.4869,-7.4869,-7.4869,-7.4869,-7.4869,-7.4869,-7.4869,-7.4869,-7.4869,-7.4869,-7.4869,-7.4869,-7.4869,-7.4869,-7.4869,-7.4869,-7.4869,-7.4869,-7.4869,-7.4869,-7.4869,-7.4869,-7.4869,-7.4869,-7.4869,-7.4869,-7.4869,-7.4869,-7.4869,-7.4869,-7.4869,-7.4869,-7.4869,-7.4869,-7.4869,-7.4869,-7.4869,-7.4869,-7.4869,-7.4869,-7.4869,-7.4869,-7.4869,-7.4869,-7.4869,-7.4869,-7.4869,-7.4869,-7.4869,-7.4869,-7.4869,-7.4869,-7.4869,-7.4869,-7.4869,-7.4869,-7.4869,-7.4869,-7.4869,-7.4869,-7.4869,-7.4869,-7.4869,-7.4869,-7.4869,-7.4869,-7.4869,-7.4869,-7.4869,-7.4869,-7.4869,-7.5624,-7.6931,-7.8659,-8.0256,-8.1853,-8.3531,-8.4251,-8.4251,-8.45,-8.464,-8.464,-8.464,-8.464,-8.464,-8.464,-8.464,-8.464,-8.464,-8.464,-8.464,-8.464,-8.464,-8.464,-6.9783,-7.1133,-7.2456,-7.4564,-7.4869,-7.4869,-7.4869,-7.4869,-7.4869,-7.4869,-7.4869,-7.4869,-7.4869,-7.4869,-7.4869,-7.4869,-7.4869,-7.4869,-7.4869,-7.4869,-7.4869,-7.4869,-7.4869,-7.4869,-7.4869,-7.4869,-7.4869,-7.4869,-7.4869,-7.4869,-7.4869,-7.4869,-7.4869,-7.4869,-7.4869,-7.4869,-7.4869,-7.4869,-7.4869,-7.4869,-7.4869,-7.4869,-7.4869,-7.4869,-7.4869,-7.4869,-7.4869,-7.4869,-7.4869,-7.4869,-7.4869,-7.4869,-7.4869,-7.4869,-7.4869,-7.4869,-7.4869,-7.4869,-7.4869,-7.4869,-7.4869,-7.4869,-7.4869,-7.4869,-7.4869,-7.4869,-7.4869,-7.4869,-7.4869,-7.4869,-7.4869,-7.4869,-7.4869,-7.4869,-7.4869,-7.4869,-7.4869,-7.4869,-7.4869,-7.4869,-7.4869,-7.4869,-7.4869,-7.4869,-7.4869,-7.4869,-7.4869,-7.4869,-7.4869,-7.4869,-7.4869,-7.4869,-7.4869,-7.5248,-7.5966,-7.8565,-8.0167,-8.0885,-8.3421,-8.464,-8.464,-8.464,-8.464,-8.464,-8.464,-8.464,-8.464,-8.464,-8.464,-8.464,-8.464,-8.464,-8.464,-8.464,-8.464,-8.464]}]]